[[{"header":{"parameterUnit":"m.s-1","parameterCategory":1,"la1":30.6,"la2":28.766,"lo1":-90.7593,"lo2":-88.6598,"dy":0.0162,"dx":0.0183,"nx":116,"ny":114,"refTime":"2023-09-19T18:00:00:Z","depth":0,"parameterNumber":2,"parameterNumberName":"U-component_of_WINDS"},"data":[0.0,0.0,0.0,0.0,0.0,0.0,0.0,0.0,0.0,0.0,0.0,0.0,0.0,0.0,0.0,0.0,0.0,0.0,0.0,0.0,0.0,0.0,0.0,0.0,0.0,0.0,0.0,0.0,0.0,0.0,0.0,0.0,0.0,0.0,0.0,0.0,0.0,0.0,0.0,0.0,0.0,0.0,0.0,0.0,0.0,0.0,0.0,0.0,0.0,0.0,0.0,0.0,0.0,0.0,0.0,0.0,0.0,0.0,0.0,0.0,0.0,0.0,0.0,0.0,0.0,0.0,0.0,0.0,0.0,0.0,0.0,0.0,0.0,0.0,0.0,0.0,0.0,0.0,0.0,0.0,0.0,0.0,0.0,0.0,0.0,0.0,0.0,0.0,0.0,0.0,0.0,0.0,0.0,0.0,0.0,0.0,0.0,0.0,0.0,0.0,0.0,0.0,0.0,0.0,0.0,0.0,0.0,0.0,0.0,0.0,0.0,0.0,0.0,0.0,0.0,0.0,0.0,0.0,0.0,0.0,0.0,0.0,0.0,0.0,0.0,0.0,0.0,0.0,0.0,0.0,0.0,0.0,0.0,0.0,0.0,0.0,0.0,0.0,0.0,0.0,0.0,0.0,0.0,0.0,0.0,0.0,0.0,0.0,0.0,0.0,0.0,0.0,0.0,0.0,0.0,0.0,0.0,0.0,0.0,0.0,0.0,0.0,0.0,0.0,0.0,0.0,0.0,0.0,0.0,0.0,0.0,0.0,0.0,0.0,0.0,0.0,0.0,0.0,0.0,0.0,0.0,0.0,0.0,0.0,0.0,0.0,0.0,0.0,0.0,0.0,0.0,0.0,0.0,0.0,0.0,0.0,0.0,0.0,0.0,0.0,0.0,0.0,0.0,0.0,0.0,0.0,0.0,0.0,0.0,0.0,0.0,0.0,0.0,0.0,0.0,0.0,0.0,0.0,0.0,0.0,0.0,0.0,0.0,0.0,0.0,0.0,0.0,0.0,0.0,0.0,0.0,0.0,0.0,0.0,0.0,0.0,0.0,0.0,0.0,0.0,0.0,0.0,0.0,0.0,0.0,0.0,0.0,0.0,0.0,0.0,0.0,0.0,0.0,0.0,0.0,0.0,0.0,0.0,0.0,0.0,0.0,0.0,0.0,0.0,0.0,0.0,0.0,0.0,0.0,0.0,0.0,0.0,0.0,0.0,0.0,0.0,0.0,0.0,0.0,0.0,0.0,0.0,0.0,0.0,0.0,0.0,0.0,0.0,0.0,0.0,0.0,0.0,0.0,0.0,0.0,0.0,0.0,0.0,0.0,0.0,0.0,0.0,0.0,0.0,0.0,0.0,0.0,0.0,0.0,0.0,0.0,0.0,0.0,0.0,0.0,0.0,0.0,0.0,0.0,0.0,0.0,0.0,0.0,0.0,0.0,0.0,0.0,0.0,0.0,0.0,0.0,0.0,0.0,0.0,0.0,0.0,0.0,0.0,0.0,0.0,0.0,0.0,0.0,0.0,0.0,0.0,0.0,0.0,0.0,0.0,0.0,0.0,0.0,0.0,0.0,0.0,0.0,0.0,0.0,0.0,0.0,0.0,0.0,0.0,0.0,0.0,0.0,0.0,0.0,0.0,0.0,0.0,0.0,0.0,0.0,0.0,0.0,0.0,0.0,0.0,0.0,0.0,0.0,0.0,0.0,0.0,0.0,0.0,0.0,0.0,0.0,0.0,0.0,0.0,0.0,0.0,0.0,0.0,0.0,0.0,0.0,0.0,0.0,0.0,0.0,0.0,0.0,0.0,0.0,0.0,0.0,0.0,0.0,0.0,0.0,0.0,0.0,0.0,0.0,0.0,0.0,0.0,0.0,0.0,0.0,0.0,0.0,0.0,0.0,0.0,0.0,0.0,0.0,0.0,0.0,0.0,0.0,0.0,0.0,0.0,0.0,0.0,0.0,0.0,0.0,0.0,0.0,0.0,0.0,0.0,0.0,0.0,0.0,0.0,0.0,0.0,0.0,0.0,0.0,0.0,0.0,0.0,0.0,0.0,0.0,0.0,0.0,0.0,0.0,0.0,0.0,0.0,0.0,0.0,0.0,0.0,0.0,0.0,0.0,0.0,0.0,0.0,0.0,0.0,0.0,0.0,0.0,0.0,0.0,0.0,0.0,0.0,0.0,0.0,0.0,0.0,0.0,0.0,0.0,0.0,0.0,0.0,0.0,0.0,0.0,0.0,0.0,0.0,0.0,0.0,0.0,0.0,0.0,0.0,0.0,0.0,0.0,0.0,0.0,0.0,0.0,0.0,0.0,0.0,0.0,0.0,0.0,0.0,0.0,0.0,0.0,0.0,0.0,0.0,0.0,0.0,0.0,0.0,0.0,0.0,0.0,0.0,0.0,0.0,0.0,0.0,0.0,0.0,0.0,0.0,0.0,0.0,0.0,0.0,0.0,0.0,0.0,0.0,0.0,0.0,0.0,0.0,0.0,0.0,0.0,0.0,0.0,0.0,0.0,0.0,0.0,0.0,0.0,0.0,0.0,0.0,0.0,0.0,0.0,0.0,0.0,0.0,0.0,0.0,0.0,0.0,0.0,0.0,0.0,0.0,0.0,0.0,0.0,0.0,0.0,0.0,0.0,0.0,0.0,0.0,0.0,0.0,0.0,0.0,0.0,0.0,0.0,0.0,0.0,0.0,0.0,0.0,0.0,0.0,0.0,0.0,0.0,0.0,0.0,0.0,0.0,0.0,0.0,0.0,0.0,0.0,0.0,0.0,0.0,0.0,0.0,0.0,0.0,0.0,0.0,0.0,0.0,0.0,0.0,0.0,0.0,0.0,0.0,0.0,0.0,0.0,0.0,0.0,0.0,0.0,0.0,0.0,0.0,0.0,0.0,0.0,0.0,0.0,0.0,0.0,0.0,0.0,0.0,0.0,0.0,0.0,0.0,0.0,0.0,0.0,0.0,0.0,0.0,0.0,0.0,0.0,0.0,0.0,0.0,0.0,0.0,0.0,0.0,0.0,0.0,0.0,0.0,0.0,0.0,0.0,0.0,0.0,0.0,0.0,0.0,0.0,0.0,0.0,0.0,0.0,0.0,0.0,0.0,0.0,0.0,0.0,0.0,0.0,0.0,0.0,0.0,0.0,0.0,0.0,0.0,0.0,0.0,0.0,0.0,0.0,0.0,0.0,0.0,0.0,0.0,0.0,0.0,0.0,0.0,0.0,0.0,0.0,0.0,0.0,0.0,0.0,0.0,0.0,0.0,0.0,0.0,0.0,0.0,0.0,0.0,0.0,0.0,0.0,0.0,0.0,0.0,0.0,0.0,0.0,0.0,0.0,0.0,0.0,0.0,0.0,0.0,0.0,0.0,0.0,0.0,0.0,0.0,0.0,0.0,0.0,0.0,0.0,0.0,0.0,0.0,0.0,0.0,0.0,0.0,0.0,0.0,0.0,0.0,0.0,0.0,0.0,0.0,0.0,0.0,0.0,0.0,0.0,0.0,0.0,0.0,0.0,0.0,0.0,0.0,0.0,0.0,0.0,0.0,0.0,0.0,0.0,0.0,0.0,0.0,0.0,0.0,0.0,0.0,0.0,0.0,0.0,0.0,0.0,0.0,0.0,0.0,0.0,0.0,0.0,0.0,0.0,0.0,0.0,0.0,0.0,0.0,0.0,0.0,0.0,0.0,0.0,0.0,0.0,0.0,0.0,0.0,0.0,0.0,0.0,0.0,0.0,0.0,0.0,0.0,0.0,0.0,0.0,0.0,0.0,0.0,0.0,0.0,0.0,0.0,0.0,0.0,0.0,0.0,0.0,0.0,0.0,0.0,0.0,0.0,0.0,0.0,0.0,0.0,0.0,0.0,0.0,0.0,0.0,0.0,0.0,0.0,0.0,0.0,0.0,0.0,0.0,0.0,0.0,0.0,0.0,0.0,0.0,0.0,0.0,0.0,0.0,0.0,0.0,0.0,0.0,0.0,0.0,0.0,0.0,0.0,0.0,0.0,0.0,0.0,0.0,0.0,0.0,0.0,0.0,0.0,0.0,0.0,0.0,0.0,0.0,0.0,0.0,0.0,0.0,0.0,0.0,0.0,0.0,0.0,0.0,0.0,0.0,0.0,0.0,0.0,0.0,0.0,0.0,0.0,0.0,0.0,0.0,0.0,0.0,0.0,0.0,0.0,0.0,0.0,0.0,0.0,0.0,0.0,0.0,0.0,0.0,0.0,0.0,0.0,0.0,0.0,0.0,0.0,0.0,0.0,0.0,0.0,0.0,0.0,0.0,0.0,0.0,0.0,0.0,0.0,0.0,0.0,0.0,0.0,0.0,0.0,0.0,0.0,0.0,0.0,0.0,0.0,0.0,0.0,0.0,0.0,0.0,0.0,0.0,0.0,0.0,0.0,0.0,0.0,0.0,0.0,0.0,0.0,0.0,0.0,0.0,0.0,0.0,0.0,0.0,0.0,0.0,0.0,0.0,0.0,0.0,0.0,0.0,0.0,0.0,0.0,0.0,0.0,0.0,0.0,0.0,0.0,0.0,0.0,0.0,0.0,0.0,0.0,0.0,0.0,0.0,0.0,0.0,0.0,0.0,0.0,0.0,0.0,0.0,0.0,0.0,0.0,0.0,0.0,0.0,0.0,0.0,0.0,0.0,0.0,0.0,0.0,0.0,0.0,0.0,0.0,0.0,0.0,0.0,0.0,0.0,0.0,0.0,0.0,0.0,0.0,0.0,0.0,0.0,0.0,0.0,0.0,0.0,0.0,0.0,0.0,0.0,0.0,0.0,0.0,0.0,0.0,0.0,0.0,0.0,0.0,0.0,0.0,0.0,0.0,0.0,0.0,0.0,0.0,0.0,0.0,0.0,0.0,0.0,0.0,0.0,0.0,0.0,0.0,0.0,0.0,0.0,0.0,0.0,0.0,0.0,0.0,0.0,0.0,0.0,0.0,0.0,0.0,0.0,0.0,0.0,0.0,0.0,0.0,0.0,0.0,0.0,0.0,0.0,0.0,0.0,0.0,0.0,0.0,0.0,0.0,0.0,0.0,0.0,0.0,0.0,0.0,0.0,0.0,0.0,0.0,0.0,0.0,0.0,0.0,0.0,0.0,0.0,0.0,0.0,0.0,0.0,0.0,0.0,0.0,0.0,0.0,0.0,0.0,0.0,0.0,0.0,0.0,0.0,0.0,0.0,0.0,0.0,0.0,0.0,0.0,0.0,0.0,0.0,0.0,0.0,0.0,0.0,0.0,0.0,0.0,0.0,0.0,0.0,0.0,0.0,0.0,0.0,0.0,0.0,0.0,0.0,0.0,0.0,0.0,0.0,0.0,0.0,0.0,0.0,0.0,0.0,0.0,0.0,0.0,0.0,0.0,0.0,0.0,0.0,0.0,0.0,0.0,0.0,0.0,0.0,0.0,0.0,0.0,0.0,0.0,0.0,0.0,0.0,0.0,0.0,0.0,0.0,0.0,0.0,0.0,0.0,0.0,0.0,0.0,0.0,0.0,0.0,0.0,0.0,0.0,0.0,0.0,0.0,0.0,0.0,0.0,0.0,0.0,0.0,0.0,0.0,0.0,0.0,0.0,0.0,0.0,0.0,0.0,0.0,0.0,0.0,0.0,0.0,0.0,0.0,0.0,0.0,0.0,0.0,0.0,0.0,0.0,0.0,0.0,0.0,0.0,0.0,0.0,0.0,0.0,0.0,0.0,0.0,0.0,0.0,0.0,0.0,0.0,0.0,0.0,0.0,0.0,0.0,0.0,0.0,0.0,0.0,0.0,0.0,0.0,0.0,0.0,0.0,0.0,0.0,0.0,0.0,0.0,0.0,0.0,0.0,0.0,0.0,0.0,0.0,0.0,0.0,0.0,0.0,0.0,0.0,0.0,0.0,0.0,0.0,0.0,0.0,0.0,0.0,0.0,0.0,0.0,0.0,0.0,0.0,0.0,0.0,0.0,0.0,0.0,0.0,0.0,0.0,0.0,0.0,0.0,0.0,0.0,0.0,0.0,0.0,0.0,0.0,0.0,0.0,0.0,0.0,0.0,0.0,0.0,0.0,0.0,0.0,0.0,0.0,0.0,0.0,0.0,0.0,0.6321,0.6542,0.0,0.0,0.0,0.0,0.0,0.0,0.0,0.0,0.0,0.0,0.0,0.0,0.0,0.0,0.0,0.0,0.0,0.0,0.0,0.0,0.0,0.0,0.0,0.0,0.0,0.0,0.0,0.0,0.0,0.0,0.0,0.0,0.0,0.0,0.0,0.0,0.0,0.0,0.5198,0.5606,0.6231,0.6231,0.6347,0.6583,0.0,0.0,0.0,0.0,0.0,0.0,0.0,0.0,0.0,0.0,0.0,0.0,0.0,0.0,0.0,0.0,0.0,0.0,0.0,0.0,0.0,0.0,0.0,0.0,0.0,0.0,0.0,0.0,0.0,0.0,0.0,0.0,0.0,0.0,0.0,0.0,0.0,0.0,0.0,0.0,0.0,0.0,0.0,0.0,0.0,0.0,0.0,0.0,0.0,0.0,0.0,0.0,0.0,0.0,0.0,0.0,0.0,0.0,0.0,0.0,0.0,0.0,0.0,0.0,0.0,0.0,0.0,0.0,0.0,0.0,0.6634,0.6722,0.0,0.0,0.0,0.0,0.0,0.0,0.0,0.0,0.0,0.0,0.0,0.0,0.0,0.0,0.0,0.0,0.0,0.0,0.0,0.0,0.0,0.0,0.0,0.0,0.0,0.0,0.0,0.0,0.0,0.0,0.0,0.0,0.0,0.0,0.0,0.0,0.0,0.5356,0.5702,0.6186,0.6753,0.6965,0.7057,0.7057,0.6942,0.0,0.0,0.0,0.0,0.0,0.0,0.0,0.0,0.0,0.0,0.0,0.0,0.0,0.0,0.0,0.0,0.0,0.0,0.0,0.0,0.0,0.0,0.0,0.0,0.0,0.0,0.0,0.0,0.0,0.0,0.0,0.0,0.0,0.0,0.0,0.0,0.0,0.0,0.0,0.0,0.0,0.0,0.0,0.0,0.0,0.0,0.0,0.0,0.0,0.0,0.0,0.0,0.0,0.0,0.0,0.0,0.0,0.0,0.0,0.0,0.0,0.0,0.0,0.7639,0.7507,0.7484,0.7061,0.6944,0.7095,0.6925,0.6906,0.7013,0.7165,0.0,0.0,0.0,0.0,0.0,0.0,0.0,0.0,0.0,0.0,0.0,0.0,0.0,0.0,0.0,0.0,0.0,0.0,0.0,0.0,0.0,0.0,0.4918,0.472,0.4701,0.4601,0.0,0.0,0.0,0.0,0.0,0.0,0.0,0.4638,0.514,0.5564,0.6518,0.7119,0.7388,0.7588,0.7684,0.7665,0.7134,0.698,0.7107,0.0,0.0,0.0,0.0,0.0,0.0,0.0,0.0,0.0,0.0,0.0,0.0,0.0,0.0,0.0,0.0,0.0,0.0,0.0,0.0,0.0,0.0,0.0,0.0,0.0,0.0,0.0,0.0,0.0,0.0,0.0,0.0,0.0,0.0,0.0,0.0,0.0,0.0,0.0,0.0,0.0,1.0197,1.0154,0.0,0.0,0.0,0.0,0.0,0.0,0.0,0.0,0.0,0.0,0.0,0.0,0.0,0.7363,0.7591,0.7569,0.7657,0.79,0.7639,0.7507,0.7484,0.719,0.7076,0.7095,0.7073,0.0,0.7768,0.779,0.0,0.0,0.0,0.0,0.0,0.0,0.0,0.0,0.0,0.0,0.0,0.0,0.0,0.0,0.0,0.0,0.0,0.0,0.0,0.0,0.0,0.5093,0.5129,0.5049,0.5149,0.5068,0.4752,0.0,0.0,0.0,0.0,0.0,0.4599,0.5201,0.5935,0.6838,0.7311,0.7588,0.7665,0.7642,0.7757,0.7953,0.7565,0.7446,0.7518,0.7234,0.0,0.0,0.0,0.0,0.0,0.0,0.0,0.0,0.0,0.0,0.0,0.0,0.0,0.0,0.0,0.0,0.0,0.0,0.0,0.0,0.0,0.0,0.0,0.0,0.0,0.0,0.0,0.0,0.0,0.0,0.0,0.0,0.0,0.0,0.0,0.0,0.0,0.0,0.0,1.0387,0.9928,0.9679,0.9327,0.9087,0.0,0.0,0.0,0.0,0.0,0.0,0.0,0.0,0.0,0.7562,0.7411,0.7393,0.7507,0.7345,0.7345,0.7452,0.7323,0.7279,0.7279,0.7301,0.7323,0.7323,0.7477,0.7742,0.805,0.779,0.7944,0.8358,0.0,0.0,0.0,0.0,0.8076,0.8274,0.0,0.0,0.0,0.0,0.0,0.0,0.0,0.0,0.0,0.0,0.0,0.0,0.5073,0.5265,0.5418,0.5512,0.5731,0.5731,0.5431,0.5295,0.0,0.0,0.0,0.4791,0.514,0.586,0.6807,0.7955,0.791,0.7876,0.7876,0.7718,0.7821,0.8099,0.8045,0.7996,0.7936,0.7691,0.7484,0.7315,0.0,0.0,0.0,0.0,0.0,0.0,0.0,0.0,0.0,0.0,0.0,0.0,0.0,0.0,0.0,0.0,0.0,0.0,0.0,0.0,0.0,0.0,0.0,0.0,0.0,0.0,0.0,0.0,0.0,0.0,0.0,0.0,0.0,0.0,0.0,0.0,0.0,1.0407,0.9767,0.9453,0.8922,0.8627,0.0,0.0,0.0,0.0,0.0,0.0,0.7698,0.7698,0.772,0.779,0.7613,0.7529,0.7591,0.7408,0.7297,0.7297,0.7297,0.7297,0.7319,0.7499,0.7591,0.7613,0.7874,0.8094,0.8263,0.7852,0.7918,0.8288,0.8072,0.823,0.8564,0.8208,0.834,0.8652,0.0,0.0,0.0,0.0,0.0,0.0,0.0,0.0,0.0,0.0,0.0,0.5073,0.5262,0.5459,0.5731,0.6125,0.6402,0.6544,0.6521,0.6096,0.5764,0.5525,0.5356,0.5356,0.5564,0.6598,0.7546,0.8365,0.8178,0.8087,0.8087,0.8068,0.8082,0.8117,0.8497,0.8551,0.8346,0.7959,0.7783,0.7725,0.733,0.0,0.0,0.0,0.0,0.0,0.0,0.0,0.0,0.0,0.0,0.0,0.0,0.0,0.0,0.0,0.0,0.0,0.0,0.0,0.0,0.0,0.0,0.0,0.0,0.0,0.0,0.0,0.0,0.0,0.0,0.0,0.0,0.0,0.0,0.0,0.0,0.0,0.0,0.9964,0.9314,0.0,0.0,0.0,0.0,0.7591,0.7551,0.7415,0.7161,0.7139,0.7253,0.7503,0.7507,0.7613,0.7878,0.7878,0.7856,0.7856,0.7856,0.7856,0.7856,0.7878,0.7878,0.79,0.8091,0.8332,0.8548,0.8285,0.8336,0.8542,0.8292,0.8358,0.8586,0.8574,0.8706,0.8911,0.0,0.0,0.0,0.0,0.0,0.0,0.0,0.0,0.0,0.514,0.5246,0.5357,0.5488,0.6057,0.6556,0.6819,0.728,0.7457,0.7196,0.6899,0.6511,0.6009,0.6073,0.6479,0.7195,0.7706,0.8231,0.8794,0.8579,0.8486,0.8491,0.8478,0.8551,0.8693,0.8839,0.8919,0.8966,0.8686,0.8666,0.8786,0.8206,0.811,0.0,0.0,0.0,0.0,0.0,0.0,0.0,0.0,0.0,0.0,0.0,0.0,0.0,0.0,0.0,0.0,0.0,0.0,0.0,0.0,0.0,0.0,0.0,0.0,0.0,0.0,0.0,0.0,0.0,0.0,0.0,0.0,0.0,0.0,0.0,0.0,0.0,0.9746,0.8968,0.0,0.8223,0.8091,0.794,0.7768,0.7746,0.7724,0.761,0.761,0.7654,0.7746,0.7746,0.7812,0.79,0.79,0.79,0.79,0.79,0.7962,0.8091,0.8266,0.842,0.856,0.8797,0.8973,0.9047,0.9096,0.9079,0.9043,0.8951,0.9045,0.9241,0.9237,0.9359,0.9562,0.0,0.0,0.0,0.0,0.0,0.0,0.0,0.0,0.0,0.5609,0.5739,0.5939,0.6182,0.6801,0.7361,0.7774,0.8175,0.8313,0.8116,0.7783,0.7414,0.6953,0.7115,0.7576,0.8389,0.8621,0.8894,0.9246,0.9109,0.9009,0.8934,0.8844,0.8877,0.8997,0.9064,0.9266,0.9535,0.9535,0.9558,0.9572,0.9139,0.9076,0.9174,0.0,0.0,0.0,0.0,0.0,0.0,0.0,0.0,0.0,0.0,0.0,0.0,0.0,0.0,0.0,0.0,0.0,0.0,0.0,0.0,0.0,0.0,0.0,0.0,0.0,0.0,0.0,0.0,0.0,0.0,0.0,0.0,0.0,0.0,1.0684,1.0055,0.9859,0.9078,0.853,0.8442,0.8248,0.8135,0.8135,0.8135,0.8135,0.8135,0.8135,0.816,0.823,0.823,0.827,0.838,0.838,0.838,0.838,0.844,0.8553,0.8686,0.8925,0.9115,0.9254,0.95,0.9611,0.962,0.9836,0.9903,0.9852,0.9589,0.9575,0.9708,0.9772,0.9953,1.0162,0.0,0.0,0.0,0.0,0.0,0.0,0.0,0.0,0.6346,0.6407,0.6495,0.6782,0.7366,0.7683,0.8189,0.896,0.9036,0.9117,0.9303,0.8765,0.8441,0.8422,0.8427,0.8637,0.9027,0.9291,0.9527,0.9719,0.9717,0.9622,0.9423,0.9162,0.9061,0.9073,0.9277,0.9622,1.0081,1.0484,1.0446,1.0111,1.0136,1.0156,1.0085,0.0,0.0,0.0,0.0,0.0,0.0,0.0,0.0,0.0,0.0,0.0,0.0,0.0,0.0,0.0,0.0,0.0,0.0,0.0,0.0,0.0,0.0,0.0,0.0,0.0,0.0,0.0,0.0,0.0,0.0,0.0,0.0,0.0,1.1721,1.1079,1.0549,1.0337,0.9733,0.9218,0.8955,0.8749,0.8614,0.8614,0.8614,0.8614,0.8614,0.8614,0.871,0.892,0.892,0.9056,0.9323,0.9323,0.9323,0.9323,0.9508,0.9615,0.9642,0.9841,0.993,0.9953,1.0158,1.025,1.025,1.051,1.0792,1.0954,1.0209,0.9935,0.9985,1.0167,1.0427,1.0732,0.0,0.0,0.0,0.0,0.0,0.0,0.0,0.6489,0.6704,0.6811,0.7403,0.7884,0.8091,0.888,0.9464,0.9644,0.9911,0.9986,0.9752,0.9449,0.9203,0.9056,0.9242,0.9535,0.9937,1.0069,1.0129,1.0139,1.0136,1.0117,1.006,1.0172,1.0318,1.0459,1.0652,1.0924,1.1268,1.1864,1.2269,1.238,1.1593,1.1372,1.1485,0.0,0.0,0.0,0.0,0.0,0.0,0.0,0.0,0.0,0.0,0.0,0.0,0.0,0.0,0.0,0.0,0.0,0.0,0.0,0.0,0.0,0.0,0.0,0.0,0.0,0.0,0.0,0.0,0.0,0.0,0.0,1.1962,1.2075,1.1499,1.1251,1.0982,1.0641,1.0125,0.9689,0.9432,0.9235,0.9104,0.9104,0.9104,0.9104,0.9104,0.9104,0.9209,0.9392,0.9419,0.9507,0.9725,0.9725,0.9725,0.9725,0.9801,1.0007,1.0329,1.0389,1.0621,1.099,1.106,1.1083,1.1093,1.1308,1.1448,1.1452,1.0915,1.0902,1.1212,1.1278,1.1424,1.1654,0.0,0.0,0.0,0.0,0.0,0.0,0.0,0.6988,0.7398,0.7858,0.8551,0.9176,0.9563,1.0167,1.06,1.0722,1.0745,1.0681,1.0537,1.0349,1.0149,0.9985,1.0202,1.0443,1.0714,1.0877,1.0921,1.0886,1.0889,1.0895,1.09,1.1053,1.1225,1.1435,1.1671,1.1987,1.2458,1.3012,1.3584,1.4063,1.3565,1.325,1.3019,1.2645,1.2361,1.2166,1.1928,1.1981,1.2152,1.2305,0.0,0.0,0.0,0.0,0.0,0.0,0.0,0.0,0.0,0.0,0.0,0.0,0.0,0.0,0.0,0.0,0.0,0.0,0.0,0.0,0.0,0.0,0.0,0.0,1.247,1.254,1.1715,1.1516,1.1316,1.0879,1.0511,1.0142,0.9798,0.9668,0.9621,0.9708,0.9712,0.9749,0.9831,0.9947,1.007,1.0181,1.0299,1.0401,1.0528,1.0528,1.0528,1.0533,1.0734,1.1006,1.1356,1.1475,1.1733,1.2099,1.2015,1.1992,1.2008,1.212,1.2153,0.0,0.0,0.0,0.0,0.0,1.2236,1.2395,0.0,0.0,0.0,0.0,0.0,0.0,0.0,0.7584,0.8197,0.9104,0.9729,1.0412,1.1233,1.1404,1.1582,1.1908,1.1507,1.1278,1.1391,1.1254,1.1105,1.1014,1.1251,1.1398,1.1459,1.1714,1.1841,1.182,1.1806,1.18,1.18,1.1864,1.2015,1.225,1.2549,1.3054,1.3698,1.4105,1.4657,1.5304,1.5703,1.5359,1.4559,1.4321,1.4126,1.3936,1.3691,1.3782,1.3978,1.3978,0.0,0.0,0.0,0.0,0.0,0.0,0.0,0.0,0.0,0.0,0.0,0.0,0.0,0.0,0.0,0.0,0.0,0.0,0.0,0.0,0.0,0.0,0.0,0.0,1.3116,1.322,1.2339,1.2021,1.1679,1.1137,1.0919,1.0629,1.0197,1.0153,1.0235,1.0404,1.0418,1.0499,1.0681,1.0921,0.0,0.0,0.0,1.1526,1.1551,1.1569,1.1569,1.1556,1.1981,1.2289,1.2531,1.2777,1.2996,1.3167,1.302,1.2953,1.2929,1.2958,1.2953,1.288,1.2322,1.2151,1.2224,1.2686,1.2886,1.2934,0.0,0.0,0.0,0.0,0.0,0.0,0.0,0.8135,0.8636,0.9209,1.0168,1.0995,1.15,1.2078,1.2354,1.2151,1.2043,1.1815,1.1422,1.1462,1.1551,1.1697,1.2152,1.2417,1.2431,1.2688,1.2717,1.2505,1.251,1.2513,1.2507,1.2884,1.326,1.3641,1.4231,1.4782,1.5289,1.5739,1.6098,1.6414,1.6702,1.6407,1.5767,1.5718,1.5677,1.5636,1.5587,1.5587,1.5636,1.5636,1.5525,1.5365,1.5323,1.5032,0.0,0.0,0.0,0.0,0.0,0.0,0.0,0.0,0.0,0.0,0.0,0.0,0.0,0.0,0.0,0.0,0.0,0.0,0.0,1.3892,1.4104,1.4102,1.3607,1.3166,1.2591,1.1672,1.1521,1.1409,1.1141,1.1141,1.1156,1.1179,1.1184,1.1199,1.1239,1.129,1.151,1.1877,1.2088,1.2302,1.2528,1.268,1.268,1.2528,1.2619,0.0,1.3298,1.3349,1.3492,1.3757,1.3932,1.3889,1.3691,1.3913,1.3889,1.3619,1.3093,1.3026,1.3219,1.3322,1.337,1.3418,0.0,0.0,0.0,0.0,0.0,0.0,0.0,0.8442,0.9012,0.9711,1.0598,1.1413,1.2076,1.2453,1.2686,1.2736,1.2603,1.2387,1.2118,1.2164,1.2311,1.2579,1.2852,1.3027,1.3063,1.3174,1.3179,1.3052,1.3158,1.3258,1.3421,1.3978,1.4517,1.5019,1.56,1.6178,1.6719,1.7062,1.7343,1.7566,1.7818,1.7708,1.7355,1.6927,1.6743,1.6743,1.6743,1.6743,1.6763,1.6878,1.6809,1.6698,1.6698,1.6535,1.6288,0.0,0.0,0.0,0.0,0.0,0.0,0.0,0.0,0.0,0.0,0.0,0.0,0.0,0.0,1.5644,1.5476,0.0,1.554,1.537,1.5317,1.5108,1.4527,1.4261,1.3581,1.2214,1.1836,1.1612,1.1428,1.1405,1.1433,1.155,1.1555,1.1583,1.1689,1.1955,1.2244,1.2594,1.2953,1.3271,1.3552,1.3643,1.3643,1.3552,1.3678,1.4004,1.4448,1.4448,1.4597,1.4843,1.4843,1.4729,1.4496,1.4496,1.4496,1.4466,1.4064,1.3727,1.3539,1.3799,1.3895,1.3968,0.0,0.0,0.0,0.0,0.0,0.0,0.0,0.0,0.9323,1.0142,1.0787,1.1521,1.2406,1.2491,1.2698,1.3258,1.3087,1.2967,1.3005,1.3059,1.3212,1.3471,1.355,1.36,1.3639,1.3646,1.3667,1.373,1.3885,1.4131,1.4433,1.5103,1.5739,1.635,1.6862,1.7432,1.8014,1.8193,1.8373,1.8594,1.8743,1.8812,1.8732,1.804,1.7716,1.7656,1.7656,1.7656,1.7676,1.785,1.7882,1.7882,1.7882,1.7882,1.7801,1.7387,1.7204,0.0,0.0,0.0,0.0,0.0,0.0,0.0,0.0,1.7742,1.759,1.7603,1.7443,1.7295,1.7338,1.7173,1.6955,1.6809,1.6558,1.6158,1.5474,1.5249,1.4591,1.3101,1.2455,1.2044,1.184,1.1817,1.1872,1.2041,1.2056,1.211,1.2287,1.2759,1.3123,1.334,1.3884,1.4292,1.4442,1.4562,1.4562,1.4466,1.4664,1.4992,1.5415,1.5415,1.5557,1.5778,1.5676,1.5588,1.5506,1.5237,1.522,1.5291,1.5022,1.4448,1.3853,1.4304,1.4466,1.452,0.0,0.0,0.0,0.0,0.0,0.0,0.0,0.0,0.0,0.9994,1.0402,1.096,1.1736,1.197,1.2397,1.323,1.3373,1.3533,1.3755,1.4007,1.4148,1.4177,1.4421,1.4559,1.4545,1.4545,1.4678,1.4922,1.4943,1.5145,1.5547,1.6209,1.6866,1.755,1.8195,1.8716,1.9123,1.9143,1.9163,1.9202,1.9222,1.9222,1.9222,1.9123,1.8873,1.856,1.856,1.856,1.8551,1.8571,1.8591,1.8591,1.8591,1.8591,1.8531,1.8313,1.8484,1.8662,1.8308,1.8342,1.857,1.8994,1.9094,1.9191,0.0,1.9458,1.9199,1.8807,1.8515,1.8229,1.788,1.7801,1.7794,1.7819,1.7604,1.7251,1.677,1.6122,1.5481,1.4867,1.4124,1.3562,1.3286,1.3262,1.3273,1.3301,1.3307,1.3318,1.3322,1.36,1.3908,1.4154,1.4867,1.5159,1.5011,1.5428,1.5428,1.5011,1.5035,1.522,1.5493,1.5493,1.5611,1.5825,1.6275,1.6699,1.7052,1.6831,1.6471,1.6055,1.5778,1.5356,1.4939,1.4987,1.5011,1.5011,0.0,0.0,0.0,0.0,0.0,0.0,0.0,0.0,0.0,0.0,1.025,1.0679,1.1392,1.2165,1.2813,1.3257,1.3601,1.3943,1.4277,1.4417,1.4607,1.4929,1.5059,1.511,1.511,1.5214,1.5401,1.5671,1.6044,1.6427,1.6878,1.755,1.8135,1.8645,1.9053,1.939,1.9647,1.9647,1.9647,1.9647,1.9647,1.9647,1.9647,1.9647,1.9528,1.9379,1.9141,1.9062,0.0,1.9181,1.923,1.925,1.9359,1.9585,1.9798,1.9709,1.9871,2.0029,1.9765,1.9637,1.962,1.9782,1.9743,1.9682,1.9864,1.9835,1.9787,1.9813,1.9735,1.9673,1.9703,1.9613,1.9494,1.9366,1.887,1.8301,1.7677,1.7068,1.6386,1.5605,1.5201,1.4723,1.4034,1.3968,1.3968,1.3968,1.3968,1.3968,1.3968,1.4226,1.449,1.4766,1.5207,1.5469,1.5506,1.5713,1.5713,1.5499,1.5679,1.5886,1.6157,1.6416,1.6676,1.6918,1.6981,1.7052,1.7113,1.7026,1.669,1.6187,1.6076,1.5815,1.5475,1.5387,1.5333,1.5356,0.0,0.0,0.0,0.0,0.0,0.0,0.0,0.0,0.0,0.0,0.0,1.0663,1.1348,1.2427,1.321,1.3506,1.3933,1.4405,1.4881,1.4902,1.5106,1.5581,1.565,1.5684,1.5684,1.5933,1.6221,1.655,1.7033,1.7561,1.8155,1.8696,1.9193,1.9677,1.9863,2.0069,2.0264,2.0264,2.0264,2.0264,2.0264,2.0264,2.0264,2.0264,2.0264,2.0196,1.9666,1.946,1.9479,1.9636,1.9819,1.9983,2.0132,2.0546,2.0941,2.0889,2.0934,2.098,2.0945,2.0721,2.0509,2.0598,2.0528,2.0458,2.0558,2.0585,2.0654,2.0896,2.0937,2.0996,2.1154,2.1037,2.0767,2.0442,1.9783,1.905,1.8311,1.7683,1.6974,1.6109,1.595,1.5594,1.4801,1.461,1.4514,1.4514,1.4514,1.4514,1.4514,1.4783,1.5005,1.5196,1.5523,1.5737,1.5808,1.5879,1.5879,1.5808,1.6076,1.6289,1.6518,1.7052,1.7496,1.7791,1.7691,1.7574,1.7488,1.7347,1.7019,1.6595,1.6461,1.6265,1.5991,1.5849,1.5754,1.5713,0.0,0.0,0.0,0.0,0.0,0.0,0.0,0.0,0.0,0.0,0.0,0.0,0.0,1.2534,1.3364,1.402,1.4447,1.497,1.5615,1.5677,1.5795,1.6066,1.6278,1.6373,1.6373,1.6755,1.7184,1.7651,1.7865,1.8407,1.9262,1.947,1.9923,2.0566,2.077,2.0973,2.1167,2.1167,2.1167,2.1167,2.1167,2.1167,2.1167,2.1167,2.1167,2.1051,2.0196,1.9883,1.9883,1.9883,2.0326,2.0861,2.0861,2.1342,2.1826,2.1629,2.1381,2.1277,2.1651,2.1462,2.1256,2.166,2.1743,2.1846,2.2243,2.2306,2.2271,2.21,2.2056,2.1976,2.1709,2.1495,2.1203,2.0682,2.0025,1.934,1.8581,1.7792,1.7122,1.6629,1.6359,1.6076,1.5784,1.5339,1.5083,1.5083,1.5083,1.5083,1.5083,1.5333,1.5469,1.5493,1.5933,1.6052,1.5808,1.6052,1.6052,1.5808,1.6076,1.6201,1.6248,1.6958,1.759,1.811,1.8357,1.8566,1.8712,1.8249,1.7908,1.7605,1.7144,1.6807,1.6558,1.6558,1.64,1.6224,0.0,0.0,0.0,0.0,0.0,0.0,0.0,0.0,0.0,0.0,0.0,0.0,0.0,0.0,0.0,0.0,1.4545,1.5054,1.5914,1.5976,1.6121,1.6471,1.673,1.6935,1.7066,1.7619,1.8144,1.8554,1.9222,1.9805,2.0372,2.0692,2.105,2.1396,2.1473,2.154,2.1598,2.1598,2.1531,2.1397,2.1397,2.132,2.1205,2.1205,2.1205,2.1207,0.0,2.1234,2.1234,2.1234,2.158,2.2027,2.2027,2.2367,2.2806,2.3011,2.3005,2.2949,2.3085,2.293,2.2723,2.2674,2.256,2.2456,2.2403,2.2397,2.2375,2.2309,2.2287,2.2264,2.2176,2.2109,2.1865,2.1226,2.0645,1.9957,1.9096,1.8458,1.7908,1.7394,1.7082,1.6847,1.6619,1.5981,1.5648,1.5821,1.5821,1.591,1.6092,1.6187,1.6228,1.6228,1.6376,1.6423,1.6322,1.6423,1.6423,1.6353,1.6746,1.7129,1.7481,1.7908,1.828,1.8573,1.852,1.845,1.8319,1.7978,1.7605,1.7214,1.705,1.6831,1.6629,1.6807,1.6807,1.672,0.0,0.0,0.0,0.0,0.0,0.0,0.0,0.0,0.0,0.0,0.0,0.0,0.0,0.0,0.0,0.0,0.0,1.5096,1.6046,1.617,1.643,1.6943,1.7172,1.7404,1.7615,1.8201,1.8743,1.9221,1.9853,2.045,2.1012,2.1272,2.1578,2.1921,2.1921,2.1959,2.2006,2.2006,2.194,2.1826,2.1731,2.1636,2.1502,2.1436,2.1518,0.0,2.2005,2.232,2.2574,2.2251,2.2493,2.2919,2.2919,2.3202,2.3616,2.3878,2.3884,2.3797,2.3797,2.3711,2.3559,2.3385,2.3254,2.3101,2.2938,2.2894,2.2894,2.2894,2.2828,2.2794,2.2794,2.2662,2.2331,2.162,2.1006,2.0266,1.9325,1.8804,1.8311,1.7768,1.7551,1.7317,1.7026,1.6622,1.6351,1.6343,1.6456,1.659,1.6773,1.6878,1.6966,1.6966,1.6966,1.6966,1.6966,1.6966,1.699,1.7062,1.7258,1.7627,1.8152,1.8179,1.8326,1.855,1.8396,1.8257,1.8087,1.7815,1.7519,1.7238,1.7136,1.7012,1.6864,1.7035,1.7113,1.7082,0.0,0.0,0.0,0.0,0.0,0.0,0.0,0.0,0.0,0.0,0.0,0.0,0.0,0.0,0.0,0.0,0.0,0.0,1.6055,1.6286,1.6689,1.7384,1.7612,1.7835,1.8045,1.8524,1.9065,1.9654,1.9861,2.0381,2.1205,2.1205,2.1521,2.2101,2.2101,2.2214,2.2402,2.2402,2.2402,2.2384,2.2176,2.2092,2.2044,2.1883,2.2068,2.2501,2.2522,2.3132,2.3794,2.295,2.3051,2.3563,2.3563,2.3859,2.4228,2.4228,2.4045,2.3841,2.3841,2.3841,2.3841,2.3819,2.3819,2.3819,2.3797,2.3797,2.3797,2.3797,2.3646,2.3525,2.3525,2.3154,2.2608,2.1882,2.1145,2.0357,1.9394,1.8866,1.8357,1.7838,1.7768,1.7589,1.7118,1.7297,1.7227,1.6729,1.6983,1.7144,1.7151,1.745,1.7637,1.7662,1.7662,1.7662,1.7694,1.7662,1.7743,1.7917,1.7609,1.7739,1.8213,1.7916,1.7907,1.8156,1.8117,1.8109,1.8086,1.7799,1.7675,1.7651,1.7403,1.7302,1.7302,1.7302,1.7302,1.7302,0.0,0.0,0.0,0.0,0.0,0.0,0.0,0.0,0.0,0.0,0.0,0.0,0.0,0.0,0.0,0.0,0.0,0.0,1.6171,1.6334,1.6738,1.753,1.7933,1.8336,1.8745,1.946,1.9998,2.0355,2.0705,2.0977,2.1205,2.1359,2.1674,2.2101,2.2101,2.2289,2.2609,2.2459,2.2402,2.2384,2.2176,2.1921,2.1655,2.175,2.2001,2.2345,2.2844,2.3503,2.4065,2.3681,2.3876,2.4236,2.4236,2.4318,2.4411,2.4411,2.4368,2.4325,2.4325,2.4325,2.4282,2.4131,2.4088,2.4045,2.3841,2.3797,2.3797,2.3797,2.3754,2.3711,2.3711,2.3624,2.3319,2.263,2.2069,2.1369,2.0388,1.9851,1.9348,1.8889,1.8643,1.8419,1.82,1.8074,1.7969,1.7872,1.777,1.7771,1.7985,1.8089,1.82,1.8415,1.8415,1.8521,1.8733,1.8521,1.8348,1.8207,1.8307,1.8442,1.8589,1.8694,1.8769,1.8827,1.8367,1.8159,1.8144,1.7631,1.7403,1.7403,1.7326,1.7302,1.7302,1.7302,1.7302,1.7302,0.0,0.0,0.0,0.0,0.0,0.0,0.0,0.0,0.0,0.0,0.0,0.0,0.0,0.0,0.0,0.0,0.0,0.0,0.0,1.6225,1.6865,1.7702,1.836,1.8895,1.9346,1.9916,2.0357,2.0688,2.0742,2.0874,2.1066,2.0995,2.1233,2.1712,2.1807,2.2101,2.2553,2.244,2.244,0.0,0.0,2.1826,2.1617,2.1559,2.1749,2.2158,2.2827,2.3691,2.4493,2.4472,2.4555,2.4658,2.454,2.4497,2.4497,2.4497,2.4497,2.4497,2.4497,2.4497,2.4475,2.4347,2.4325,2.4282,2.4153,2.41,2.41,2.41,2.4045,2.398,2.398,2.3884,2.3602,2.3035,2.2467,2.1748,2.0741,2.0133,1.9571,1.9073,1.904,1.9004,1.8782,1.8913,1.8969,1.8878,1.85,1.8375,1.8518,1.865,1.8849,1.9119,1.9144,1.9202,1.9361,1.9195,1.9001,1.873,1.8742,1.875,1.875,1.8751,1.875,1.871,1.8236,1.8015,1.7993,1.7488,1.7302,1.7302,1.7302,1.7302,1.7302,1.7302,1.7302,1.7302,0.0,0.0,0.0,0.0,0.0,0.0,0.0,0.0,0.0,0.0,0.0,0.0,0.0,0.0,0.0,0.0,0.0,0.0,0.0,0.0,0.0,1.7736,1.8637,1.932,1.9747,2.013,2.048,2.088,2.048,2.0472,2.085,2.0437,2.0557,2.1089,2.1301,2.1712,2.2233,2.2233,2.2365,2.2496,2.1911,2.1674,2.1598,0.0,0.0,2.188,2.2707,2.3794,2.4882,2.5094,2.5052,2.4861,2.4625,2.454,2.4497,2.4497,2.4497,2.4497,2.4497,2.4497,2.4497,2.4497,2.4497,2.4497,2.4475,2.4454,2.4454,2.4411,2.4261,2.4163,2.4163,2.3959,2.3646,2.3188,2.2555,2.1793,2.0786,2.011,1.9487,1.892,1.9192,1.9336,1.9098,1.9618,1.9897,1.9666,1.9236,1.8982,1.8982,1.9247,1.9532,1.9809,1.9835,1.9835,1.9809,1.9809,1.968,1.9402,1.9089,1.8924,1.8916,1.8587,1.843,1.8408,1.8035,1.7882,1.7852,1.7456,1.7302,1.7302,1.7302,1.7302,1.7302,1.7302,1.7302,1.7309,0.0,0.0,0.0,0.0,0.0,0.0,0.0,0.0,0.0,0.0,1.1913,1.2534,0.0,0.0,0.0,0.0,0.0,0.0,0.0,0.0,0.0,0.0,1.8061,1.8947,1.9619,2.043,2.0995,2.1305,2.0899,2.0671,2.0638,2.018,2.0147,2.0459,2.0663,2.1002,2.1416,2.1416,2.1521,2.1674,2.1243,2.0963,2.0799,0.0,0.0,0.0,2.2888,2.3948,2.4604,2.4871,2.4924,2.4882,2.4839,2.4679,2.4497,2.4497,2.4497,2.4497,2.4497,2.4497,2.4497,2.4497,2.4497,2.4454,2.4292,2.4249,2.4185,2.397,2.3884,2.3862,2.3862,2.3841,2.3646,2.3188,2.2674,2.2011,2.1064,2.0487,1.9928,1.9211,1.9442,1.959,1.9442,1.9766,1.999,2.0005,1.9917,1.9866,1.9866,1.9919,2.0086,2.0359,2.0591,2.0591,2.0359,2.0359,2.0223,1.9957,1.9672,1.9546,1.9538,1.9262,1.9129,1.91,1.8474,1.8218,1.8174,1.7551,1.7302,1.7302,1.7302,1.7302,1.7302,1.7302,1.7302,1.7326,0.0,0.0,0.0,0.0,0.0,0.0,0.0,0.8482,0.9157,0.9958,1.0782,1.1628,1.2448,1.2534,0.0,0.0,0.0,0.0,0.0,0.0,0.0,0.0,0.0,0.0,1.8853,1.9723,2.0201,2.0261,0.0,1.9892,1.9761,1.9323,1.937,1.9784,2.0098,2.0547,2.106,2.1167,2.1263,2.132,2.0915,2.0625,0.0,0.0,0.0,0.0,2.2468,2.3426,2.4186,2.4583,2.4626,2.4551,2.4658,2.4594,2.4497,2.4497,2.4497,2.4497,2.4497,2.4497,2.4497,2.4497,2.4411,2.4335,2.4228,2.4012,2.3807,2.3667,2.3537,2.345,2.345,2.3341,2.3166,2.2794,2.2144,2.1423,2.0736,2.0102,1.9531,1.9058,1.9477,1.9782,1.9706,2.0178,2.048,2.0516,2.0524,2.0395,2.0104,2.0223,2.0377,2.0496,2.0771,2.0771,2.0496,2.0496,2.0377,2.0104,1.9957,1.9905,1.9905,1.9776,1.9732,1.9694,1.901,1.8644,1.8469,1.777,1.7426,1.7302,1.7302,1.7302,1.7302,1.7302,1.738,1.7527,0.0,0.0,0.0,0.0,0.0,0.0,0.0,0.7536,0.8219,0.889,0.9567,1.0484,1.1736,1.2106,1.232,0.0,0.0,0.0,0.0,0.0,0.0,0.0,0.0,0.0,0.0,0.0,0.0,1.8922,1.8832,0.0,0.0,0.0,0.0,0.0,1.946,1.9952,2.0498,2.0673,2.0751,0.0,0.0,2.0118,0.0,0.0,0.0,0.0,0.0,2.254,2.358,2.3983,2.4068,2.398,2.411,2.4239,2.4347,2.4347,2.4347,2.4347,2.4347,2.4347,2.4347,2.4347,2.4196,2.4024,2.3916,2.3547,2.3166,2.3079,2.285,2.2652,2.2652,2.252,2.2331,2.2056,2.1356,2.0682,2.0224,1.96,1.9128,1.8954,1.9487,1.9916,1.9996,2.0551,2.0899,2.0899,2.0899,2.0712,2.0292,2.0462,2.0599,2.0599,2.0796,2.0796,2.0599,2.0599,2.048,2.0266,2.0215,2.0189,2.0189,2.013,2.0066,1.9949,1.9353,1.8926,1.8634,1.7961,1.7574,1.738,1.738,1.738,1.738,1.745,1.759,1.7791,0.0,0.0,0.0,0.0,0.0,0.0,0.0,0.6874,0.747,0.8197,0.8719,0.9305,1.005,1.1111,1.1854,0.0,0.0,0.0,0.0,0.0,0.0,0.0,0.0,0.0,0.0,0.0,0.0,1.8029,1.7656,0.0,0.0,0.0,0.0,0.0,0.0,1.8944,1.9181,1.9192,0.0,0.0,0.0,0.0,0.0,0.0,0.0,0.0,0.0,2.1465,2.2564,2.286,2.3079,2.3157,2.3013,2.3363,2.3862,2.3862,2.3862,2.3862,2.3862,2.3862,2.3862,2.3862,2.3711,2.346,2.3023,2.2564,2.2104,2.1691,2.1378,2.1199,2.1199,2.1177,2.1087,2.0817,2.0532,2.0201,1.9729,1.9394,1.9248,1.9327,1.967,2.002,2.0313,2.0694,2.0899,2.0899,2.0899,2.0873,2.0822,2.084,2.0873,2.0873,2.0899,2.0899,2.0873,2.0873,2.084,2.0814,2.0591,2.0462,2.0437,2.0215,1.9926,1.9628,1.9262,1.8902,1.8558,1.7942,1.7698,1.7651,1.7651,1.7651,1.7698,1.7947,1.804,1.8087,0.0,0.0,0.0,0.0,0.0,0.0,0.5791,0.6191,0.6656,0.707,0.7533,0.8083,0.8789,0.9414,1.0219,1.1289,0.0,0.0,0.0,0.0,0.0,0.0,0.0,0.0,0.0,0.0,1.595,1.5966,1.6182,0.0,0.0,0.0,0.0,0.0,0.0,1.7873,1.8224,1.8207,0.0,0.0,0.0,0.0,0.0,0.0,0.0,0.0,0.0,0.0,2.1511,2.1981,2.2198,2.2242,2.2154,2.2331,2.2608,2.3079,2.3188,2.3232,2.3363,2.3385,2.3385,2.3385,2.3123,2.2794,2.2596,2.198,2.1369,2.1199,2.084,2.0578,2.0578,2.0442,2.0306,2.0192,1.9874,1.9577,1.9394,1.9119,1.9079,1.9352,1.9686,2.0028,2.0361,2.0685,2.0899,2.0899,2.0899,2.0899,2.0899,2.0899,2.0899,2.0899,2.0899,2.0899,2.0899,2.0899,2.0899,2.0899,2.0796,2.0745,2.0745,2.0634,2.0395,2.0051,1.9732,1.9307,1.8798,1.8356,1.8102,1.7947,1.7947,1.7947,1.7947,1.8063,1.8203,1.8357,0.0,0.0,0.0,0.0,0.0,0.528,0.528,0.5569,0.5858,0.6077,0.6454,0.6918,0.7514,0.7819,0.8492,0.9736,1.0587,0.0,0.0,0.0,0.0,0.0,0.0,0.0,0.0,0.0,1.4204,1.4104,1.4606,1.488,0.0,0.0,1.5639,1.6228,0.0,0.0,0.0,0.0,0.0,0.0,0.0,0.0,0.0,0.0,0.0,0.0,0.0,0.0,0.0,0.0,0.0,2.1163,2.1096,2.1127,2.1329,2.222,2.2441,2.2432,2.264,2.263,2.2608,2.2674,2.2321,2.1967,2.19,2.1199,2.0569,2.0478,2.0147,1.986,1.986,1.97,1.9563,1.9563,1.9311,1.9073,1.9073,1.892,1.9002,1.9487,1.9773,2.0067,2.0504,2.0748,2.0899,2.0899,2.0899,2.0899,2.0899,2.0899,2.0899,2.0899,2.0899,2.0899,2.0899,2.0899,2.0899,2.0899,2.0899,2.0899,2.0891,2.0813,2.0575,2.0242,1.9892,1.9447,1.8918,1.8621,1.8381,1.821,1.821,1.821,1.8234,1.8295,1.8442,1.8589,0.0,0.0,0.0,0.0,0.0,0.0,0.501,0.501,0.5099,0.5371,0.5589,0.5811,0.6083,0.6539,0.6915,0.7117,0.8658,0.0,0.0,0.0,0.0,0.0,0.0,0.0,0.0,0.0,1.2726,1.2726,1.2988,1.3357,1.3827,1.4023,1.4474,1.5124,0.0,0.0,0.0,0.0,0.0,0.0,0.0,0.0,0.0,0.0,0.0,0.0,0.0,0.0,0.0,0.0,0.0,0.0,0.0,1.976,2.0155,2.1351,2.1566,2.1445,2.1664,2.1566,2.1468,2.1664,2.1365,2.0952,2.0682,2.0093,1.9546,1.9279,1.9012,1.8827,1.8827,1.8804,1.8804,1.8804,1.8804,1.8804,1.8804,1.8804,1.9058,1.9805,1.9892,2.0163,2.082,2.0899,2.0899,2.0899,2.0899,2.0899,2.0899,2.0899,2.0899,2.0899,2.0899,2.0899,2.0899,2.0899,2.0899,2.0899,2.0899,2.0899,2.0883,2.0559,2.0226,1.9901,1.9542,1.9169,1.8789,1.8574,1.8504,1.8504,1.8504,1.8504,1.8527,1.872,1.8781,1.8804,0.0,0.0,0.0,0.0,0.0,0.0,0.0,0.4924,0.5033,0.5122,0.5188,0.5322,0.5594,0.5747,0.5922,0.6118,0.7504,0.0,0.0,0.0,0.0,0.0,0.0,0.0,0.0,0.0,1.173,1.173,1.216,1.2411,1.2586,1.2967,1.3254,1.3452,1.3452,1.3501,0.0,0.0,0.0,0.0,0.0,0.0,1.4329,0.0,0.0,0.0,0.0,0.0,0.0,0.0,0.0,0.0,0.0,0.0,0.0,1.9554,2.0033,2.0419,2.0677,2.069,2.0668,2.0722,2.0496,2.0238,2.0147,1.9714,1.9302,1.9211,1.8989,1.8804,1.8804,1.8804,1.8804,1.8804,1.8804,1.8804,1.8804,1.8804,1.9058,1.9805,2.0289,2.0678,2.0875,2.0899,2.0899,2.0899,2.0899,2.0899,2.0899,2.0899,2.0899,2.0899,2.0899,2.0899,2.0899,2.0899,2.0899,2.0899,2.0899,2.0772,2.0551,2.0448,2.0075,1.955,1.9439,1.9161,1.8804,1.872,1.872,1.872,1.872,1.872,1.872,1.8789,1.8804,1.8804,0.0,0.0,0.0,0.0,0.0,0.0,0.0,0.4389,0.4478,0.4478,0.4478,0.4545,0.4703,0.4725,0.4812,0.5008,0.5822,0.0,0.0,0.0,0.0,0.0,0.0,0.0,0.0,1.0366,1.0518,1.0518,1.094,1.1227,1.1327,1.1664,1.1895,1.197,1.1814,1.1756,0.0,0.0,0.0,0.0,0.0,0.0,1.2589,0.0,0.0,0.0,0.0,0.0,0.0,0.0,0.0,0.0,0.0,0.0,0.0,0.0,1.8496,1.905,1.9585,1.9669,1.9669,1.9828,1.9677,1.9517,1.9608,1.9333,1.9058,1.9058,1.892,1.8804,1.8804,1.8804,1.8804,1.8804,1.8804,1.8804,1.8804,1.8804,1.9058,1.9805,2.0369,2.0748,2.0883,2.0899,2.0899,2.0899,2.0899,2.0899,2.0899,2.0899,2.0899,2.0899,2.0899,2.0899,2.0899,2.0899,2.0899,2.0899,2.0756,2.0607,2.0384,2.0155,1.9797,1.9391,1.9248,1.9034,0.0,1.8804,1.8804,1.8804,1.8804,1.8804,1.8804,1.8804,1.8804,1.8804,0.0,0.0,0.0,0.0,0.0,0.0,0.0,0.3609,0.3609,0.3609,0.3609,0.3609,0.3609,0.3609,0.3674,0.3872,0.0,0.0,0.0,0.0,0.0,0.0,0.0,0.0,0.9013,0.9035,0.9056,0.9056,0.944,0.9764,1.0024,1.0168,1.0353,1.0559,1.0173,1.0002,0.0,0.0,0.0,0.0,0.0,0.0,0.0,0.0,0.0,0.0,0.0,0.0,0.0,0.0,0.0,0.0,0.0,0.0,0.0,0.0,0.0,0.0,0.0,1.8473,1.8511,1.8958,1.8897,1.8781,1.905,1.8943,0.0,1.8804,1.8804,1.8804,1.8804,1.8804,1.8804,1.8804,1.8804,1.8804,1.8804,1.8844,1.9122,1.9813,2.0226,2.0559,2.0867,2.0899,2.0899,2.0899,2.0899,2.0899,2.0899,2.0899,2.0899,2.0899,2.0899,2.0899,2.0899,2.0899,2.0883,2.0859,2.0551,2.0394,2.0297,1.9686,1.9383,1.9336,1.8947,1.8804,1.8804,1.8804,1.8804,1.8804,1.8804,1.8804,1.8804,1.8804,1.8804,1.8804,0.0,0.0,0.0,0.0,0.0,0.0,0.0,0.0,0.0,0.0,0.3609,0.3609,0.3609,0.3609,0.3609,0.0,0.0,0.0,0.0,0.0,0.0,0.0,0.0,0.0,0.7371,0.7518,0.7584,0.7584,0.7936,0.8139,0.8216,0.8451,0.8513,0.8429,0.8285,0.8079,0.0,0.0,0.0,0.0,0.0,0.0,0.0,0.0,0.0,0.0,1.1077,1.1669,0.0,0.0,0.0,0.0,0.0,0.0,0.0,0.0,1.5575,1.5669,1.5906,0.0,1.7606,1.7722,1.7854,1.8024,0.0,1.8465,1.8612,1.8758,1.8804,1.8804,1.8804,1.8804,1.8804,1.8804,1.8804,1.8804,1.8804,1.9288,1.9702,1.9869,2.0416,2.0804,2.0883,2.0899,2.0899,2.0899,2.0899,2.0899,2.0899,2.0899,2.0899,2.0899,2.0899,2.0899,2.0899,2.0899,2.0756,2.0519,2.0432,2.0114,1.963,1.9471,1.9217,1.8955,1.8844,1.8804,1.8804,1.8804,1.8804,1.8804,1.8804,1.8804,1.8804,1.8804,1.8804,1.8804,0.0,0.0,0.0,0.0,0.0,0.0,0.0,0.0,0.0,0.0,0.0,0.0,0.0,0.0,0.0,0.0,0.0,0.0,0.0,0.0,0.0,0.0,0.0,0.5869,0.5983,0.609,0.6132,0.6132,0.6415,0.6543,0.6549,0.6783,0.6917,0.6917,0.692,0.6751,0.0,0.0,0.0,0.0,0.6937,0.0,0.0,0.0,0.0,0.0,0.9144,0.974,0.0,1.0925,1.1683,1.2484,0.0,0.0,0.0,0.0,1.4352,1.4549,1.4549,1.548,1.645,1.6584,1.6911,1.727,1.7543,1.7877,1.8172,1.8272,1.8388,1.8481,1.8481,1.8581,1.8651,1.8651,1.8743,1.8804,1.8804,1.9153,1.9535,1.9853,2.0226,2.0567,2.0867,2.0899,2.0899,2.0899,2.0899,2.0899,2.0899,2.0899,2.0899,2.0899,2.074,2.0732,2.0899,2.0758,2.0583,2.0392,2.0099,1.9757,1.9391,1.9201,1.9018,1.8804,1.8804,1.8804,1.8804,1.8804,1.8804,1.8804,1.8804,1.8804,1.8804,1.8804,1.8804,1.8804,0.0,0.0,0.0,0.0,0.0,0.0,0.0,0.0,0.0,0.0,0.0,0.0,0.0,0.0,0.0,0.0,0.0,0.0,0.0,0.0,0.0,0.0,0.0,0.4607,0.4788,0.4788,0.4795,0.4811,0.4993,0.5067,0.5082,0.5273,0.5445,0.5609,0.5679,0.554,0.0,0.0,0.0,0.0,0.5702,0.0,0.0,0.0,0.0,0.0,0.0,0.0,0.0,0.9092,0.9962,1.084,1.133,0.0,0.0,0.0,0.0,0.0,1.3643,1.431,1.5099,1.552,1.6001,1.6464,1.6739,1.7192,1.7535,1.7574,1.7807,1.797,1.797,1.8164,1.8342,1.8365,1.8581,1.8758,1.8804,1.8852,1.9145,1.9813,1.994,2.0226,2.0836,2.0899,2.0899,2.0899,2.0899,2.0899,2.0899,2.0843,2.082,2.082,2.0496,2.0456,2.0732,2.0464,2.0314,2.0226,1.967,1.9367,1.9304,1.897,1.8804,1.8804,1.8804,0.0,1.8804,1.8804,1.8804,1.8804,1.8804,1.8804,1.8804,1.8804,1.8804,1.8781,0.0,0.0,0.0,0.0,0.0,0.0,0.0,0.0,0.0,0.0,0.0,0.0,0.0,0.0,0.0,0.0,0.0,0.0,0.0,0.0,0.0,0.1838,0.3071,0.3788,0.381,0.381,0.3843,0.3889,0.3982,0.4058,0.4122,0.4216,0.4113,0.389,0.3824,0.3642,0.3336,0.0,0.0,0.0,0.4411,0.0,0.0,0.0,0.0,0.0,0.0,0.0,0.0,0.7854,0.8819,0.9808,1.029,0.0,0.0,0.0,0.0,0.0,1.2511,1.2899,1.3461,1.4586,1.5105,1.5462,1.5872,1.64,1.6817,1.7068,1.7279,1.7419,1.7419,1.745,1.7574,1.7791,1.8241,1.8612,1.8789,1.9098,1.9455,1.9845,2.0155,2.0472,2.0859,2.0899,2.0899,2.0899,2.0899,2.0899,2.0899,2.0639,2.0472,2.0472,2.0155,1.9996,2.0051,1.9996,1.9829,1.955,1.9447,1.9209,1.8884,1.8828,1.8804,1.8804,0.0,1.8804,1.8804,1.8804,1.8804,1.8804,1.8804,1.8804,1.8804,1.8804,1.8804,1.8712,0.0,0.0,0.0,0.0,0.0,0.0,0.0,0.0,0.0,0.0,0.0,0.0,0.0,0.0,0.0,0.0,0.0,0.0,0.0,0.0,0.0,0.1031,0.1681,0.2219,0.2623,0.2759,0.2855,0.2891,0.2952,0.301,0.3038,0.3116,0.3019,0.2791,0.2808,0.2696,0.253,0.2619,0.0,0.0,0.0,0.0,0.0,0.0,0.0,0.0,0.0,0.0,0.0,0.0,0.739,0.8391,0.8867,0.0,0.0,0.0,0.0,0.0,1.1438,1.1927,1.2589,1.3461,1.4178,1.4747,1.5118,1.5588,1.5984,1.6119,1.6315,1.648,1.648,1.6723,1.7099,1.7628,1.8024,1.8381,1.8612,1.8885,1.9209,1.9582,1.9765,2.0004,2.0321,2.0353,2.0353,2.0353,2.0353,2.0353,2.0353,2.0219,2.0131,2.0131,1.9805,1.9622,1.9622,1.9399,1.9328,1.9391,1.9169,1.8994,1.8804,1.8804,1.8804,1.8804,0.0,1.8804,1.8804,1.8804,1.8804,1.8804,1.8804,1.8804,1.8781,1.8674,1.8558,1.8295,0.0,0.0,0.0,0.0,0.0,0.0,0.0,0.0,0.0,0.0,0.0,0.0,0.0,0.0,0.0,0.0,0.0,0.0,0.0,0.0,0.0022,0.0022,0.009,0.056,0.1525,0.1749,0.1863,0.1864,0.1918,0.195,0.1985,0.2065,0.2,0.1781,0.1839,0.1795,0.1679,0.1746,0.1903,0.0,0.0,0.0,0.0,0.0,0.0,0.0,0.0,0.0,0.0,0.0,0.0,0.0,0.0,0.0,0.0,0.915,0.9595,1.0113,1.058,1.1243,1.198,1.2638,1.3461,1.4178,1.4454,1.4897,1.5248,1.5248,1.5445,1.5642,1.5642,1.6069,1.6636,1.7317,1.7761,1.8117,1.8458,1.8674,1.8939,1.9352,1.9399,1.9527,1.9885,1.9892,1.9892,1.9892,1.9892,1.9892,1.9892,1.9845,1.9773,1.9773,1.9447,1.9272,1.9272,1.8947,1.8947,1.9264,1.8962,1.8804,1.8804,1.8804,1.8804,1.8804,1.8804,1.8804,1.8804,1.8804,1.8804,1.8804,1.8804,1.8758,1.8697,1.8496,1.8164,1.7707,0.0,0.0,0.0,0.0,0.0,0.0,0.0,0.0,0.0,0.0,0.0,0.0,0.0,0.0,0.0,0.0,0.0,0.0,0.0,0.0,-0.1992,-0.1992,-0.1746,-0.0873,0.074,0.0807,0.0846,0.0904,0.0905,0.0938,0.1004,0.1205,0.1021,0.0531,0.0544,0.0404,0.0179,0.0426,0.065,0.0874,0.13,0.0,0.0,0.0,0.0,0.0,0.0,0.0,0.0,0.0,0.0,0.0,0.0,0.0,0.7779,0.8049,0.8496,0.9147,1.0162,1.0826,1.1512,1.254,1.3177,1.3636,1.3907,1.4382,1.476,1.476,1.4957,1.5155,1.5155,1.5547,1.6038,1.6581,1.727,1.7916,1.8435,1.8674,1.8939,1.9352,1.9399,1.9527,1.9885,1.9892,1.9892,1.9892,1.9892,1.9892,1.9892,1.9598,1.9431,1.9431,1.9058,1.8844,1.8844,1.882,1.882,1.8844,1.882,1.8804,1.8804,1.8804,1.8804,1.8804,1.8804,1.8804,1.8804,1.8804,1.8804,1.8804,1.8804,1.8697,1.8504,1.8234,1.7683,1.699,0.0,0.0,0.0,0.0,0.0,0.0,0.0,0.0,0.0,0.0,0.0,0.0,0.0,0.0,0.0,0.0,0.0,0.0,0.0,-0.2643,-0.2643,-0.2643,-0.253,-0.2194,-0.1545,-0.0918,-0.0617,-0.0619,-0.0458,-0.0288,-0.0095,-0.014,-0.0299,-0.0522,-0.054,-0.0583,-0.0673,-0.0403,-0.0157,0.0022,0.0202,0.0448,0.0,0.0,0.0,0.0,0.0,0.0,0.0,0.0,0.4468,0.5114,0.5467,0.6171,0.6908,0.7185,0.7761,0.8506,0.9418,1.0281,1.1169,1.2078,1.2783,1.337,1.3811,1.4052,1.4262,1.4424,1.4544,1.464,1.4814,1.4999,1.5333,1.5998,1.677,1.7434,1.7939,1.8465,1.8852,1.9018,1.9034,1.9082,1.9209,1.9217,1.9217,1.9217,1.9217,1.9217,1.9217,1.9105,1.9034,1.9034,1.8876,1.8804,1.8804,1.8804,1.8804,1.8804,1.8804,1.8804,1.8804,1.8804,1.8804,1.8804,1.8804,1.8804,1.8804,1.8804,1.8804,1.8781,1.8481,1.821,1.7939,1.7364,1.688,1.6403,0.0,0.0,0.0,0.0,0.0,0.0,0.0,0.0,0.0,0.0,0.0,0.0,0.0,0.0,0.0,0.0,0.0,0.0,-0.3337,-0.3337,-0.3337,-0.3337,-0.3337,-0.3337,-0.3337,-0.2663,-0.2185,-0.1933,-0.1602,-0.1401,-0.1294,-0.1264,-0.1319,-0.1458,-0.1458,-0.1458,-0.1436,-0.1256,-0.0987,-0.0718,-0.0718,-0.0515,0.0,0.0,0.0,0.0,0.0,0.0,0.0,0.0,0.3708,0.431,0.4638,0.5395,0.6212,0.6467,0.7166,0.8059,0.897,0.9986,1.0998,1.181,1.254,1.3219,1.3666,1.3835,1.3979,1.425,1.4298,1.437,1.4544,1.464,1.4903,1.5564,1.6339,1.7075,1.7628,1.828,1.872,1.8781,1.8804,1.8804,1.8804,1.8804,1.8804,1.8804,1.8804,1.8804,1.8804,1.8804,1.8804,1.8804,1.8804,1.8804,1.8804,1.8804,1.8804,1.8804,1.8804,1.8804,1.8804,1.8804,1.8804,1.8804,1.8804,1.8804,1.8804,1.8804,1.8758,1.8651,1.8249,1.7854,1.741,1.6723,1.6204,1.5778,0.0,0.0,0.0,0.0,0.0,0.0,0.0,0.0,0.0,0.0,0.0,0.0,0.0,0.0,0.0,0.0,0.0,0.0,-0.43,-0.43,-0.43,-0.43,-0.43,-0.43,-0.43,-0.43,-0.3846,-0.291,-0.2451,-0.2359,-0.2608,-0.206,-0.1952,-0.2199,-0.2199,-0.2199,-0.2199,-0.2199,-0.1885,-0.1413,-0.1413,-0.1121,-0.0695,0.0,0.0,0.0,0.0,0.0,0.0,0.0,0.2948,0.3574,0.4047,0.4835,0.5661,0.5917,0.6761,0.7829,0.8916,0.9986,1.0998,1.181,1.2565,1.3171,1.3443,1.3714,1.3979,1.425,1.4298,1.4298,1.4298,1.452,1.4855,1.532,1.6062,1.6847,1.7581,1.8148,1.8566,1.8758,1.8804,1.8804,1.8804,1.8804,1.8804,1.8804,1.8804,1.8804,1.8804,1.8804,1.8804,1.8804,1.8804,1.8804,1.8804,1.8804,1.8804,1.8804,1.8804,1.8804,1.8804,1.8804,1.8804,1.8804,1.8804,1.8804,1.8804,1.8804,1.8674,1.8458,1.821,1.7637,1.6927,1.6379,1.573,1.5059,0.0,0.0,0.0,0.0,0.0,0.0,0.0,0.0,0.0,0.0,0.0,0.0,0.0,0.0,0.0,0.0,0.0,0.0,-0.43,-0.43,-0.43,-0.43,-0.43,-0.43,-0.43,-0.43,-0.4068,-0.3598,-0.3557,-0.3464,-0.3301,-0.3147,-0.3004,-0.2892,-0.2756,-0.2578,-0.2401,-0.2266,-0.2109,-0.1974,-0.1974,-0.1772,-0.1458,0.0,0.0,0.0,0.0,0.0,0.0,0.0,0.0,0.0,0.3597,0.457,0.5661,0.5917,0.6889,0.8109,0.9192,1.0252,1.1316,1.2322,1.2832,1.3219,1.369,1.3835,1.3979,1.425,1.4298,1.4298,1.4298,1.437,1.4544,1.4849,1.554,1.6251,1.6847,1.7667,1.8303,1.8566,1.872,1.8804,1.8804,1.8804,1.8804,1.8804,1.8804,1.8804,1.8804,1.8804,1.8804,1.8804,1.8804,1.8804,1.8804,1.8804,1.8804,1.8804,1.8804,1.8804,1.8804,1.8804,1.8804,1.8804,1.8804,1.8804,1.8804,1.8804,1.8573,1.8164,1.7707,1.7192,1.6605,1.5761,1.5291,1.5035,0.0,0.0,0.0,0.0,0.0,0.0,0.0,0.0,0.0,0.0,-0.4679,0.0,0.0,0.0,0.0,0.0,0.0,0.0,0.0,-0.4746,-0.4679,-0.4587,-0.4587,-0.4587,-0.4587,-0.4587,-0.45,-0.4346,-0.4129,-0.3925,-0.3723,-0.3719,-0.3628,-0.3472,-0.3472,-0.336,-0.3206,-0.3093,-0.2938,-0.2759,-0.2759,-0.249,-0.2042,0.0,0.0,0.0,0.0,0.0,0.0,0.0,0.0,0.0,0.3312,0.4401,0.5539,0.6014,0.7113,0.8382,0.9468,1.0551,1.1585,1.2565,1.3031,1.3394,1.3949,1.407,1.4094,1.4274,1.4298,1.4298,1.4298,1.4298,1.4394,1.4664,1.5166,1.5737,1.6346,1.7138,1.7776,1.8148,1.8473,1.8674,1.8674,1.8758,1.8804,1.8804,1.8804,1.8804,1.8804,1.8804,1.8804,1.8804,1.8804,1.8804,1.8804,1.8804,1.8804,1.8804,1.8804,1.8804,1.8804,1.8804,1.8804,1.8804,1.8804,1.8804,1.8804,1.8804,1.8596,1.821,1.7667,1.7099,1.6487,1.5571,1.51,1.4885,0.0,0.0,0.0,0.0,0.0,0.0,0.0,0.0,0.0,0.0,-0.5053,-0.5053,0.0,0.0,0.0,0.0,0.0,0.0,0.0,0.0,-0.5347,-0.5122,-0.5077,-0.5053,-0.5053,-0.5053,-0.5053,-0.5053,-0.4346,-0.4013,-0.4036,-0.403,-0.4028,-0.405,-0.4297,-0.4389,-0.4364,-0.4364,-0.4121,-0.3721,-0.3698,-0.3274,-0.2603,-0.2378,0.0,0.0,0.0,0.0,0.0,0.0,0.0,0.0,0.3168,0.4279,0.5365,0.6187,0.7385,0.868,0.9747,1.0826,1.1853,1.2662,1.3225,1.3702,1.4178,1.4298,1.4298,1.4298,1.4298,1.4298,1.4298,1.4298,1.437,1.4616,1.4885,1.5315,1.6008,1.6567,1.7091,1.7558,1.8079,1.8411,1.8411,1.8604,1.8758,1.8758,1.8781,1.8804,1.8804,1.8804,1.8804,1.8804,1.8804,1.8804,1.8804,1.8804,1.8804,1.8804,1.8804,1.8804,1.8804,1.8804,1.8804,1.8804,1.8804,1.8804,1.8804,1.8781,1.8651,1.8411,1.7838,1.72,1.6511,1.5676,1.5112,1.4688,0.0,0.0,0.0,0.0,0.0,0.0,0.0,0.0,0.0,0.0,0.0,0.0,0.0,0.0,0.0,0.0,0.0,0.0,0.0,0.0,-0.5927,-0.5858,-0.5655,-0.5542,-0.5542,-0.5542,-0.5542,-0.5542,-0.5033,-0.4879,-0.5082,-0.5082,-0.508,-0.508,-0.5146,-0.5057,-0.4855,-0.4855,-0.4788,-0.4676,-0.4518,-0.4117,-0.3561,-0.3136,-0.2578,0.0,0.0,0.0,0.0,0.0,0.0,0.0,0.2949,0.4152,0.5391,0.6417,0.7658,0.8949,1.0015,1.1243,1.2419,1.3152,1.3751,1.4154,1.4274,1.4298,1.4298,1.4298,1.4298,1.4298,1.4298,1.4298,1.4322,1.437,1.4616,1.4903,1.5291,1.5937,1.648,1.6793,1.7263,1.7644,1.7838,1.8087,1.8342,1.8543,1.872,1.8804,1.8804,1.8804,1.8804,1.8804,1.8804,1.8804,1.8804,1.8804,1.8804,1.8804,1.8804,1.8804,1.8804,1.8804,1.8804,1.8804,1.8804,1.8804,1.8781,1.8635,1.8396,1.8117,1.7425,1.6925,1.6471,1.5523,1.51,1.4963,0.0,0.0,0.0,0.0,0.0,0.0,0.0,0.0,0.0,0.0,0.0,0.0,0.0,0.0,0.0,0.0,0.0,0.0,0.0,0.0,-0.7117,-0.6786,-0.6628,-0.6495,-0.6362,-0.6362,-0.6362,-0.6362,-0.6118,-0.5922,-0.5727,-0.5836,-0.5944,-0.6077,-0.6169,-0.6143,-0.6008,-0.6008,-0.5941,-0.5849,-0.5605,-0.5072,-0.4362,-0.376,-0.3047,-0.2289,-0.193,0.0,0.0,0.0,0.0,0.0,0.0,0.0,0.5151,0.6126,0.7363,0.8651,0.9739,1.0895,1.2102,1.3219,1.3895,1.4298,1.4298,1.4298,1.4298,1.4298,1.4298,1.4298,1.4298,1.4298,1.4346,1.4472,1.4616,1.4831,1.5244,1.5706,1.6055,1.6204,1.6652,1.7028,1.7153,1.7496,1.7877,1.8288,1.8512,1.8697,1.8781,1.8804,1.8804,1.8804,1.8804,1.8804,1.8804,1.8804,1.8804,1.8804,1.8804,1.8758,1.8658,1.8658,1.8581,1.8458,1.8458,1.8388,1.8272,1.8172,1.7955,1.766,1.7183,1.676,1.6315,1.554,1.51,1.4861,0.0,0.0,0.0,0.0,0.0,0.0,0.0,0.0,0.0,0.0,0.0,0.0,0.0,0.0,0.0,0.0,0.0,0.0,0.0,0.0,0.0,-0.7643,-0.7621,-0.7511,-0.7253,-0.7228,-0.7228,-0.7228,-0.7228,-0.6944,-0.6415,-0.6542,-0.6738,-0.7,-0.7117,-0.7165,-0.7165,-0.7117,-0.7003,-0.6823,-0.6476,-0.5833,-0.4988,-0.4206,-0.3315,-0.2446,-0.2019,-0.166,-0.13,-0.0673,0.0,0.0,0.0,0.0,0.4887,0.5807,0.6992,0.8233,0.9242,1.0473,1.1805,1.3219,1.3943,1.4298,1.4298,1.4298,1.4298,1.4298,1.4298,1.4298,1.4298,1.4346,1.4442,1.4664,1.4742,1.4927,1.538,1.5618,1.5761,1.5761,1.6133,1.6416,1.6464,1.6864,1.7326,1.787,1.8234,1.852,1.8743,1.8781,1.8804,1.8804,1.8804,1.8804,1.8804,1.8804,1.8804,1.8804,1.8804,1.8697,1.8504,1.8458,1.8311,1.811,1.8063,1.7877,1.7628,1.7535,1.734,1.7091,1.6824,1.644,1.6001,1.5462,1.504,1.4664,0.0,0.0,0.0,0.0,0.0,0.0,0.0,0.0,0.0,0.0,-0.8412,-0.8671,0.0,0.0,0.0,0.0,0.0,0.0,-0.9798,0.0,0.0,-0.8135,-0.8109,-0.8003,-0.7808,-0.7786,-0.7786,-0.7786,-0.7786,-0.7742,-0.7654,-0.7448,-0.7492,-0.7742,-0.7547,-0.7437,-0.7437,-0.7209,-0.7073,-0.7007,-0.639,-0.5816,-0.5238,-0.4273,-0.3315,-0.2469,-0.2221,-0.1817,-0.1323,-0.083,0.0,0.0,0.0,0.0,0.4912,0.6026,0.7138,0.8184,0.9019,1.089,1.2789,1.3642,1.4094,1.4298,1.4298,1.4298,1.4298,1.4298,1.4298,1.4298,1.4298,1.449,1.4664,1.4688,1.4885,1.5083,1.5131,1.5387,1.554,1.554,1.5611,1.573,1.5903,1.6173,1.6567,1.7115,1.7776,1.828,1.8527,1.872,1.8804,1.8804,1.8804,1.8804,1.8804,1.8804,1.8804,1.8804,1.8804,1.8697,1.8481,1.8257,1.8133,1.8087,1.7861,1.7597,1.7333,1.6911,1.6581,1.6308,1.5818,1.5575,1.5456,1.4968,1.476,1.4664,0.0,0.0,0.0,0.0,0.0,0.0,0.0,0.0,0.0,0.0,0.0,-0.955,0.0,0.0,0.0,-1.0352,-1.0477,-1.0499,-1.0407,-1.006,-0.9559,-0.8837,-0.8819,-0.8644,-0.83,-0.83,-0.83,-0.83,-0.8138,-0.8069,-0.8069,-0.7826,-0.7786,-0.79,-0.7768,-0.7724,-0.7702,-0.7426,-0.7228,-0.7051,-0.6365,-0.5722,-0.508,-0.4093,-0.3226,-0.2446,-0.2109,-0.166,-0.1166,-0.083,-0.0068,0.0958,0.214,0.0,0.0,0.0,0.6685,0.7885,0.9443,1.1189,1.2764,1.3491,1.3992,1.4298,1.4298,1.4298,1.4298,1.4298,1.4418,1.4514,1.4514,1.4616,1.4807,1.5094,1.5237,1.5356,1.5482,1.5594,1.5635,1.5516,1.5356,1.5315,1.541,1.5499,1.5849,1.6497,1.7131,1.7637,1.8032,1.8427,1.8635,1.8635,1.8743,1.8804,1.8804,1.8804,1.8804,1.8804,1.8804,1.8697,1.8504,1.8381,1.8172,1.7861,1.7464,1.7059,1.6669,1.6298,1.592,1.5571,1.5309,1.5142,1.4968,1.4783,1.4592,1.4466,0.0,0.0,0.0,0.0,0.0,0.0,0.0,0.0,0.0,0.0,0.0,0.0,0.0,0.0,0.0,0.0,-1.1073,-1.0981,-1.0727,-1.0446,-0.9994,-0.9323,-0.9305,-0.9087,-0.8612,-0.859,-0.8564,-0.8498,-0.8292,-0.8135,-0.8025,-0.7874,-0.7768,-0.7698,-0.7768,-0.779,-0.7768,-0.7382,-0.707,-0.6764,-0.596,-0.525,-0.4538,-0.3647,-0.2913,-0.2267,-0.1839,-0.1436,-0.1054,-0.074,0.0022,0.0967,0.1974,0.3278,0.0,0.0,0.0,0.7832,0.9768,1.1218,1.2395,1.3201,1.3799,1.4226,1.4274,1.4298,1.4322,1.4394,1.4568,1.4736,1.4879,1.4903,1.5016,1.5421,1.554,1.5635,1.5784,1.5808,1.573,1.5516,1.5267,1.5059,1.5005,1.5011,1.5237,1.5866,1.645,1.6974,1.7394,1.7908,1.8241,1.8295,1.8512,1.8643,1.872,1.8758,1.8804,1.8804,1.8758,1.8658,1.8504,1.8365,1.8079,1.7675,1.7254,1.677,1.6268,1.5872,1.5428,1.4987,1.4909,1.4766,1.4592,1.4592,1.4472,1.4298,0.0,0.0,0.0,0.0,0.0,0.0,0.0,0.0,0.0,0.0,0.0,0.0,-1.0965,-1.1138,-1.1262,-1.1289,-1.1289,-1.1127,-1.0733,-1.0446,-0.9994,-0.9323,-0.9305,0.0,-0.8612,-0.859,-0.8472,-0.8223,-0.8201,-0.7962,-0.7529,-0.7529,-0.7389,-0.7161,-0.7411,-0.7529,-0.7484,-0.6764,-0.6343,-0.606,-0.4877,-0.4095,-0.3602,-0.2847,-0.2266,-0.1794,-0.1525,-0.1278,-0.1031,-0.0561,0.0247,0.1215,0.2042,0.3396,0.4782,0.0,0.0,0.0,0.9649,1.0806,1.1883,1.288,1.3515,1.4003,1.425,1.4298,1.437,1.464,1.4688,1.4855,1.535,1.5445,1.5469,1.5493,1.5666,1.5778,1.5808,1.5808,1.573,1.5516,1.5267,1.5005,1.4742,1.4712,1.4838,1.5131,1.5825,1.6362,1.6629,1.7099,1.7473,1.7721,1.7994,1.8257,1.8504,1.8697,1.8804,1.8804,1.8612,1.8504,1.8481,1.7962,1.7721,1.7675,1.741,1.7028,1.6511,1.5747,1.5129,1.4688,1.4442,1.4322,1.4322,1.4322,1.4322,1.4298,0.0,0.0,0.0,0.0,0.0,0.0,0.0,0.0,0.0,0.0,0.0,0.0,0.0,-1.1262,-1.1305,-1.1305,-1.1181,-1.1003,-1.0727,-1.0337,-0.9864,-0.9323,-0.913,-0.8915,-0.8612,-0.8428,-0.8292,-0.8201,-0.7896,-0.7657,-0.7507,-0.7323,-0.7187,-0.7095,-0.7209,-0.7231,-0.7209,-0.6631,-0.6099,-0.5549,-0.4476,-0.3693,-0.3044,-0.213,-0.1682,-0.148,-0.1099,-0.083,-0.0605,-0.0269,0.0403,0.1257,0.2147,0.3307,0.4606,0.6083,0.7233,0.8262,0.9418,1.0527,1.1561,1.2443,1.3273,1.3931,1.4022,1.4304,1.4592,1.4688,1.4975,1.5261,1.5469,1.5493,1.554,1.5659,1.5761,1.5808,1.5808,1.5689,1.5588,1.5516,1.5118,1.4861,1.4963,1.4814,1.4814,1.5083,1.5469,1.5717,1.5818,1.6315,1.6716,1.6988,1.738,1.7807,1.8234,1.8319,1.8249,1.8094,1.8032,1.7892,1.7714,1.752,1.745,1.7426,1.72,1.6824,1.6292,1.5652,1.5112,1.4664,1.4394,1.4298,1.4298,1.4298,1.4298,1.4298,0.0,0.0,0.0,0.0,0.0,0.0,0.0,0.0,0.0,-1.1305,0.0,0.0,0.0,0.0,-1.1267,-1.1203,-1.1024,-1.0803,-1.0576,-1.0125,-0.9689,-0.9327,-0.9043,-0.8806,-0.8612,-0.8336,-0.8179,-0.8091,-0.7702,-0.7459,-0.737,-0.7187,-0.7095,-0.7095,-0.7095,-0.7095,-0.7073,-0.652,-0.5947,-0.5305,-0.4141,-0.3269,-0.2555,-0.1659,-0.1233,-0.1121,-0.074,-0.0515,-0.0336,0.0022,0.0605,0.1368,0.233,0.3587,0.5016,0.6545,0.7456,0.8132,0.9013,1.0013,1.0998,1.1902,1.2832,1.3612,1.3949,1.4382,1.476,1.4927,1.5255,1.5516,1.5588,1.5588,1.5635,1.5784,1.5808,1.5808,1.5808,1.5635,1.5475,1.538,1.4975,1.4766,1.4963,1.4814,1.4766,1.4963,1.5166,1.5255,1.5177,1.5581,1.6038,1.6464,1.6864,1.7309,1.7823,1.7823,1.7714,1.7457,1.7364,1.72,1.6927,1.6833,1.6786,1.6793,1.6666,1.6494,1.6292,1.5652,1.5183,1.479,1.4448,1.4298,1.4298,1.4298,1.4298,1.4298,0.0,0.0,0.0,0.0,0.0,0.0,0.0,0.0,-1.1305,-1.1305,0.0,0.0,0.0,0.0,0.0,-1.103,-1.0824,-1.0576,-1.0316,-0.9864,-0.9493,-0.9305,-0.9043,-0.8802,-0.859,-0.8336,-0.8094,-0.79,-0.7613,-0.7348,-0.7095,-0.7095,-0.7095,-0.7095,-0.7095,-0.7095,-0.7051,-0.639,-0.5838,-0.5282,-0.3807,-0.2825,-0.2109,-0.1391,-0.0919,-0.0673,-0.0471,-0.0381,-0.0314,0.0224,0.0852,0.1569,0.2621,0.4311,0.6018,0.6631,0.7263,0.7904,0.0,0.0,0.0,1.1282,1.2165,1.302,1.4058,1.4496,1.4855,1.5397,1.5493,1.5564,1.5754,1.5795,1.5788,1.5788,1.5795,1.5808,1.5808,1.5635,1.5404,1.5131,1.4861,1.4688,1.4718,1.4718,1.4718,1.4718,1.4963,1.4987,1.4688,1.4933,1.5428,1.6143,1.644,1.6793,1.7255,1.7263,1.7162,1.6943,1.6699,1.644,1.6167,1.5896,1.5784,1.5784,1.5784,1.6069,1.6494,1.57,1.5278,1.5035,1.452,1.4298,1.4298,1.4298,1.4298,1.4298,0.0,0.0,0.0,0.0,0.0,0.0,-1.1305,-1.1305,-1.1305,0.0,0.0,0.0,-1.1305,-1.1305,-1.1224,-1.103,-1.0824,-1.0511,-1.0098,-0.965,-0.9279,-0.9021,-0.8806,-0.856,-0.8314,-0.8094,-0.7856,-0.7613,-0.7345,-0.7165,-0.7095,-0.7095,-0.7095,-0.7095,-0.7095,-0.7095,-0.7076,-0.6748,-0.6149,-0.5327,-0.4366,-0.3272,-0.2109,-0.1391,-0.0852,-0.0448,-0.0202,-0.0112,-0.0045,0.0448,0.0964,0.1704,0.3381,0.4971,0.6259,0.6616,0.7166,0.7729,0.8084,0.0,0.0,0.0,0.0,0.0,1.3452,1.4226,1.4855,1.5397,1.5611,1.573,1.5778,1.5635,1.5518,1.5518,1.5668,1.5808,1.5808,1.5635,1.5404,1.5131,1.4861,1.479,1.4957,1.4987,1.4987,1.4987,1.5059,1.4909,1.4448,1.4664,1.4981,1.5387,1.5611,1.5889,1.6204,1.6204,1.6079,1.5835,1.5771,1.5611,1.5404,1.5339,1.5291,1.5291,1.5291,1.5387,1.5506,1.5267,1.5029,1.479,1.4418,1.4298,1.4298,1.4298,1.4298,1.4298,0.0,0.0,0.0,0.0,0.0,-1.1462,-1.1462,-1.137,-1.1305,0.0,0.0,0.0,-1.1305,-1.1219,-1.1089,-1.0894,-1.0668,-1.0337,-0.9864,-0.9498,-0.9174,-0.8911,-0.8718,-0.8472,-0.8201,-0.8006,-0.7768,-0.7507,-0.7231,-0.7095,-0.7095,-0.7095,-0.7095,-0.7095,-0.7095,-0.7095,-0.7095,-0.6881,-0.6305,-0.5436,-0.4407,-0.3291,-0.2107,-0.1256,-0.0651,-0.0202,-0.0045,0.0,0.0067,0.0538,0.1412,0.2552,0.3874,0.5233,0.6373,0.6528,0.7018,0.7552,0.7711,0.8106,0.8668,0.9517,0.0,0.0,1.2797,1.3749,1.4504,1.5017,1.5302,1.5471,1.5471,1.5331,1.524,1.524,1.5357,1.5471,1.5471,1.5361,1.5222,1.5087,1.4858,1.4814,1.5059,1.5011,1.4933,1.4933,1.4933,1.4742,1.4322,1.4442,1.4664,1.4909,1.5046,1.5231,1.5506,1.5506,1.538,1.5112,1.5112,1.4992,1.4766,1.4766,1.4766,1.4766,1.4766,1.4766,1.4766,1.4766,1.4742,1.4664,1.4394,1.4298,1.4298,1.4298,1.4298,1.4298,0.0,0.0,-1.1957,-1.1936,-1.1764,-1.1656,-1.1656,-1.1462,-1.1305,0.0,-1.1305,-1.1305,-1.1305,-1.1116,-1.0916,-1.0727,-1.0424,-1.0077,-0.9602,-0.9367,-0.913,-0.8867,-0.8674,-0.8428,-0.8179,-0.7962,-0.7724,-0.7459,-0.7209,-0.7095,-0.7095,-0.7076,-0.7073,-0.7073,-0.7029,-0.7029,-0.7007,-0.6767,-0.6257,-0.5475,-0.4204,-0.3065,-0.206,-0.1098,-0.0426,0.0,0.0,0.0022,0.0135,0.0673,0.2082,0.3691,0.4208,0.53,0.6406,0.6432,0.6879,0.7369,0.7369,0.7629,0.8082,0.8838,0.9747,0.0,1.2112,1.3115,1.3925,1.4456,1.4777,1.4963,1.4986,1.4959,1.4939,1.4939,1.4912,1.4912,1.4995,1.4995,1.4992,1.4969,1.4775,1.4756,1.5008,1.4818,1.4681,1.4712,1.4664,1.4544,1.4322,1.4298,1.4418,1.464,1.4664,1.4766,1.5011,1.5011,1.4885,1.4664,1.4664,1.4544,1.4298,1.4298,1.4298,1.4298,1.4298,1.4298,1.4298,1.4298,1.4442,1.464,1.4394,1.4298,1.4298,1.4298,1.4298,1.4298,0.0,-1.1871,-1.1699,-1.1478,-1.1392,-1.1375,-1.1375,-1.1327,-1.1305,-1.1305,-1.1305,-1.1305,-1.1305,-1.1116,-1.0916,-1.0727,-1.0321,-0.9864,-0.9388,-0.913,-0.8889,-0.8678,-0.8402,-0.8182,-0.7962,-0.7702,-0.7437,-0.7187,-0.7117,-0.7095,-0.7095,-0.6925,-0.6858,-0.6858,-0.6631,-0.6539,-0.6517,-0.6099,-0.5519,-0.485,-0.4362,-0.3247,-0.1816,-0.1233,-0.0606,0.0,0.0,0.0135,0.0493,0.1548,0.2665,0.3757,0.4585,0.5564,0.6454,0.6656,0.6919,0.7161,0.7161,0.7207,0.7482,0.8386,0.9078,0.0,1.1497,1.246,1.328,1.4157,1.4524,1.4748,1.4963,1.4792,1.4603,1.4603,1.4409,1.4444,1.4919,1.4988,1.4931,1.4698,1.4443,1.441,1.4674,1.4506,1.4482,1.4675,1.4496,1.437,1.4298,1.4298,1.4322,1.437,1.437,1.4394,1.4466,1.4466,1.4418,1.437,1.437,1.4346,1.4298,1.4298,1.4298,1.4298,1.4298,1.4298,1.4298,1.4298,1.4322,1.437,1.4322,1.4298,1.4298,1.4298,1.4298,1.4298,-1.1979,-1.1914,-1.1807,-1.1672,-1.157,-1.1505,-1.1505,-1.1397,-1.1305,-1.1305,-1.1203,-1.1159,-1.1159,-1.0851,-1.0603,-1.0511,-1.0077,-0.9646,-0.9323,-0.9043,-0.8806,-0.8612,-0.8336,-0.8113,-0.79,-0.7639,-0.737,-0.7095,-0.7095,-0.7095,-0.7095,-0.6903,-0.6726,-0.659,-0.6207,-0.6052,-0.6008,-0.545,-0.485,-0.4249,-0.3782,-0.2801,-0.1548,-0.0964,-0.0449,0.0022,0.0157,0.0426,0.0874,0.1727,0.2622,0.3582,0.4538,0.5497,0.6324,0.6681,0.6944,0.7095,0.7095,0.7095,0.727,0.8024,0.8641,0.0,0.0,1.1554,1.2464,1.3191,1.3702,1.4073,1.4305,1.4316,1.4302,1.4302,1.4182,1.421,1.4504,1.4671,1.4692,1.4559,1.4455,1.4395,1.4405,1.4218,1.4096,1.411,1.3976,1.3906,1.3906,1.3906,1.3966,1.4099,1.4099,1.4165,1.4298,1.4298,1.4298,1.4298,1.4298,1.4298,1.4298,1.4298,1.4298,1.4298,1.4298,1.4298,1.4298,1.4298,1.4298,1.4298,1.4298,1.4298,1.4298,1.4298,1.4298,1.4298,-1.1801,-1.1866,-1.1866,-1.1871,-1.1742,-1.1613,-1.1613,-1.144,-1.1305,-1.1305,-1.1116,-1.1008,-1.1008,-1.0586,-1.0272,-1.025,-0.982,-0.9454,-0.9235,-0.8977,-0.8762,-0.8612,-0.8336,-0.8113,-0.79,-0.7639,-0.737,-0.7095,-0.7095,-0.7095,-0.7095,-0.6836,-0.6567,-0.6251,-0.5741,-0.5453,-0.5319,-0.4672,-0.4093,-0.3513,-0.2867,-0.2107,-0.1278,-0.065,-0.0202,0.0112,0.0426,0.0785,0.1188,0.1749,0.2489,0.3382,0.4496,0.5411,0.6194,0.6704,0.6966,0.7095,0.7095,0.7095,0.7228,0.7764,0.8332,0.8938,0.0,0.0,0.0,1.2036,1.2662,1.3222,1.3455,1.3758,1.3976,1.4018,1.4067,1.4109,1.4109,1.4289,1.4414,1.4414,1.4423,1.4359,1.4203,1.4003,1.3814,1.3588,1.3536,1.3491,1.3491,1.3491,1.3611,1.3894,1.3906,1.4032,1.4292,1.4298,1.4298,1.4298,1.4298,1.4298,1.4298,1.4298,1.4298,1.4298,1.4298,1.4298,1.4298,1.4298,1.4298,1.4298,1.4298,1.4298,1.4298,1.4298,1.4298,1.4298,-1.1219,-1.137,-1.1375,-1.137,-1.1348,-1.1354,-1.1354,-1.1311,-1.1305,-1.1305,-1.1116,-1.1008,-1.1008,-1.0586,-1.0229,-1.006,-0.9607,-0.9218,-0.8955,-0.874,-0.8634,-0.8612,-0.8336,-0.8113,-0.79,-0.7639,-0.737,-0.7095,-0.7095,-0.7095,-0.7095,-0.6653,-0.6207,-0.5741,-0.5095,-0.4561,-0.4071,-0.3583,-0.3001,-0.235,-0.1792,-0.139,-0.1076,-0.0583,-0.009,0.0404,0.0852,0.1054,0.1233,0.2131,0.2759,0.3451,0.4879,0.5683,0.6216,0.6877,0.7076,0.7095,0.7095,0.7095,0.7228,0.7764,0.8094,0.846,0.9192,0.0,1.0598,1.1068,0.0,1.2293,1.2726,0.0,0.0,1.3716,1.3934,1.4109,1.4109,1.4136,1.4156,1.4156,1.3949,1.389,1.4093,1.3979,1.3888,1.3866,1.3633,1.3491,1.3491,1.3491,1.3611,1.3894,1.3906,1.4032,1.4292,1.4298,1.4298,1.4298,1.4298,1.4298,1.4298,1.4298,1.4298,1.4298,1.4298,1.4298,1.4298,1.4298,1.4298,1.4298,1.4298,1.4298,1.4298,1.4298,1.4298,1.4298,-1.0744,-1.1014,-1.117,-1.1284,-1.1305,-1.1305,-1.1305,-1.1305,-1.1305,-1.1305,-1.1024,-1.0824,-1.0824,-1.0407,-1.0038,-0.9798,-0.9476,-0.9196,-0.8911,-0.8718,-0.859,-0.859,-0.823,-0.7984,-0.79,-0.7477,-0.7209,-0.7095,-0.7095,-0.7095,-0.7095,-0.6501,-0.5969,-0.548,-0.434,-0.3649,-0.3269,-0.2488,-0.1995,-0.1703,-0.1188,-0.0874,-0.065,-0.0292,0.0135,0.0628,0.0964,0.1166,0.1391,0.2086,0.2535,0.305,0.4518,0.5324,0.5861,0.6681,0.701,0.7095,0.7095,0.7095,0.7228,0.7764,0.805,0.8354,0.8929,0.9493,1.0033,1.0511,0.0,0.0,0.0,0.0,0.0,0.0,1.3716,1.3913,1.4088,1.4109,1.4109,1.4109,1.3997,1.3916,1.3857,1.3619,1.3449,1.3449,1.3202,1.3043,1.3043,1.3043,1.3242,1.3641,1.3676,1.3876,1.4292,1.4298,1.4298,1.4298,1.4298,1.4298,1.4298,1.4298,1.4298,1.4298,1.4298,1.4298,1.4298,1.4298,1.4298,1.4298,1.4298,1.4298,1.4298,1.4298,1.4298,1.4298,-1.0397,-1.0733,-1.1003,-1.1262,-1.1305,-1.1305,-1.1305,-1.1305,-1.1289,-1.1224,-1.0933,-1.0663,-1.0598,-1.0234,-0.9864,-0.9541,-0.9388,-0.9152,-0.8845,-0.8674,-0.859,-0.859,-0.8208,-0.7962,-0.79,-0.7455,-0.7165,-0.7095,-0.7095,-0.7073,-0.701,-0.6393,-0.575,-0.5035,-0.3717,-0.289,-0.2442,-0.1569,-0.1166,-0.1099,-0.0762,-0.0448,-0.0157,0.009,0.0449,0.0852,0.1099,0.1278,0.148,0.2019,0.2334,0.2736,0.4139,0.4921,0.548,0.6415,0.6858,0.7032,0.7095,0.7165,0.7319,0.779,0.805,0.831,0.8714,0.913,0.9498,0.9842,1.0294,0.0,0.0,0.0,1.2406,1.2939,0.0,1.3525,1.3786,1.3913,1.4018,1.4088,1.4109,1.4018,1.3828,1.344,1.3179,1.3179,1.2875,1.2705,1.2705,1.2705,1.2952,1.3479,1.3491,1.3767,1.4292,1.4298,1.4298,1.4298,1.4298,1.4298,1.4298,1.4298,1.4298,1.4298,1.4298,1.4298,1.4298,1.4298,1.4298,1.4298,1.4298,1.4298,1.4298,1.4298,1.4298,1.4298,-1.0229,-1.0533,-1.0841,-1.1241,-1.1305,-1.1305,-1.1305,-1.1305,-1.1219,-1.103,-1.0824,-1.0598,-1.0337,-1.0125,-0.982,-0.9349,-0.9305,-0.9108,-0.8634,-0.8612,-0.859,-0.859,-0.8336,-0.8091,-0.79,-0.7639,-0.737,-0.7095,-0.7095,-0.701,-0.6795,-0.6327,-0.5458,-0.43,-0.3337,-0.2376,-0.1413,-0.0919,-0.0605,-0.0426,-0.0426,-0.009,0.0403,0.0605,0.0852,0.1121,0.1323,0.1391,0.148,0.2019,0.2334,0.0,0.0,0.4632,0.5186,0.6141,0.6612,0.6858,0.7054,0.7279,0.7547,0.7834,0.805,0.8266,0.8542,0.8784,0.8933,0.8933,0.9323,0.9798,1.0272,1.0744,1.1262,1.195,1.2427,0.0,0.0,1.3462,1.38,1.4067,1.4109,1.4109,1.4088,1.3652,1.3392,1.3392,1.2966,1.2705,1.2705,1.2705,1.2952,1.3479,1.3491,1.3767,1.4292,1.4298,1.4298,1.4298,1.4298,1.4298,1.4298,1.4298,1.4298,1.4298,1.4298,1.4298,1.4298,1.4298,1.4298,1.4298,1.4298,1.4298,1.4298,1.4298,1.4298,1.4298,-1.0629,-1.0829,-1.0981,-1.1241,-1.1305,-1.1305,-1.1305,-1.1305,-1.1219,-1.103,-1.0824,-1.0598,-1.0337,-0.9973,-0.9624,-0.9323,-0.913,-0.8911,-0.8612,-0.859,-0.852,-0.8336,-0.8116,-0.7878,-0.7635,-0.7367,-0.7187,-0.7095,-0.7095,-0.6896,-0.652,-0.5924,-0.5055,-0.3983,-0.2734,-0.1816,-0.1166,-0.0516,-0.0202,-0.0112,0.0067,0.0426,0.0874,0.0942,0.1031,0.1121,0.1323,0.1391,0.0,0.1817,0.1974,0.222,0.3248,0.3805,0.4293,0.5411,0.6016,0.6415,0.0,0.0,0.7569,0.7834,0.805,0.8266,0.8542,0.8652,0.874,0.8867,0.9017,0.9279,0.9755,1.0229,1.0701,1.1241,1.1736,1.2192,0.0,1.3137,1.3589,1.38,1.3997,1.4109,1.4109,1.3673,1.3398,1.3398,1.296,1.2705,1.2705,1.2705,1.2952,1.3479,1.3491,1.3767,1.4292,1.4298,1.4298,1.4298,1.4298,1.4298,1.4298,1.4298,1.4298,1.4298,1.4298,1.4298,1.4298,1.4298,1.4298,1.4298,1.4298,1.4298,1.4298,1.4298,1.4298,1.4298,-1.09,-1.1051,-1.1159,-1.1289,-1.1305,-1.1289,-1.1203,-1.1181,-1.1089,-1.0786,-1.0646,-1.0424,-1.0098,-0.9777,-0.9476,-0.9174,-0.8999,-0.8806,-0.8612,-0.859,-0.8476,-0.8223,-0.8006,-0.7768,-0.7507,-0.7231,-0.7095,-0.7095,-0.7032,-0.6745,-0.6276,-0.55,-0.4587,-0.3492,-0.2219,-0.1368,-0.0807,-0.0247,0.0,0.0022,0.0359,0.074,0.1099,0.1188,0.1211,0.1233,0.0,0.1391,0.1436,0.1705,0.1794,0.1929,0.2713,0.3181,0.3669,0.4701,0.5458,0.6058,0.6523,0.7058,0.0,0.7834,0.805,0.0,0.8542,0.859,0.8634,0.8762,0.8784,0.8911,0.9279,0.9602,0.9951,1.0424,1.0809,1.1284,0.0,1.247,1.2924,1.3307,1.3779,1.4109,1.4109,1.3737,1.3476,1.3419,1.3052,1.279,1.2705,1.2705,1.2952,1.3479,1.3491,1.3767,1.4292,1.4298,1.4298,1.4298,1.4298,1.4298,1.4298,1.4298,1.4298,1.4298,1.4298,1.4298,1.4298,1.4298,1.4298,1.4298,1.4298,1.4298,1.4298,1.4298,1.4298,1.4298,-1.0965,-1.1181,-1.1305,-1.1284,-1.1284,-1.1224,-1.103,-1.0986,-1.0829,-1.0359,-1.0294,-1.012,-0.9646,-0.958,-0.941,-0.8933,-0.8889,-0.8806,-0.8612,-0.859,-0.845,-0.8201,-0.7984,-0.7746,-0.7484,-0.7231,-0.7095,-0.7095,-0.6881,-0.6526,-0.6038,-0.5097,-0.4026,-0.2823,-0.1838,-0.1009,-0.0381,-0.0112,0.0022,0.0067,0.0516,0.0874,0.1143,0.1323,0.1391,0.1391,0.1391,0.1391,0.1436,0.1705,0.1772,0.1861,0.2312,0.2781,0.3293,0.4052,0.4921,0.5764,0.6251,0.6922,0.7547,0.7812,0.805,0.0,0.0,0.0,0.859,0.859,0.859,0.8652,0.885,0.8889,0.9043,0.9493,0.975,1.0202,1.1111,1.1478,1.1886,1.2549,1.344,1.4004,1.4067,1.3828,1.3589,1.3398,1.3179,1.2945,1.2705,1.2683,1.293,1.3473,1.3491,1.3767,1.4292,1.4298,1.4298,1.4298,1.4298,1.4298,1.4298,1.4298,1.4298,1.4298,1.4298,1.4298,1.4298,1.4298,1.4298,1.4298,1.4298,1.4298,1.4298,1.4298,1.4298,1.4298,-1.1111,-1.1262,-1.1246,-1.1094,-1.1073,-1.1051,-1.1008,-1.0868,-1.0668,-1.0337,-1.0294,-1.012,-0.9646,-0.9476,-0.924,-0.8933,-0.8762,-0.8652,-0.8612,-0.8406,-0.8204,-0.7984,-0.7746,-0.7481,-0.7209,-0.7143,-0.7095,-0.7095,-0.6697,-0.6191,-0.5549,-0.4563,-0.3492,-0.2355,-0.1547,-0.0897,-0.0381,-0.0112,0.0202,0.0538,0.065,0.0942,0.1323,0.1391,0.1391,0.1391,0.1391,0.1391,0.1413,0.148,0.1503,0.157,0.1885,0.2199,0.2624,0.3518,0.4342,0.5139,0.5947,0.6678,0.7279,0.7525,0.7896,0.8223,0.0,0.0,0.0,0.0,0.0,0.0,0.0,0.8802,0.8933,0.906,0.9406,0.9816,1.0202,1.0614,1.109,1.1607,1.2057,1.2641,1.3504,1.3377,1.3228,1.3179,1.2817,1.2555,1.2491,1.2491,1.2713,1.3246,1.3423,1.3767,1.4292,1.4298,1.4298,1.4298,1.4298,1.4298,1.4298,1.4298,1.4298,1.4298,1.4298,1.4298,1.4298,1.4298,1.4298,1.4298,1.4298,1.4298,1.4298,1.4298,1.4298,1.4298,-1.0933,-1.1041,-1.0997,-1.0889,-1.0759,-1.0694,-1.0694,-1.0603,-1.0446,-1.0207,-1.0077,-0.9864,-0.9519,-0.9257,-0.9021,-0.8784,-0.8656,-0.859,-0.859,-0.8358,-0.8113,-0.79,-0.7635,-0.737,-0.7095,-0.701,-0.6922,-0.6786,-0.6232,-0.5658,-0.5062,-0.3983,-0.2957,-0.1997,-0.1256,-0.0673,-0.0224,-0.0067,0.0224,0.0583,0.0673,0.0919,0.0,0.1368,0.1391,0.1391,0.1391,0.1391,0.1391,0.1391,0.1391,0.1436,0.157,0.1885,0.2311,0.2938,0.3874,0.485,0.5591,0.6371,0.7058,0.7418,0.7702,0.794,0.8157,0.8314,0.845,0.0,0.8498,0.8428,0.0,0.845,0.8472,0.8472,0.8688,0.8925,0.9139,0.9458,0.9893,1.0484,1.0766,1.1241,1.21,1.2448,1.2619,1.2619,1.2363,1.2192,1.2106,1.2299,1.2653,1.3184,1.34,1.3767,1.4292,1.4298,1.4298,1.4298,1.4298,1.4298,1.4298,1.4298,1.4298,1.4298,1.4298,1.4298,1.4298,1.4298,1.4226,1.4112,1.3992,1.3943,1.3943,1.3943,1.4112,1.4298,-1.0688,-1.0776,-1.077,-1.0727,-1.0508,-1.0311,-1.0289,-1.0263,-1.0207,-1.0016,-0.9755,-0.9529,-0.9341,-0.9099,-0.887,-0.8677,-0.8659,-0.8659,-0.8659,-0.8385,-0.8138,-0.796,-0.7657,-0.7354,-0.7103,-0.6846,-0.6567,-0.6318,-0.5591,-0.5015,-0.4525,-0.336,-0.242,-0.1682,-0.0964,-0.0404,0.0,0.0,0.0157,0.0426,0.0628,0.0852,0.1121,0.1323,0.1391,0.1391,0.1391,0.1391,0.1391,0.1391,0.1391,0.1391,0.1391,0.1749,0.2199,0.2424,0.3449,0.4627,0.5191,0.5994,0.677,0.7282,0.7462,0.7613,0.8025,0.8135,0.8223,0.8454,0.8314,0.8157,0.8157,0.0,0.79,0.79,0.79,0.7962,0.8135,0.8306,0.8679,0.934,0.9576,0.0,1.0332,1.1257,1.1822,1.1822,1.1822,1.1757,1.1628,1.2098,1.2601,1.3132,1.339,1.3734,1.4244,1.4202,1.4202,1.4202,1.4202,1.4202,1.4202,1.4202,1.4202,1.4202,1.4202,1.4202,1.4202,1.4202,1.4064,1.3811,1.3539,1.3443,1.3443,1.337,1.3654,1.4052,-1.1055,-1.1192,-1.1124,-1.0891,-1.0639,-1.0411,-1.0232,-1.0128,-1.0038,-0.9994,-0.9755,-0.9561,-0.9486,-0.927,-0.9108,-0.9014,-0.9003,-0.9003,-0.9003,-0.8556,-0.8274,-0.8228,-0.7717,-0.7287,-0.7018,-0.6496,-0.608,-0.583,-0.4921,-0.4253,-0.3781,-0.278,-0.1929,-0.1211,-0.0673,-0.0292,0.0,0.0,0.0157,0.0426,0.0628,0.0852,0.1121,0.1323,0.1391,0.1391,0.1391,0.1391,0.1391,0.1391,0.1391,0.1391,0.1391,0.1615,0.1952,0.2379,0.296,0.3695,0.4788,0.5477,0.6055,0.6748,0.7216,0.7529,0.7613,0.779,0.7962,0.801,0.7984,0.7962,0.7962,0.0,0.79,0.79,0.79,0.7922,0.794,0.7984,0.8116,0.842,0.8482,0.8679,0.9152,1.0197,1.0852,1.0852,1.0852,1.0939,1.1111,1.1789,1.2366,0.0,1.328,1.3655,0.0,0.0,1.3636,1.3636,1.3636,1.3636,1.3636,1.3636,1.3636,1.3636,1.3636,1.3636,1.3636,1.3636,1.3612,1.3539,1.3273,1.3171,1.3123,1.2735,1.2638,1.2832,-1.0454,-1.0524,-1.0477,-1.0339,-1.0223,-1.0107,-1.0019,-0.9949,-0.989,-0.989,-0.9669,-0.9478,-0.9463,-0.9265,-0.9137,-0.9111,-0.9096,-0.9049,-0.8901,-0.8524,-0.8177,-0.7895,-0.7386,-0.6909,-0.6488,-0.5919,-0.5381,-0.4871,-0.4141,-0.355,-0.307,-0.2185,-0.1548,-0.1077,-0.0454,-0.0114,0.0,0.0,0.007,0.0208,0.044,0.0695,0.0973,0.1158,0.1334,0.1459,0.1459,0.1426,0.1391,0.1391,0.1391,0.1391,0.1391,0.1592,0.1839,0.2064,0.2645,0.336,0.4071,0.4897,0.5658,0.6124,0.6681,0.7172,0.7279,0.7503,0.7724,0.7878,0.779,0.7657,0.7518,0.7474,0.0,0.0,0.7474,0.7474,0.7474,0.7474,0.7566,0.7808,0.783,0.7981,0.8354,0.8877,0.9401,0.9886,1.0011,1.025,1.0619,0.0,1.2098,0.0,0.0,0.0,1.3491,0.0,1.3152,1.3152,1.3152,1.3152,1.3128,1.2983,1.2934,1.2934,1.2783,1.271,1.271,1.2565,1.2516,1.2492,1.2219,1.2024,1.1878,1.1658,1.1487,1.1512,-0.9932,-0.9932,-0.9932,-0.9932,-0.9885,-0.9838,-0.9838,-0.9791,-0.9765,-0.9799,-0.9554,-0.9408,-0.9469,-0.929,-0.9169,-0.9206,-0.9163,-0.904,-0.882,-0.8441,-0.8018,-0.7546,-0.6967,-0.643,-0.5905,-0.5218,-0.4567,-0.395,-0.3352,-0.2816,-0.2348,-0.1649,-0.1159,-0.0841,-0.0254,0.0,0.0,0.0,0.0,0.0024,0.0286,0.0572,0.0811,0.1025,0.1275,0.1491,0.1491,0.1475,0.1432,0.1432,0.1401,0.1391,0.1391,0.1548,0.1727,0.1772,0.2332,0.3002,0.3401,0.4251,0.5102,0.5455,0.6055,0.6615,0.683,0.7124,0.7418,0.7632,0.7525,0.7345,0.7143,0.7095,0.0,0.0,0.7095,0.7095,0.7095,0.7095,0.7187,0.7393,0.7415,0.7503,0.7698,0.772,0.805,0.8867,0.9257,0.9646,1.012,0.0,0.0,0.0,0.0,1.2618,1.2783,0.0,1.2395,1.2467,1.2346,1.2322,1.237,1.2102,1.198,1.1956,1.1756,1.1663,1.1634,1.1438,1.134,1.1316,1.1047,1.083,1.0609,1.0507,1.0339,1.029,-1.0336,-1.0336,-1.0336,-1.0336,-1.014,-0.9993,-0.9993,-0.9772,-0.9652,-0.9783,-0.9554,-0.9477,-0.9641,-0.9495,-0.9421,-0.9539,-0.9333,-0.9186,-0.9161,-0.8442,-0.7895,-0.7592,-0.6735,-0.6045,-0.556,-0.4438,-0.3711,-0.3455,-0.269,-0.2069,-0.1593,-0.1281,-0.0758,-0.0095,-0.0024,0.0,0.0,0.0,0.0,0.0024,0.0286,0.0572,0.0811,0.1025,0.1262,0.1498,0.1498,0.1496,0.1494,0.1494,0.1458,0.1391,0.1391,0.1413,0.148,0.1727,0.1861,0.213,0.3002,0.3492,0.3979,0.4852,0.543,0.5877,0.6124,0.6548,0.6884,0.6903,0.7035,0.7139,0.7095,0.7095,0.7095,0.0,0.0,0.7095,0.7095,0.7095,0.7117,0.7143,0.7143,0.7143,0.7161,0.7183,0.7319,0.7635,0.8472,0.917,0.9646,0.0,0.0,1.14,1.1842,1.1955,1.1731,1.1243,1.112,1.134,1.0855,1.0752,1.0978,1.0703,1.058,1.058,1.056,1.0556,1.0556,1.0511,1.0507,1.0487,1.0216,1.0093,1.0019,0.9529,0.9335,0.9335,-0.92,-0.9324,-0.9443,-0.9443,-0.9476,-0.9529,-0.9529,-0.9554,-0.9624,-0.9675,-0.9582,-0.9558,-0.9632,-0.9563,-0.9477,-0.9377,-0.9257,-0.8985,-0.8514,-0.8035,-0.7434,-0.6661,-0.582,-0.505,-0.438,-0.3561,-0.296,-0.2568,-0.2246,-0.182,-0.131,-0.1055,0.0,0.0,0.0,0.0,0.0,0.0,0.0,0.0,0.0123,0.042,0.0815,0.0889,0.1177,0.1553,0.1553,0.1541,0.1502,0.1502,0.1474,0.1463,0.1463,0.1427,0.1413,0.1525,0.1682,0.1884,0.2265,0.2846,0.3448,0.3829,0.4518,0.5164,0.5389,0.5811,0.6213,0.6501,0.6855,0.7095,0.7095,0.7095,0.7095,0.7095,0.0,0.7095,0.7095,0.7095,0.7095,0.7095,0.7095,0.7095,0.7095,0.7095,0.7209,0.7484,0.8116,0.8733,0.9331,0.0,0.0,1.0745,0.0,1.0752,1.0634,1.0265,1.0117,1.024,1.0019,0.9969,1.0068,0.9801,0.9599,0.9443,0.9443,0.9443,0.9443,0.9443,0.9443,0.9418,0.932,0.9175,0.9002,0.8808,0.8613,0.8489,-0.8059,-0.8205,-0.8354,-0.8425,-0.8655,-0.8886,-0.896,-0.9204,-0.9377,-0.9377,-0.9377,-0.9402,-0.948,-0.948,-0.9381,-0.9109,-0.8935,-0.8563,-0.7935,-0.7409,-0.6711,-0.5817,-0.491,-0.4157,-0.3504,-0.2876,-0.2373,-0.1996,-0.1845,-0.1535,0.0,0.0,0.0,0.0,0.0,0.0,0.0,0.0,0.0,0.0,0.0,0.0328,0.0808,0.0808,0.1127,0.161,0.161,0.1571,0.1528,0.1528,0.1533,0.1529,0.1497,0.1479,0.1439,0.1439,0.1553,0.1734,0.1791,0.2285,0.2823,0.2963,0.3626,0.4318,0.4543,0.5053,0.5653,0.621,0.6631,0.6918,0.6988,0.7051,0.7095,0.7095,0.0,0.0,0.7095,0.7095,0.7095,0.7095,0.7095,0.7112,0.7181,0.7185,0.7276,0.7507,0.7885,0.8357,0.8929,0.0,0.0,0.0,0.0,0.0,0.9645,0.9377,0.9278,0.9352,0.9204,0.9179,0.9229,0.896,0.8733,0.8556,0.8556,0.8556,0.8556,0.8556,0.8556,0.8556,0.8556,0.8457,0.8283,0.8283,0.8162,0.7988,-0.7213,-0.7213,-0.7313,-0.7556,-0.7836,-0.8113,-0.8357,-0.8627,-0.88,-0.88,-0.88,-0.8903,-0.9183,-0.9212,-0.9109,-0.8825,-0.8308,-0.7885,-0.763,-0.6614,-0.5766,-0.524,-0.4182,-0.3479,-0.3205,-0.2425,-0.1996,-0.1996,-0.1465,-0.106,-0.0783,0.0,0.0,0.0,0.0,0.0,0.0,0.0,0.0,0.0,0.0,0.0328,0.0808,0.0808,0.1136,0.1591,0.1591,0.1591,0.159,0.159,0.1596,0.1589,0.1511,0.1502,0.1501,0.1501,0.1501,0.1542,0.1744,0.1804,0.1934,0.2391,0.2871,0.3294,0.3564,0.4342,0.5211,0.5949,0.6257,0.6498,0.6748,0.6966,0.7095,0.7095,0.0,0.0,0.7095,0.7095,0.7095,0.7095,0.7095,0.7178,0.7376,0.7389,0.7454,0.7584,0.7778,0.8057,0.0,0.0,0.0,0.892,0.9118,0.0,0.8825,0.8552,0.8552,0.88,0.8283,0.8162,0.8407,0.8137,0.8013,0.8013,0.8013,0.8013,0.8013,0.8013,0.8013,0.8013,0.8013,0.8013,0.8013,0.8013,0.8013,0.7988,-0.5331,-0.5582,-0.5857,-0.5954,-0.6484,-0.6936,-0.7036,-0.758,-0.7978,-0.7978,-0.7978,-0.7953,-0.7836,-0.8333,-0.8407,-0.7758,-0.7381,-0.6908,-0.6284,-0.5409,-0.4682,-0.4131,-0.3251,-0.2648,-0.2399,-0.1945,-0.1718,-0.1718,0.0,0.0,0.0,-0.0177,0.0,0.0,0.0,0.0,0.0,0.0,0.0,0.0,0.0,0.0328,0.0808,0.0808,0.1136,0.1592,0.1592,0.1592,0.1592,0.1592,0.1611,0.16,0.1566,0.1535,0.1502,0.1502,0.1502,0.1524,0.1586,0.1724,0.1905,0.2004,0.2268,0.2579,0.279,0.3583,0.4451,0.5188,0.5547,0.5836,0.6238,0.6371,0.6457,0.6609,0.6631,0.0,0.6631,0.6631,0.6735,0.6995,0.7031,0.7155,0.7512,0.7529,0.7546,0.7597,0.7736,0.7961,0.0,0.0,0.0,0.0,0.8435,0.0,0.8262,0.8162,0.8162,0.8262,0.8088,0.8038,0.8113,0.8038,0.7988,0.7988,0.7988,0.7988,0.7988,0.7988,0.7988,0.7988,0.7988,0.7988,0.7988,0.7988,0.7988,0.7988,-0.3981,-0.423,-0.4479,-0.458,-0.5181,-0.5684,-0.5787,-0.6409,-0.6855,-0.6855,-0.6855,-0.6758,-0.6489,-0.6811,0.0,-0.6764,-0.6412,-0.5909,-0.5208,-0.4479,-0.3853,-0.3327,-0.2623,-0.2171,-0.1996,-0.1743,0.0,-0.144,-0.1086,-0.0682,-0.0253,-0.0076,0.0,0.0,0.0,0.0,0.0,0.0,0.0,0.0,0.0,0.0328,0.0808,0.0808,0.1136,0.1592,0.1592,0.1592,0.1592,0.1592,0.1592,0.1592,0.1592,0.1566,0.1536,0.1536,0.1536,0.1533,0.1547,0.1664,0.1776,0.1694,0.1896,0.217,0.2464,0.298,0.3619,0.435,0.4717,0.5061,0.5517,0.5699,0.5815,0.5923,0.5946,0.5991,0.6082,0.6196,0.6413,0.6871,0.7019,0.7237,0.7641,0.7678,0.7702,0.7736,0.782,0.7948,0.0,0.0,0.8168,0.8258,0.8088,0.7988,0.7988,0.7988,0.7988,0.7988,0.7988,0.7988,0.7988,0.7988,0.7988,0.7988,0.7988,0.7988,0.7988,0.7988,0.7988,0.7988,0.7988,0.7988,0.7988,0.7988,0.7988,0.7988,-0.3104,-0.3104,-0.3205,-0.3453,-0.3929,-0.4379,-0.4634,-0.511,-0.5459,-0.5459,-0.5459,-0.5361,-0.5115,-0.4836,-0.496,-0.5716,0.0,0.0,-0.4329,-0.3778,-0.3277,-0.2775,-0.2248,-0.1971,-0.1971,-0.1718,-0.144,-0.1136,-0.0657,-0.0253,0.0,0.0,0.0,0.0,0.0,0.0,0.0,0.0,0.0,0.0,0.0,0.0303,0.0783,0.0783,0.1111,0.1566,0.1592,0.1592,0.1592,0.1592,0.1592,0.1592,0.1592,0.1592,0.1592,0.1592,0.1592,0.1611,0.1607,0.1599,0.1592,0.1513,0.1695,0.2003,0.2453,0.2548,0.2761,0.3472,0.383,0.414,0.4612,0.4899,0.5067,0.509,0.509,0.5183,0.5464,0.5726,0.611,0.6664,0.0,0.0,0.7742,0.7804,0.7861,0.7978,0.7988,0.7988,0.0,0.0,0.7988,0.7988,0.7988,0.7988,0.7988,0.7988,0.7988,0.7988,0.7988,0.7988,0.7988,0.7988,0.7988,0.7988,0.7988,0.7988,0.7988,0.7988,0.7988,0.7988,0.7988,0.7988,0.7988,0.7988,0.7988,0.7988,-0.2021,-0.2147,-0.2298,-0.2374,-0.2826,-0.3202,-0.3253,-0.3729,-0.4079,-0.4079,-0.4079,-0.4054,-0.3981,-0.3553,-0.3353,-0.353,-0.3629,-0.3527,-0.3202,-0.2675,-0.2323,-0.2197,-0.1869,-0.1693,-0.1693,-0.144,-0.1061,-0.0581,-0.0455,-0.0253,0.0,0.0,0.0,0.0,0.0,0.0,0.0,0.0,0.0,0.0,0.0,0.0202,0.0505,0.0732,0.101,0.1314,0.1516,0.1592,0.1592,0.1592,0.1592,0.1592,0.1592,0.1592,0.1592,0.1592,0.1592,0.159,0.1608,0.1606,0.1598,0.1568,0.1591,0.1669,0.2003,0.2074,0.2216,0.2761,0.2904,0.3094,0.3572,0.3715,0.381,0.402,0.4043,0.4138,0.4423,0.4688,0.5168,0.0,0.6533,0.7046,0.7603,0.7839,0.7976,0.0,0.0,0.7988,0.7988,0.7988,0.7988,0.7988,0.7988,0.7988,0.7988,0.7988,0.7988,0.7988,0.7988,0.7988,0.7988,0.7988,0.7988,0.7988,0.7988,0.7988,0.7988,0.7988,0.7988,0.7988,0.7988,0.7988,0.7988,0.7988,0.7988,0.7988,-0.1617,-0.1718,-0.1819,-0.1819,-0.2147,-0.2424,-0.2424,-0.2774,-0.305,-0.305,-0.305,-0.305,-0.305,-0.2675,-0.2424,-0.2424,-0.2672,-0.2723,-0.2449,-0.2172,-0.1946,-0.1819,-0.1667,-0.1541,-0.1415,-0.1263,-0.0934,-0.0404,-0.0278,-0.0152,0.0,0.0,0.0,0.0,0.0,0.0,0.0,0.0,0.0,0.0,0.0,0.0152,0.0404,0.0556,0.0859,0.1212,0.1364,0.1491,0.1592,0.1592,0.1592,0.1592,0.1592,0.1592,0.1592,0.1592,0.1592,0.1592,0.1592,0.1592,0.1588,0.1596,0.158,0.1592,0.1739,0.1764,0.1862,0.2252,0.2325,0.2447,0.2813,0.2887,0.2935,0.3079,0.3104,0.325,0.3643,0.3912,0.4512,0.562,0.6243,0.6838,0.7537,0.7842,0.7988,0.7988,0.7988,0.0,0.7988,0.7988,0.7988,0.7988,0.7988,0.7988,0.7988,0.7988,0.7988,0.7988,0.7988,0.7988,0.7988,0.7988,0.7988,0.7988,0.7988,0.7988,0.7988,0.7988,0.7988,0.7988,0.7988,0.7988,0.7988,0.7988,0.7988,0.7988,-0.1592,-0.1592,-0.1592,-0.1592,-0.1794,-0.1946,-0.1946,-0.2121,-0.227,-0.227,-0.227,-0.227,-0.227,-0.207,-0.1946,-0.1946,-0.2146,-0.217,-0.1946,-0.1946,-0.1844,-0.1617,-0.1566,-0.144,-0.1212,-0.1111,-0.0833,-0.0328,-0.0101,0.0,0.0,0.0,0.0,0.0,0.0,0.0,0.0,0.0,0.0,0.0,0.0,0.0126,0.0354,0.0379,0.0682,0.1086,0.1136,0.1314,0.1541,0.1541,0.1566,0.1592,0.1592,0.1592,0.1592,0.1592,0.1592,0.1592,0.1592,0.1592,0.1592,0.1541,0.1541,0.1541,0.1491,0.1491,0.1541,0.1768,0.1844,0.1945,0.217,0.2245,0.227,0.227,0.227,0.2448,0.2953,0.0,0.3954,0.5208,0.5909,0.6589,0.7394,0.7768,0.7963,0.7988,0.7988,0.7988,0.7988,0.7988,0.7988,0.7988,0.7988,0.7988,0.7988,0.7988,0.7988,0.7988,0.7988,0.7988,0.7988,0.7988,0.7988,0.7988,0.7988,0.7988,0.7988,0.7988,0.7988,0.7988,0.7988,0.7988,0.7988,0.7988,0.7988,0.7988,-0.1592,-0.1592,-0.1592,-0.1592,-0.1642,-0.1667,-0.1667,-0.1693,-0.1717,-0.1717,-0.1717,-0.1717,-0.1717,-0.1693,-0.1667,-0.1667,-0.1693,-0.1718,-0.1667,-0.1667,-0.1642,-0.1592,-0.139,-0.1237,-0.1212,-0.0758,-0.0379,-0.0051,-0.0025,0.0,0.0,0.0,0.0,0.0,0.0,0.0,0.0,0.0,0.0,0.0,0.0,0.0025,0.0076,0.0303,0.0455,0.0556,0.0783,0.1035,0.1263,0.1263,0.1415,0.1592,0.1592,0.1592,0.1592,0.1592,0.1592,0.1592,0.1592,0.1592,0.1541,0.1314,0.1263,0.1212,0.0985,0.0934,0.0934,0.0985,0.1162,0.1339,0.1389,0.1566,0.1717,0.1717,0.1717,0.1843,0.2147,0.0,0.3253,0.4133,0.511,0.6037,0.6845,0.7369,0.7743,0.7988,0.7988,0.7988,0.7988,0.7988,0.7988,0.7988,0.7988,0.7988,0.7988,0.7988,0.7988,0.7988,0.7988,0.7988,0.7988,0.7988,0.7988,0.7988,0.7988,0.7988,0.7988,0.7988,0.7988,0.7988,0.7988,0.7988,0.7988,0.7988,0.7988,0.7988,-0.1592,-0.1592,-0.1592,-0.1592,-0.1592,-0.1592,-0.1592,-0.1592,-0.1592,-0.1592,-0.1592,-0.1592,-0.1592,-0.1592,-0.1592,-0.1592,-0.1592,-0.1592,-0.1592,-0.1592,-0.1541,-0.139,-0.1263,-0.1061,-0.0783,-0.0379,-0.0126,0.0,0.0,0.0,0.0,0.0,0.0,0.0,0.0,0.0,0.0,0.0,0.0,0.0,0.0,0.0,0.0025,0.0126,0.0278,0.0404,0.053,0.0758,0.0985,0.0985,0.1162,0.139,0.139,0.1491,0.1566,0.1415,0.1491,0.1566,0.1415,0.139,0.1314,0.1061,0.0985,0.096,0.0833,0.0808,0.0808,0.0808,0.0909,0.0985,0.0985,0.1212,0.139,0.139,0.1516,0.0,0.1971,0.2223,0.2726,0.3679,0.4481,0.5384,0.6489,0.7067,0.7565,0.7967,0.7988,0.7988,0.7988,0.7988,0.7988,0.7988,0.7988,0.7988,0.7988,0.7988,0.7988,0.7988,0.7988,0.7988,0.7988,0.7988,0.7988,0.7988,0.7988,0.7988,0.7988,0.7988,0.7988,0.7988,0.7988,0.7988,0.7988,0.7988,0.7988,0.7988,-0.1592,-0.1592,-0.1592,-0.1592,-0.1592,-0.1592,-0.1592,-0.1592,-0.1592,-0.1592,-0.1592,-0.1592,-0.1592,-0.1592,-0.1592,-0.1592,-0.1592,-0.1566,-0.1516,-0.1516,-0.1415,-0.1212,-0.1086,-0.0783,-0.0328,-0.0101,0.0,0.0,0.0,0.0,0.0,0.0,0.0,0.0,0.0,0.0,0.0,0.0,0.0,0.0,0.0,0.0,0.0,0.0,0.0126,0.0303,0.0303,0.048,0.0707,0.0707,0.0884,0.1111,0.1111,0.1237,0.1364,0.1162,0.1263,0.1364,0.1162,0.1111,0.1035,0.0783,0.0707,0.0682,0.0631,0.0606,0.0606,0.0606,0.0657,0.0707,0.0707,0.0934,0.1136,0.1187,0.0,0.1592,0.1869,0.1971,0.2349,0.3302,0.3954,0.4807,0.6087,0.6761,0.7341,0.7867,0.7967,0.7988,0.7988,0.7988,0.7988,0.7988,0.7988,0.7988,0.7988,0.7988,0.7988,0.7988,0.7988,0.7988,0.7988,0.7988,0.7988,0.7988,0.7988,0.7988,0.7988,0.7988,0.7988,0.7988,0.7988,0.7988,0.7988,0.7988,0.7988,0.7988,-0.1592,-0.1592,-0.1592,-0.1592,-0.1592,-0.1592,-0.1592,-0.1592,-0.1592,-0.1592,-0.1592,-0.1592,-0.1592,-0.1592,-0.1592,-0.1592,-0.1592,-0.1491,-0.1237,-0.1237,-0.1212,-0.1212,-0.0732,-0.0328,-0.0025,0.0,0.0,0.0,0.0,0.0,0.0,0.0,0.0,0.0,0.0,0.0,0.0,0.0,0.0,0.0,0.0,0.0,0.0,0.0,0.0,0.0025,0.0025,0.0202,0.0429,0.0429,0.0606,0.0833,0.0833,0.0833,0.0859,0.0833,0.0833,0.0859,0.0833,0.0833,0.0758,0.0505,0.0429,0.0354,0.0126,0.0051,0.0051,0.0051,0.0253,0.0429,0.0429,0.0657,0.0909,0.1162,0.0,0.0,0.1592,0.1844,0.2223,0.2801,0.3555,0.4458,0.5561,0.6364,0.7045,0.7596,0.7867,0.7988,0.7988,0.7988,0.7988,0.7988,0.7988,0.7988,0.7988,0.7988,0.7988,0.7988,0.7988,0.7988,0.7988,0.7988,0.7988,0.7988,0.7988,0.7988,0.7988,0.7988,0.7988,0.7988,0.7988,0.7988,0.7988,0.7988,0.7988,0.7988,-0.1592,-0.1592,-0.1592,-0.1592,-0.1592,-0.1592,-0.1592,-0.1592,-0.1592,-0.1592,-0.1592,-0.1592,-0.1592,-0.144,-0.1364,-0.1364,-0.1212,-0.1061,-0.096,-0.0808,-0.0707,-0.0707,-0.0354,-0.0101,0.0,0.0,0.0,0.0,0.0,0.0,0.0,0.0,0.0,0.0,0.0,0.0,0.0,0.0,0.0,0.0,0.0,0.0,0.0,0.0,0.0,0.0,0.0,0.0076,0.0152,0.0152,0.0328,0.0556,0.0556,0.0657,0.0758,0.0606,0.0429,0.0303,0.0303,0.0429,0.048,0.0227,0.0152,0.0126,0.0025,0.0,0.0,0.0,0.0076,0.0152,0.0152,0.0379,0.0631,0.0909,0.0,0.1288,0.1566,0.1693,0.1895,0.2248,0.2876,0.3756,0.4985,0.5839,0.667,0.7547,0.7842,0.7988,0.7988,0.7988,0.7988,0.7988,0.7988,0.7988,0.7988,0.7988,0.7988,0.7988,0.7988,0.7988,0.7988,0.7988,0.7988,0.7988,0.7988,0.7988,0.7988,0.7988,0.7988,0.7988,0.7988,0.7988,0.7988,0.7988,0.7988,0.7988,-0.1339,-0.1339,-0.1339,-0.1339,-0.1339,-0.1339,-0.1339,-0.1339,-0.1339,-0.1339,-0.1339,-0.1339,-0.1339,-0.1187,-0.1086,-0.1086,-0.0909,-0.0758,-0.0682,-0.0429,-0.0278,-0.0278,-0.0101,0.0,0.0,0.0,0.0,0.0,0.0,0.0,0.0,0.0,0.0,0.0,0.0,0.0,0.0,0.0,0.0,0.0,0.0,0.0,0.0,0.0,0.0,0.0,0.0,0.0,0.0,0.0,0.0126,0.0278,0.0278,0.0404,0.0505,0.0328,0.0152,0.0,0.0,0.0126,0.0227,0.0051,0.0,0.0,0.0,0.0,0.0,0.0,0.0,0.0,0.0,0.0227,0.048,0.0758,0.1035,0.1288,0.1566,0.1592,0.1743,0.2096,0.26,0.3429,0.4684,0.5614,0.6489,0.7419,0.7793,0.7988,0.7988,0.7988,0.7988,0.7988,0.7988,0.7988,0.7988,0.7988,0.7988,0.7988,0.7988,0.7988,0.7988,0.7988,0.7988,0.7988,0.7988,0.7988,0.7988,0.7988,0.7988,0.7988,0.7988,0.7988,0.7988,0.7988,0.7988,0.7988,-0.0808,-0.0808,-0.0808,-0.0808,-0.0808,-0.0808,-0.0808,-0.0808,-0.0808,-0.0808,-0.0808,-0.0808,-0.0808,-0.0808,-0.0808,-0.0808,-0.0783,-0.0682,-0.0404,-0.0152,0.0,0.0,0.0,0.0,0.0,0.0,0.0,0.0,0.0,0.0,0.0,0.0,0.0,0.0,0.0,0.0,0.0,0.0,0.0,0.0,0.0,0.0,0.0,0.0,0.0,0.0,0.0,0.0,0.0,0.0,0.0,0.0,0.0,0.0,0.0,0.0,0.0,0.0,0.0,0.0,0.0,0.0,0.0,0.0,0.0,0.0,0.0,0.0,0.0,0.0,0.0,0.0227,0.048,0.0758,0.1035,0.1288,0.1566,0.1592,0.1793,0.2346,0.2876,0.3632,0.4684,0.5762,0.6612,0.7163,0.769,0.7988,0.7988,0.7988,0.7988,0.7988,0.7988,0.7988,0.7988,0.7988,0.7988,0.7988,0.7988,0.7988,0.7988,0.7988,0.7988,0.7988,0.7988,0.7988,0.7988,0.7988,0.7988,0.7988,0.7988,0.7988,0.7988,0.7988,0.7988,0.7988,-0.0808,-0.0808,-0.0808,-0.0808,-0.0808,-0.0808,-0.0808,-0.0808,-0.0808,-0.0808,-0.0808,-0.0808,-0.0808,-0.0631,-0.053,-0.053,-0.0354,-0.0202,-0.0126,-0.0051,0.0,0.0,0.0,0.0,0.0,0.0,0.0,0.0,0.0,0.0,0.0,0.0,0.0,0.0,0.0,0.0,0.0,0.0,0.0,0.0,0.0,0.0,0.0,0.0,0.0,0.0,0.0,0.0,0.0,0.0,0.0,0.0,0.0,0.0,0.0,0.0,0.0,0.0,0.0,0.0,0.0,0.0,0.0,0.0,0.0,0.0,0.0,0.0,0.0152,0.0278,0.0278,0.0505,0.0758,0.1035,0.1136,0.1288,0.1566,0.1768,0.1945,0.2096,0.2927,0.383,0.4709,0.5762,0.6686,0.7419,0.7793,0.7988,0.7988,0.7988,0.7988,0.7988,0.7988,0.7988,0.7988,0.7988,0.7988,0.7988,0.7988,0.7988,0.7988,0.7988,0.7988,0.7988,0.7988,0.7988,0.7988,0.7988,0.7988,0.7988,0.7988,0.7988,0.7988,0.7988,0.7988,0.7988,-0.048,-0.048,-0.048,-0.048,-0.048,-0.048,-0.048,-0.048,-0.048,-0.048,-0.048,-0.048,-0.048,-0.0328,-0.0253,-0.0253,-0.0101,0.0,0.0,0.0,0.0,0.0,0.0,0.0,0.0,0.0,0.0,0.0,0.0,0.0,0.0,0.0,0.0,0.0,0.0,0.0,0.0,0.0,0.0,0.0,0.0,0.0,0.0,0.0,0.0,0.0,0.0,0.0,0.0,0.0,0.0,0.0,0.0,0.0,0.0,0.0,0.0,0.0,0.0,0.0,0.0,0.0,0.0,0.0,0.0,0.0,0.0025,0.0126,0.0278,0.0429,0.053,0.0783,0.101,0.1162,0.1288,0.144,0.1718,0.1895,0.2147,0.2575,0.3402,0.428,0.5188,0.6137,0.7014,0.7693,0.7917,0.7988,0.7988,0.7988,0.7988,0.7988,0.7988,0.7988,0.7988,0.7988,0.7988,0.7988,0.7988,0.7988,0.7988,0.7988,0.7988,0.7988,0.7988,0.7988,0.7988,0.7988,0.7988,0.7988,0.7988,0.7988,0.7988,0.7988,0.7988,0.7988,0.0,0.0,0.0,0.0,0.0,0.0,0.0,0.0,0.0,0.0,0.0,0.0,0.0,0.0,0.0,0.0,0.0,0.0,0.0,0.0,0.0,0.0,0.0,0.0,0.0,0.0,0.0,0.0,0.0,0.0,0.0,0.0,0.0,0.0,0.0,0.0,0.0,0.0,0.0,0.0,0.0,0.0,0.0,0.0,0.0,0.0,0.0,0.0,0.0,0.0,0.0,0.0,0.0,0.0,0.0,0.0,0.0,0.0,0.0,0.0,0.0,0.0,0.0,0.0,0.0,0.0025,0.0101,0.0354,0.0429,0.0556,0.0783,0.1061,0.1237,0.1263,0.1465,0.1743,0.2021,0.2123,0.2523,0.3553,0.4178,0.4958,0.5964,0.6789,0.7462,0.7963,0.7988,0.7988,0.7988,0.7988,0.7988,0.7988,0.7988,0.7988,0.7988,0.7988,0.7988,0.7988,0.7988,0.7988,0.7988,0.7988,0.7988,0.7988,0.7988,0.7988,0.7988,0.7988,0.7988,0.7988,0.7988,0.7988,0.7988,0.7988,0.7988,0.7988,0.0,0.0,0.0,0.0,0.0,0.0,0.0,0.0,0.0,0.0,0.0,0.0,0.0,0.0,0.0,0.0,0.0,0.0,0.0,0.0,0.0,0.0,0.0,0.0,0.0,0.0,0.0,0.0,0.0,0.0,0.0,0.0,0.0,0.0,0.0,0.0,0.0,0.0,0.0,0.0,0.0,0.0,0.0,0.0,0.0,0.0,0.0,0.0,0.0,0.0,0.0,0.0,0.0,0.0,0.0,0.0,0.0,0.0,0.0,0.0,0.0,0.0,0.0,0.0,0.0,0.0152,0.0328,0.0379,0.0732,0.1035,0.1111,0.1339,0.1592,0.1794,0.187,0.2071,0.255,0.2976,0.3503,0.4153,0.5058,0.5912,0.6556,0.736,0.7864,0.7988,0.7988,0.7988,0.7988,0.7988,0.7988,0.7988,0.7988,0.7988,0.7988,0.7988,0.7988,0.7988,0.7988,0.7988,0.7988,0.7988,0.7988,0.7988,0.7988,0.7988,0.7988,0.7988,0.7988,0.7988,0.7988,0.7988,0.7988,0.7988,0.7988,0.7988,0.0,0.0,0.0,0.0,0.0,0.0,0.0,0.0,0.0,0.0,0.0,0.0,0.0,0.0,0.0,0.0,0.0,0.0,0.0,0.0,0.0,0.0,0.0,0.0,0.0,0.0,0.0,0.0,0.0,0.0,0.0,0.0,0.0,0.0,0.0,0.0,0.0,0.0,0.0,0.0,0.0,0.0,0.0,0.0,0.0,0.0,0.0,0.0,0.0,0.0,0.0,0.0,0.0,0.0,0.0025,0.0152,0.0202,0.0227,0.0354,0.0379,0.0379,0.0379,0.0379,0.0354,0.0227,0.0303,0.048,0.0732,0.101,0.1237,0.1364,0.1516,0.1693,0.1946,0.2096,0.2423,0.3077,0.3652,0.428,0.5058,0.5884,0.6634,0.731,0.7761,0.7988,0.7988,0.7988,0.7988,0.7988,0.7988,0.7988,0.7988,0.7988,0.7988,0.7988,0.7988,0.7988,0.7988,0.7988,0.7988,0.7988,0.7988,0.7988,0.7988,0.7988,0.7988,0.7988,0.7988,0.7988,0.7988,0.7988,0.7988,0.7988,0.7988,0.7988,0.7988,0.0,0.0,0.0,0.0,0.0,0.0,0.0,0.0,0.0,0.0,0.0,0.0,0.0,0.0,0.0,0.0,0.0,0.0,0.0,0.0,0.0,0.0,0.0,0.0,0.0,0.0,0.0,0.0,0.0,0.0,0.0,0.0,0.0,0.0,0.0,0.0,0.0,0.0,0.0,0.0,0.0,0.0,0.0,0.0,0.0,0.0,0.0,0.0,0.0,0.0,0.0,0.0,0.0051,0.0076,0.0126,0.0379,0.048,0.0505,0.0732,0.0808,0.0808,0.0808,0.0808,0.0758,0.0581,0.053,0.0657,0.1111,0.1237,0.1339,0.1566,0.1592,0.1693,0.2021,0.2322,0.2823,0.3677,0.4305,0.5058,0.6092,0.6686,0.7257,0.7939,0.7988,0.7988,0.7988,0.7988,0.7988,0.7988,0.7988,0.7988,0.7988,0.7988,0.7988,0.7988,0.7988,0.7988,0.7988,0.7988,0.7988,0.7988,0.7988,0.7988,0.7988,0.7988,0.7988,0.7988,0.7988,0.7988,0.7988,0.7988,0.7988,0.7988,0.7988,0.7988,0.7992,0.0,0.0,0.0,0.0,0.0,0.0,0.0,0.0,0.0,0.0,0.0,0.0,0.0,0.0,0.0,0.0,0.0,0.0,0.0,0.0,0.0,0.0,0.0,0.0,0.0,0.0,0.0,0.0,0.0,0.0,0.0,0.0,0.0,0.0,0.0,0.0,0.0,0.0,0.0,0.0,0.0,0.0,0.0,0.0,0.0,0.0,0.0,0.0,0.0,0.0,0.0,0.0051,0.0278,0.0354,0.0404,0.0657,0.0758,0.0758,0.0783,0.0808,0.0808,0.0808,0.0808,0.0859,0.1035,0.1086,0.1111,0.1187,0.139,0.1566,0.1592,0.1592,0.1768,0.227,0.2773,0.345,0.4481,0.5288,0.6089,0.6939,0.7512,0.7889,0.7988,0.7988,0.7988,0.7988,0.7988,0.7988,0.7988,0.7988,0.7988,0.7988,0.7988,0.7988,0.7988,0.7988,0.7988,0.7988,0.7988,0.7988,0.7988,0.7988,0.7988,0.7988,0.7988,0.7988,0.7988,0.7988,0.7988,0.7988,0.7988,0.7988,0.7988,0.7988,0.7988,0.8033,0.0,0.0,0.0,0.0,0.0,0.0,0.0,0.0,0.0,0.0,0.0,0.0,0.0,0.0,0.0,0.0,0.0,0.0,0.0,0.0,0.0,0.0,0.0,0.0,0.0,0.0,0.0,0.0,0.0,0.0,0.0,0.0,0.0,0.0,0.0,0.0,0.0,0.0,0.0,0.0,0.0,0.0,0.0,0.0,0.0,0.0,0.0,0.0101,0.0227,0.0227,0.0328,0.048,0.0581,0.0631,0.0682,0.0934,0.1035,0.1061,0.1212,0.1237,0.1237,0.1237,0.1237,0.1288,0.139,0.1541,0.1592,0.1465,0.1642,0.1819,0.1819,0.1944,0.2221,0.275,0.3302,0.4029,0.5085,0.5939,0.6742,0.754,0.7864,0.7988,0.7988,0.7988,0.7988,0.7988,0.7988,0.7988,0.7988,0.7988,0.7988,0.7988,0.7988,0.7988,0.7988,0.7988,0.7988,0.7988,0.7988,0.7988,0.7988,0.7988,0.7988,0.7988,0.7988,0.7988,0.7988,0.7988,0.7988,0.7988,0.7988,0.7988,0.7988,0.7988,0.8071,0.8177]},{"header":{"parameterUnit":"m.s-1","parameterCategory":1,"la1":30.6,"la2":28.766,"lo1":-90.7593,"lo2":-88.6598,"dy":0.0162,"dx":0.0183,"nx":116,"ny":114,"refTime":"2023-09-19T18:00:00:Z","depth":0,"parameterNumber":3,"parameterNumberName":"V-component_of_WINDS"},"data":[0.0,0.0,0.0,0.0,0.0,0.0,0.0,0.0,0.0,0.0,0.0,0.0,0.0,0.0,0.0,0.0,0.0,0.0,0.0,0.0,0.0,0.0,0.0,0.0,0.0,0.0,0.0,0.0,0.0,0.0,0.0,0.0,0.0,0.0,0.0,0.0,0.0,0.0,0.0,0.0,0.0,0.0,0.0,0.0,0.0,0.0,0.0,0.0,0.0,0.0,0.0,0.0,0.0,0.0,0.0,0.0,0.0,0.0,0.0,0.0,0.0,0.0,0.0,0.0,0.0,0.0,0.0,0.0,0.0,0.0,0.0,0.0,0.0,0.0,0.0,0.0,0.0,0.0,0.0,0.0,0.0,0.0,0.0,0.0,0.0,0.0,0.0,0.0,0.0,0.0,0.0,0.0,0.0,0.0,0.0,0.0,0.0,0.0,0.0,0.0,0.0,0.0,0.0,0.0,0.0,0.0,0.0,0.0,0.0,0.0,0.0,0.0,0.0,0.0,0.0,0.0,0.0,0.0,0.0,0.0,0.0,0.0,0.0,0.0,0.0,0.0,0.0,0.0,0.0,0.0,0.0,0.0,0.0,0.0,0.0,0.0,0.0,0.0,0.0,0.0,0.0,0.0,0.0,0.0,0.0,0.0,0.0,0.0,0.0,0.0,0.0,0.0,0.0,0.0,0.0,0.0,0.0,0.0,0.0,0.0,0.0,0.0,0.0,0.0,0.0,0.0,0.0,0.0,0.0,0.0,0.0,0.0,0.0,0.0,0.0,0.0,0.0,0.0,0.0,0.0,0.0,0.0,0.0,0.0,0.0,0.0,0.0,0.0,0.0,0.0,0.0,0.0,0.0,0.0,0.0,0.0,0.0,0.0,0.0,0.0,0.0,0.0,0.0,0.0,0.0,0.0,0.0,0.0,0.0,0.0,0.0,0.0,0.0,0.0,0.0,0.0,0.0,0.0,0.0,0.0,0.0,0.0,0.0,0.0,0.0,0.0,0.0,0.0,0.0,0.0,0.0,0.0,0.0,0.0,0.0,0.0,0.0,0.0,0.0,0.0,0.0,0.0,0.0,0.0,0.0,0.0,0.0,0.0,0.0,0.0,0.0,0.0,0.0,0.0,0.0,0.0,0.0,0.0,0.0,0.0,0.0,0.0,0.0,0.0,0.0,0.0,0.0,0.0,0.0,0.0,0.0,0.0,0.0,0.0,0.0,0.0,0.0,0.0,0.0,0.0,0.0,0.0,0.0,0.0,0.0,0.0,0.0,0.0,0.0,0.0,0.0,0.0,0.0,0.0,0.0,0.0,0.0,0.0,0.0,0.0,0.0,0.0,0.0,0.0,0.0,0.0,0.0,0.0,0.0,0.0,0.0,0.0,0.0,0.0,0.0,0.0,0.0,0.0,0.0,0.0,0.0,0.0,0.0,0.0,0.0,0.0,0.0,0.0,0.0,0.0,0.0,0.0,0.0,0.0,0.0,0.0,0.0,0.0,0.0,0.0,0.0,0.0,0.0,0.0,0.0,0.0,0.0,0.0,0.0,0.0,0.0,0.0,0.0,0.0,0.0,0.0,0.0,0.0,0.0,0.0,0.0,0.0,0.0,0.0,0.0,0.0,0.0,0.0,0.0,0.0,0.0,0.0,0.0,0.0,0.0,0.0,0.0,0.0,0.0,0.0,0.0,0.0,0.0,0.0,0.0,0.0,0.0,0.0,0.0,0.0,0.0,0.0,0.0,0.0,0.0,0.0,0.0,0.0,0.0,0.0,0.0,0.0,0.0,0.0,0.0,0.0,0.0,0.0,0.0,0.0,0.0,0.0,0.0,0.0,0.0,0.0,0.0,0.0,0.0,0.0,0.0,0.0,0.0,0.0,0.0,0.0,0.0,0.0,0.0,0.0,0.0,0.0,0.0,0.0,0.0,0.0,0.0,0.0,0.0,0.0,0.0,0.0,0.0,0.0,0.0,0.0,0.0,0.0,0.0,0.0,0.0,0.0,0.0,0.0,0.0,0.0,0.0,0.0,0.0,0.0,0.0,0.0,0.0,0.0,0.0,0.0,0.0,0.0,0.0,0.0,0.0,0.0,0.0,0.0,0.0,0.0,0.0,0.0,0.0,0.0,0.0,0.0,0.0,0.0,0.0,0.0,0.0,0.0,0.0,0.0,0.0,0.0,0.0,0.0,0.0,0.0,0.0,0.0,0.0,0.0,0.0,0.0,0.0,0.0,0.0,0.0,0.0,0.0,0.0,0.0,0.0,0.0,0.0,0.0,0.0,0.0,0.0,0.0,0.0,0.0,0.0,0.0,0.0,0.0,0.0,0.0,0.0,0.0,0.0,0.0,0.0,0.0,0.0,0.0,0.0,0.0,0.0,0.0,0.0,0.0,0.0,0.0,0.0,0.0,0.0,0.0,0.0,0.0,0.0,0.0,0.0,0.0,0.0,0.0,0.0,0.0,0.0,0.0,0.0,0.0,0.0,0.0,0.0,0.0,0.0,0.0,0.0,0.0,0.0,0.0,0.0,0.0,0.0,0.0,0.0,0.0,0.0,0.0,0.0,0.0,0.0,0.0,0.0,0.0,0.0,0.0,0.0,0.0,0.0,0.0,0.0,0.0,0.0,0.0,0.0,0.0,0.0,0.0,0.0,0.0,0.0,0.0,0.0,0.0,0.0,0.0,0.0,0.0,0.0,0.0,0.0,0.0,0.0,0.0,0.0,0.0,0.0,0.0,0.0,0.0,0.0,0.0,0.0,0.0,0.0,0.0,0.0,0.0,0.0,0.0,0.0,0.0,0.0,0.0,0.0,0.0,0.0,0.0,0.0,0.0,0.0,0.0,0.0,0.0,0.0,0.0,0.0,0.0,0.0,0.0,0.0,0.0,0.0,0.0,0.0,0.0,0.0,0.0,0.0,0.0,0.0,0.0,0.0,0.0,0.0,0.0,0.0,0.0,0.0,0.0,0.0,0.0,0.0,0.0,0.0,0.0,0.0,0.0,0.0,0.0,0.0,0.0,0.0,0.0,0.0,0.0,0.0,0.0,0.0,0.0,0.0,0.0,0.0,0.0,0.0,0.0,0.0,0.0,0.0,0.0,0.0,0.0,0.0,0.0,0.0,0.0,0.0,0.0,0.0,0.0,0.0,0.0,0.0,0.0,0.0,0.0,0.0,0.0,0.0,0.0,0.0,0.0,0.0,0.0,0.0,0.0,0.0,0.0,0.0,0.0,0.0,0.0,0.0,0.0,0.0,0.0,0.0,0.0,0.0,0.0,0.0,0.0,0.0,0.0,0.0,0.0,0.0,0.0,0.0,0.0,0.0,0.0,0.0,0.0,0.0,0.0,0.0,0.0,0.0,0.0,0.0,0.0,0.0,0.0,0.0,0.0,0.0,0.0,0.0,0.0,0.0,0.0,0.0,0.0,0.0,0.0,0.0,0.0,0.0,0.0,0.0,0.0,0.0,0.0,0.0,0.0,0.0,0.0,0.0,0.0,0.0,0.0,0.0,0.0,0.0,0.0,0.0,0.0,0.0,0.0,0.0,0.0,0.0,0.0,0.0,0.0,0.0,0.0,0.0,0.0,0.0,0.0,0.0,0.0,0.0,0.0,0.0,0.0,0.0,0.0,0.0,0.0,0.0,0.0,0.0,0.0,0.0,0.0,0.0,0.0,0.0,0.0,0.0,0.0,0.0,0.0,0.0,0.0,0.0,0.0,0.0,0.0,0.0,0.0,0.0,0.0,0.0,0.0,0.0,0.0,0.0,0.0,0.0,0.0,0.0,0.0,0.0,0.0,0.0,0.0,0.0,0.0,0.0,0.0,0.0,0.0,0.0,0.0,0.0,0.0,0.0,0.0,0.0,0.0,0.0,0.0,0.0,0.0,0.0,0.0,0.0,0.0,0.0,0.0,0.0,0.0,0.0,0.0,0.0,0.0,0.0,0.0,0.0,0.0,0.0,0.0,0.0,0.0,0.0,0.0,0.0,0.0,0.0,0.0,0.0,0.0,0.0,0.0,0.0,0.0,0.0,0.0,0.0,0.0,0.0,0.0,0.0,0.0,0.0,0.0,0.0,0.0,0.0,0.0,0.0,0.0,0.0,0.0,0.0,0.0,0.0,0.0,0.0,0.0,0.0,0.0,0.0,0.0,0.0,0.0,0.0,0.0,0.0,0.0,0.0,0.0,0.0,0.0,0.0,0.0,0.0,0.0,0.0,0.0,0.0,0.0,0.0,0.0,0.0,0.0,0.0,0.0,0.0,0.0,0.0,0.0,0.0,0.0,0.0,0.0,0.0,0.0,0.0,0.0,0.0,0.0,0.0,0.0,0.0,0.0,0.0,0.0,0.0,0.0,0.0,0.0,0.0,0.0,0.0,0.0,0.0,0.0,0.0,0.0,0.0,0.0,0.0,0.0,0.0,0.0,0.0,0.0,0.0,0.0,0.0,0.0,0.0,0.0,0.0,0.0,0.0,0.0,0.0,0.0,0.0,0.0,0.0,0.0,0.0,0.0,0.0,0.0,0.0,0.0,0.0,0.0,0.0,0.0,0.0,0.0,0.0,0.0,0.0,0.0,0.0,0.0,0.0,0.0,0.0,0.0,0.0,0.0,0.0,0.0,0.0,0.0,0.0,0.0,0.0,0.0,0.0,0.0,0.0,0.0,0.0,0.0,0.0,0.0,0.0,0.0,0.0,0.0,0.0,0.0,0.0,0.0,0.0,0.0,0.0,0.0,0.0,0.0,0.0,0.0,0.0,0.0,0.0,0.0,0.0,0.0,0.0,0.0,0.0,0.0,0.0,0.0,0.0,0.0,0.0,0.0,0.0,0.0,0.0,0.0,0.0,0.0,0.0,0.0,0.0,0.0,0.0,0.0,0.0,0.0,0.0,0.0,0.0,0.0,0.0,0.0,0.0,0.0,0.0,0.0,0.0,0.0,0.0,0.0,0.0,0.0,0.0,0.0,0.0,0.0,0.0,0.0,0.0,0.0,0.0,0.0,0.0,0.0,0.0,0.0,0.0,0.0,0.0,0.0,0.0,0.0,0.0,0.0,0.0,0.0,0.0,0.0,0.0,0.0,0.0,0.0,0.0,0.0,0.0,0.0,0.0,0.0,0.0,0.0,0.0,0.0,0.0,0.0,0.0,0.0,0.0,0.0,0.0,0.0,0.0,0.0,0.0,0.0,0.0,0.0,0.0,0.0,0.0,0.0,0.0,0.0,0.0,0.0,0.0,0.0,0.0,0.0,0.0,0.0,0.0,0.0,0.0,0.0,0.0,0.0,0.0,0.0,0.0,0.0,0.0,0.0,0.0,0.0,0.0,0.0,0.0,0.0,0.0,0.0,0.0,0.0,0.0,0.0,0.0,0.0,0.0,0.0,0.0,0.0,0.0,0.0,0.0,0.0,0.0,0.0,0.0,0.0,0.0,0.0,0.0,0.0,0.0,0.0,0.0,0.0,0.0,0.0,0.0,0.0,0.0,0.0,0.0,0.0,0.0,0.0,0.0,0.0,0.0,0.0,0.0,0.0,0.0,0.0,0.0,0.0,0.0,0.0,0.0,0.0,0.0,0.0,0.0,0.0,0.0,0.0,0.0,0.0,0.0,0.0,0.0,0.0,0.0,0.0,0.0,0.0,0.0,0.0,0.0,0.0,0.0,0.0,0.0,0.0,0.0,0.0,0.0,0.0,0.0,0.0,0.0,0.0,0.0,0.0,0.0,0.0,0.0,0.0,0.0,0.0,0.0,0.0,0.0,0.0,0.0,0.0,0.0,0.0,0.0,0.0,0.0,0.0,0.0,0.0,0.0,0.0,0.0,0.0,0.0,0.0,0.0,0.0,0.0,0.0,0.0,0.0,0.0,0.0,0.0,0.0,0.0,0.0,0.0,0.0,0.0,0.0,0.0,0.0,0.0,0.0,0.0,0.0,0.0,0.0,0.0,0.0,0.0,0.0,0.0,0.0,0.0,0.0,0.0,0.0,0.0,0.0,0.0,0.0,0.0,0.0,0.0,0.0,0.0,0.0,0.0,0.0,0.0,0.0,0.0,0.0,0.0,0.0,0.0,0.0,0.0,0.0,0.0,0.0,0.0,0.0,0.0,0.0,4.0624,4.0589,0.0,0.0,0.0,0.0,0.0,0.0,0.0,0.0,0.0,0.0,0.0,0.0,0.0,0.0,0.0,0.0,0.0,0.0,0.0,0.0,0.0,0.0,0.0,0.0,0.0,0.0,0.0,0.0,0.0,0.0,0.0,0.0,0.0,0.0,0.0,0.0,0.0,0.0,3.5579,3.5517,3.5453,3.5453,3.5432,3.5409,0.0,0.0,0.0,0.0,0.0,0.0,0.0,0.0,0.0,0.0,0.0,0.0,0.0,0.0,0.0,0.0,0.0,0.0,0.0,0.0,0.0,0.0,0.0,0.0,0.0,0.0,0.0,0.0,0.0,0.0,0.0,0.0,0.0,0.0,0.0,0.0,0.0,0.0,0.0,0.0,0.0,0.0,0.0,0.0,0.0,0.0,0.0,0.0,0.0,0.0,0.0,0.0,0.0,0.0,0.0,0.0,0.0,0.0,0.0,0.0,0.0,0.0,0.0,0.0,0.0,0.0,0.0,0.0,0.0,0.0,4.0594,4.058,0.0,0.0,0.0,0.0,0.0,0.0,0.0,0.0,0.0,0.0,0.0,0.0,0.0,0.0,0.0,0.0,0.0,0.0,0.0,0.0,0.0,0.0,0.0,0.0,0.0,0.0,0.0,0.0,0.0,0.0,0.0,0.0,0.0,0.0,0.0,0.0,0.0,3.5575,3.5502,3.5421,3.5357,3.5316,3.5278,3.5278,3.53,0.0,0.0,0.0,0.0,0.0,0.0,0.0,0.0,0.0,0.0,0.0,0.0,0.0,0.0,0.0,0.0,0.0,0.0,0.0,0.0,0.0,0.0,0.0,0.0,0.0,0.0,0.0,0.0,0.0,0.0,0.0,0.0,0.0,0.0,0.0,0.0,0.0,0.0,0.0,0.0,0.0,0.0,0.0,0.0,0.0,0.0,0.0,0.0,0.0,0.0,0.0,0.0,0.0,0.0,0.0,0.0,0.0,0.0,0.0,0.0,0.0,0.0,0.0,4.0477,4.0502,4.0506,4.0562,4.0542,4.0496,4.0565,4.0588,4.055,4.0504,0.0,0.0,0.0,0.0,0.0,0.0,0.0,0.0,0.0,0.0,0.0,0.0,0.0,0.0,0.0,0.0,0.0,0.0,0.0,0.0,0.0,0.0,3.5698,3.5705,3.5707,3.5701,0.0,0.0,0.0,0.0,0.0,0.0,0.0,3.5676,3.5588,3.5504,3.5381,3.5285,3.523,3.5227,3.5206,3.521,3.5262,3.5293,3.5327,0.0,0.0,0.0,0.0,0.0,0.0,0.0,0.0,0.0,0.0,0.0,0.0,0.0,0.0,0.0,0.0,0.0,0.0,0.0,0.0,0.0,0.0,0.0,0.0,0.0,0.0,0.0,0.0,0.0,0.0,0.0,0.0,0.0,0.0,0.0,0.0,0.0,0.0,0.0,0.0,0.0,3.6006,3.6768,0.0,0.0,0.0,0.0,0.0,0.0,0.0,0.0,0.0,0.0,0.0,0.0,0.0,4.0468,4.0466,4.047,4.0453,4.0407,4.0477,4.0502,4.0506,4.0519,4.0519,4.0496,4.05,0.0,4.0432,4.0428,0.0,0.0,0.0,0.0,0.0,0.0,0.0,0.0,0.0,0.0,0.0,0.0,0.0,0.0,0.0,0.0,0.0,0.0,0.0,0.0,0.0,3.5673,3.5648,3.564,3.5646,3.5637,3.5642,0.0,0.0,0.0,0.0,0.0,3.5681,3.5599,3.5464,3.5281,3.5246,3.5227,3.521,3.5196,3.517,3.5147,3.5212,3.5218,3.5182,3.5262,0.0,0.0,0.0,0.0,0.0,0.0,0.0,0.0,0.0,0.0,0.0,0.0,0.0,0.0,0.0,0.0,0.0,0.0,0.0,0.0,0.0,0.0,0.0,0.0,0.0,0.0,0.0,0.0,0.0,0.0,0.0,0.0,0.0,0.0,0.0,0.0,0.0,0.0,0.0,3.6297,3.681,3.7259,3.7409,3.7669,0.0,0.0,0.0,0.0,0.0,0.0,0.0,0.0,0.0,4.0432,4.0479,4.0503,4.0502,4.0491,4.0491,4.0452,4.0495,4.0503,4.0503,4.0499,4.0495,4.0495,4.0467,4.0417,4.0357,4.0428,4.0398,4.0294,0.0,0.0,0.0,0.0,4.0372,4.0332,0.0,0.0,0.0,0.0,0.0,0.0,0.0,0.0,0.0,0.0,0.0,0.0,3.5676,3.5629,3.5586,3.5552,3.5557,3.5557,3.5544,3.5565,0.0,0.0,0.0,3.5636,3.5588,3.5496,3.5327,3.5066,3.5136,3.5164,3.5164,3.5179,3.5276,3.5434,3.5466,3.5337,3.507,3.5145,3.5209,3.5265,0.0,0.0,0.0,0.0,0.0,0.0,0.0,0.0,0.0,0.0,0.0,0.0,0.0,0.0,0.0,0.0,0.0,0.0,0.0,0.0,0.0,0.0,0.0,0.0,0.0,0.0,0.0,0.0,0.0,0.0,0.0,0.0,0.0,0.0,0.0,0.0,0.0,3.7448,3.768,3.8002,3.817,3.8518,0.0,0.0,0.0,0.0,0.0,0.0,4.0426,4.0426,4.0422,4.0428,4.0462,4.0497,4.0466,4.046,4.048,4.048,4.048,4.048,4.0476,4.0463,4.0466,4.0462,4.0392,4.0348,4.0274,4.0396,4.0383,4.0289,4.0353,4.0341,4.0291,4.0345,4.0318,4.0272,0.0,0.0,0.0,0.0,0.0,0.0,0.0,0.0,0.0,0.0,0.0,3.5676,3.5609,3.5599,3.5557,3.5412,3.5402,3.5416,3.54,3.5476,3.5512,3.551,3.5575,3.5575,3.5504,3.5386,3.5216,3.5011,3.5075,3.5116,3.5116,3.512,3.5538,3.6331,3.6264,3.5789,3.5015,3.5085,3.5105,3.5117,3.5242,0.0,0.0,0.0,0.0,0.0,0.0,0.0,0.0,0.0,0.0,0.0,0.0,0.0,0.0,0.0,0.0,0.0,0.0,0.0,0.0,0.0,0.0,0.0,0.0,0.0,0.0,0.0,0.0,0.0,0.0,0.0,0.0,0.0,0.0,0.0,0.0,0.0,0.0,3.9686,3.9944,0.0,0.0,0.0,0.0,4.0466,4.0493,4.0499,4.0485,4.0489,4.0488,4.0482,4.0502,4.0462,4.0411,4.0411,4.0415,4.0415,4.0415,4.0415,4.0415,4.0411,4.0411,4.0407,4.0329,4.028,4.0215,4.027,4.0299,4.0296,4.0308,4.0294,4.0287,4.0229,4.0201,4.0196,0.0,0.0,0.0,0.0,0.0,0.0,0.0,0.0,0.0,3.6574,3.646,3.6247,3.5654,3.5483,3.5374,3.5285,3.5192,3.5175,3.5269,3.5289,3.5343,3.5432,3.546,3.5388,3.517,3.5122,3.5042,3.4946,3.5562,3.5865,3.5884,3.6449,3.6853,3.71,3.7086,3.6886,3.6553,3.6621,3.6625,3.6597,3.6731,3.6392,0.0,0.0,0.0,0.0,0.0,0.0,0.0,0.0,0.0,0.0,0.0,0.0,0.0,0.0,0.0,0.0,0.0,0.0,0.0,0.0,0.0,0.0,0.0,0.0,0.0,0.0,0.0,0.0,0.0,0.0,0.0,0.0,0.0,0.0,0.0,0.0,0.0,3.9921,4.0143,0.0,4.0302,4.0329,4.0379,4.0432,4.0437,4.0441,4.0443,4.0443,4.0434,4.0437,4.0437,4.0424,4.0407,4.0407,4.0407,4.0407,4.0407,4.0375,4.0329,4.0293,4.0262,4.0272,4.0201,4.0162,4.0186,4.0715,4.0639,4.0166,4.0167,4.0486,4.0943,4.0924,4.1256,4.1731,0.0,0.0,0.0,0.0,0.0,0.0,0.0,0.0,0.0,3.7394,3.7019,3.6591,3.5977,3.5507,3.5195,3.5066,3.4975,3.4963,3.5069,3.5105,3.5164,3.5258,3.5266,3.517,3.4944,3.523,3.5343,3.5273,3.6196,3.6643,3.6682,3.7286,3.7699,3.7932,3.7936,3.8048,3.8243,3.8243,3.7895,3.7348,3.7436,3.7089,3.6542,0.0,0.0,0.0,0.0,0.0,0.0,0.0,0.0,0.0,0.0,0.0,0.0,0.0,0.0,0.0,0.0,0.0,0.0,0.0,0.0,0.0,0.0,0.0,0.0,0.0,0.0,0.0,0.0,0.0,0.0,0.0,0.0,0.0,0.0,3.9701,3.9865,3.9914,4.0118,4.0239,4.0257,4.0317,4.032,4.032,4.032,4.032,4.032,4.032,4.0335,4.0341,4.0341,4.0313,4.029,4.029,4.029,4.029,4.0577,4.0673,4.0645,4.0893,4.1011,4.1,4.0944,4.0918,4.0956,4.1467,4.135,4.084,4.0923,4.1267,4.1737,4.1702,4.2061,4.2533,0.0,0.0,0.0,0.0,0.0,0.0,0.0,0.0,3.9098,3.8157,3.731,3.6703,3.651,3.5666,3.5032,3.4803,3.4783,3.4782,3.4793,3.4912,3.4992,3.4997,3.5016,3.4965,3.4826,3.5685,3.6108,3.6036,3.6906,3.7375,3.7446,3.7531,3.8017,3.8817,3.8829,3.9228,3.9878,3.9734,3.8733,3.7246,3.7259,3.7254,3.7232,0.0,0.0,0.0,0.0,0.0,0.0,0.0,0.0,0.0,0.0,0.0,0.0,0.0,0.0,0.0,0.0,0.0,0.0,0.0,0.0,0.0,0.0,0.0,0.0,0.0,0.0,0.0,0.0,0.0,0.0,0.0,0.0,0.0,3.9489,3.9613,3.9717,3.9792,3.9965,4.0127,4.0186,4.0191,4.0201,4.0201,4.0201,4.0201,4.0201,4.0201,4.022,4.0234,4.0234,4.0224,4.0183,4.0183,4.0183,4.0183,4.0982,4.1338,4.1352,4.2208,4.2588,4.2583,4.2514,4.2492,4.2492,4.2449,4.2398,4.2356,4.2522,4.2607,4.2615,4.2552,4.2509,4.2453,0.0,0.0,0.0,0.0,0.0,0.0,0.0,4.0262,3.9929,3.8999,3.8534,3.78,3.6497,3.5951,3.5397,3.47,3.4564,3.4542,3.465,3.4734,3.48,3.4859,3.5416,3.5661,3.5531,3.6386,3.6836,3.6873,3.7745,3.8174,3.821,3.8806,3.9192,3.9377,3.9325,3.9392,3.9539,3.9344,3.8912,3.8385,3.8671,3.839,3.7785,0.0,0.0,0.0,0.0,0.0,0.0,0.0,0.0,0.0,0.0,0.0,0.0,0.0,0.0,0.0,0.0,0.0,0.0,0.0,0.0,0.0,0.0,0.0,0.0,0.0,0.0,0.0,0.0,0.0,0.0,0.0,3.9355,3.9341,3.9533,3.9564,3.9599,3.9712,3.9867,3.9975,4.0057,4.0103,4.0133,4.0133,4.0133,4.0133,4.0133,4.0133,4.0389,4.0988,4.1002,4.1283,4.1914,4.1914,4.1914,4.1914,4.2137,4.2189,4.2111,4.2358,4.2401,4.2307,4.2289,4.2283,4.232,4.295,4.3196,4.3114,4.2588,4.2733,4.3258,4.3221,4.3586,4.4071,0.0,0.0,0.0,0.0,0.0,0.0,0.0,4.0535,4.0283,3.9619,3.9075,3.8311,3.7229,3.6278,3.5502,3.4934,3.4539,3.4334,3.4399,3.4456,3.4678,3.5112,3.5578,3.5976,3.6242,3.709,3.7545,3.7576,3.8449,3.8873,3.8892,3.9356,3.9551,3.9471,3.9401,3.9286,3.9139,3.8959,3.8763,3.8571,3.8708,3.8548,3.8214,3.8278,3.8042,3.7653,3.7689,3.8,3.8396,3.8368,0.0,0.0,0.0,0.0,0.0,0.0,0.0,0.0,0.0,0.0,0.0,0.0,0.0,0.0,0.0,0.0,0.0,0.0,0.0,0.0,0.0,0.0,0.0,0.0,3.9176,3.9175,3.947,3.9508,3.9545,3.9648,3.9747,3.9843,3.9949,3.998,4.0172,4.0533,4.0552,4.0704,4.1046,4.1038,4.1249,4.1705,4.1696,4.1912,4.2424,4.2424,4.2424,4.2443,4.2755,4.2847,4.2756,4.3108,4.3221,4.3079,4.3143,4.315,4.3206,4.3702,4.3916,0.0,0.0,0.0,0.0,0.0,4.4217,4.4599,0.0,0.0,0.0,0.0,0.0,0.0,0.0,4.0427,4.0288,4.0032,3.9201,3.852,3.8227,3.6727,3.5646,3.5332,3.4705,3.4266,3.4105,3.4253,3.4692,3.5539,3.5752,3.6218,3.6976,3.7797,3.8207,3.8214,3.8994,3.9363,3.9363,3.9344,3.9298,3.9225,3.9131,3.8944,3.8681,3.8556,3.837,3.8117,3.7911,3.8074,3.8428,3.8496,3.8548,3.8617,3.8663,3.8651,3.8602,3.8602,0.0,0.0,0.0,0.0,0.0,0.0,0.0,0.0,0.0,0.0,0.0,0.0,0.0,0.0,0.0,0.0,0.0,0.0,0.0,0.0,0.0,0.0,0.0,0.0,3.913,3.9156,3.9586,3.9705,3.9745,3.9738,3.988,4.0019,4.0151,4.0162,4.0484,4.1247,4.1304,4.1626,4.2346,4.2325,0.0,0.0,0.0,4.2366,4.2461,4.2435,4.2435,4.2479,4.3112,4.3391,4.3342,4.4104,4.4407,4.4275,4.44,4.444,4.4447,4.4458,4.444,4.4461,4.4619,4.4666,4.4646,4.4517,4.448,4.4466,0.0,0.0,0.0,0.0,0.0,0.0,0.0,4.032,4.0196,4.0089,3.9675,3.9068,3.8209,3.7661,3.679,3.5415,3.5163,3.4807,3.4136,3.476,3.5225,3.5341,3.6651,3.7448,3.7629,3.8408,3.885,3.8919,3.9082,3.9163,3.9144,3.9001,3.8854,3.8722,3.8509,3.8259,3.808,3.7939,3.7809,3.7694,3.7568,3.7676,3.7948,3.7948,3.7965,3.7982,3.7981,3.7981,3.7982,3.7982,3.8006,3.8029,3.8046,3.8162,0.0,0.0,0.0,0.0,0.0,0.0,0.0,0.0,0.0,0.0,0.0,0.0,0.0,0.0,0.0,0.0,0.0,0.0,0.0,3.971,3.976,4.003,4.0963,4.1209,4.1103,4.0622,4.1193,4.1669,4.1762,4.1762,4.1819,4.1995,4.2013,4.207,4.2221,4.2228,4.2492,4.31,4.3042,4.3347,4.4054,4.3949,4.3949,4.4054,4.419,0.0,4.4011,4.418,4.4218,4.4136,4.4102,4.4136,4.4177,4.4128,4.4136,4.4199,4.4378,4.4418,4.4361,4.4351,4.4336,4.4322,0.0,0.0,0.0,0.0,0.0,0.0,0.0,4.0257,4.0133,3.997,3.9724,3.9314,3.8666,3.8115,3.744,3.6535,3.565,3.4981,3.4579,3.4956,3.5566,3.6403,3.726,3.7902,3.8344,3.8739,3.8964,3.9007,3.8971,3.8917,3.884,3.8602,3.8381,3.8188,3.7954,3.7711,3.7496,3.7384,3.7298,3.7193,3.7095,3.7126,3.7271,3.7467,3.755,3.755,3.755,3.755,3.7541,3.7468,3.7477,3.7505,3.7505,3.7578,3.7685,0.0,0.0,0.0,0.0,0.0,0.0,0.0,0.0,0.0,0.0,0.0,0.0,0.0,0.0,3.8843,3.9351,0.0,3.9578,4.0105,4.023,4.0475,4.1164,4.1711,4.1876,4.14,4.1794,4.214,4.219,4.2197,4.2391,4.2825,4.2844,4.3039,4.3435,4.3383,4.3505,4.3832,4.3727,4.3836,4.424,4.4192,4.4192,4.424,4.4222,4.4079,4.3894,4.3894,4.3865,4.3804,4.3804,4.3862,4.3961,4.3961,4.3961,4.395,4.4101,4.4207,4.4285,4.4184,4.4154,4.4131,0.0,0.0,0.0,0.0,0.0,0.0,0.0,0.0,4.0082,3.9843,3.9653,3.9446,3.9197,3.8513,3.7951,3.7635,3.6141,3.5207,3.5193,3.534,3.6054,3.7456,3.7676,3.8074,3.8785,3.8803,3.8796,3.8773,3.8739,3.8629,3.8476,3.8218,3.7939,3.7658,3.7432,3.717,3.6935,3.6891,3.6801,3.669,3.6636,3.6623,3.6664,3.6987,3.7143,3.7172,3.7172,3.7172,3.7163,3.7058,3.7021,3.7021,3.7021,3.7021,3.706,3.7234,3.7426,0.0,0.0,0.0,0.0,0.0,0.0,0.0,0.0,3.7672,3.7937,3.8683,3.8948,3.9249,3.9934,4.0153,4.031,4.0519,4.0664,4.0888,4.1318,4.2109,4.2527,4.2274,4.2388,4.2527,4.2604,4.261,4.2899,4.3602,4.3659,4.3948,4.4588,4.4496,4.439,4.4325,4.4117,4.3986,4.3958,4.3918,4.3918,4.395,4.3905,4.3773,4.3605,4.3605,4.3555,4.3496,4.3512,4.3565,4.3635,4.3709,4.3736,4.3711,4.3783,4.3976,4.4188,4.4023,4.395,4.3953,0.0,0.0,0.0,0.0,0.0,0.0,0.0,0.0,0.0,3.99,3.9775,3.9605,3.9382,3.923,3.8728,3.7687,3.6619,3.5956,3.5892,3.6548,3.7038,3.7236,3.7938,3.8365,3.8454,3.8454,3.8425,3.8372,3.8364,3.8264,3.806,3.7783,3.7495,3.7158,3.6846,3.6584,3.6395,3.6385,3.6374,3.6353,3.6343,3.6343,3.6343,3.6395,3.6547,3.6773,3.6773,3.6773,3.6755,3.6745,3.6735,3.6735,3.6735,3.6735,3.6766,3.6831,3.7379,3.7792,3.7074,3.6839,3.6943,3.7582,3.7728,3.792,0.0,3.8814,3.8986,3.9263,3.9424,3.9599,3.9865,3.9922,4.0203,4.0981,4.1223,4.1647,4.2641,4.312,4.3416,4.3486,4.3712,4.3931,4.4056,4.4063,4.4101,4.4194,4.4213,4.425,4.4351,4.4225,4.4109,4.4051,4.3795,4.3716,4.3829,4.3642,4.3642,4.3829,4.382,4.3736,4.3599,4.3599,4.3556,4.3479,4.3313,4.3151,4.3013,4.3142,4.326,4.3374,4.3496,4.3667,4.3853,4.3837,4.3829,4.3829,0.0,0.0,0.0,0.0,0.0,0.0,0.0,0.0,0.0,0.0,3.9815,3.9682,3.9483,3.9252,3.8716,3.7698,3.7118,3.674,3.6654,3.6955,3.7321,3.7719,3.8046,3.8236,3.8236,3.8195,3.8119,3.8009,3.7854,3.7667,3.7468,3.7158,3.6876,3.6642,3.6454,3.6276,3.6137,3.6137,3.6137,3.6137,3.6137,3.6137,3.6137,3.6137,3.6202,3.6304,3.643,3.6471,0.0,3.6409,3.6405,3.6395,3.6314,3.6592,3.6943,3.6969,3.7569,3.817,3.7867,3.7823,3.7942,3.8254,3.8384,3.8525,3.8827,3.8929,3.9151,3.9684,3.9854,4.0059,4.0566,4.0718,4.0927,4.1354,4.1647,4.2028,4.2675,4.2985,4.325,4.3538,4.3681,4.3844,4.409,4.4131,4.4131,4.4131,4.4131,4.4131,4.4131,4.4028,4.3942,4.3891,4.3699,4.3607,4.3635,4.354,4.354,4.3617,4.3594,4.3498,4.3357,4.3259,4.316,4.3087,4.3041,4.3013,4.303,4.3086,4.3196,4.3366,4.3429,4.3524,4.3625,4.3678,4.3676,4.3667,0.0,0.0,0.0,0.0,0.0,0.0,0.0,0.0,0.0,0.0,0.0,3.9706,3.9496,3.919,3.8706,3.7941,3.7703,3.7525,3.736,3.7352,3.7565,3.8025,3.8018,3.7983,3.7983,3.7879,3.7756,3.7613,3.7376,3.7131,3.6866,3.6594,3.6336,3.6099,3.6019,3.5927,3.5817,3.5817,3.5817,3.5817,3.5817,3.5817,3.5817,3.5817,3.5817,3.5833,3.6127,3.6216,3.6206,3.6165,3.6266,3.6377,3.6272,3.6734,3.7297,3.7348,3.7815,3.8391,3.8677,3.8665,3.8623,3.8841,3.8966,3.9091,3.9282,3.9334,3.9518,4.0141,4.0273,4.0441,4.1019,4.1232,4.1369,4.1509,4.1827,4.2166,4.2492,4.2757,4.3022,4.3375,4.3454,4.3583,4.3838,4.3902,4.3934,4.3934,4.3934,4.3934,4.3934,4.3865,4.381,4.3744,4.3609,4.3532,4.3506,4.348,4.348,4.3506,4.3429,4.3349,4.3242,4.3013,4.2834,4.2754,4.2775,4.2823,4.2879,4.2936,4.3068,4.3233,4.3305,4.3358,4.3418,4.347,4.3505,4.354,0.0,0.0,0.0,0.0,0.0,0.0,0.0,0.0,0.0,0.0,0.0,0.0,0.0,3.9156,3.8881,3.8586,3.8449,3.8249,3.799,3.7965,3.7958,3.7908,3.7775,3.7712,3.7712,3.7523,3.7328,3.711,3.6986,3.6719,3.6322,3.6188,3.5941,3.5622,3.5481,3.5384,3.5314,3.5314,3.5314,3.5314,3.5314,3.5314,3.5314,3.5314,3.5314,3.5383,3.5833,3.6008,3.6008,3.6008,3.6387,3.6871,3.6871,3.7294,3.7804,3.7939,3.808,3.8384,3.9159,3.8818,3.8396,3.9176,3.9376,3.9564,4.0283,4.0449,4.049,4.065,4.0674,4.074,4.0883,4.1018,4.1169,4.1368,4.169,4.2012,4.2353,4.2691,4.2985,4.3178,4.3323,4.3429,4.3515,4.3694,4.3804,4.3804,4.3804,4.3804,4.3804,4.3676,4.3607,4.3599,4.3481,4.3437,4.3506,4.3437,4.3437,4.3506,4.3429,4.3403,4.3385,4.305,4.2796,4.2599,4.2536,4.2445,4.2338,4.254,4.2706,4.2832,4.3039,4.3151,4.3205,4.3205,4.3286,4.3394,0.0,0.0,0.0,0.0,0.0,0.0,0.0,0.0,0.0,0.0,0.0,0.0,0.0,0.0,0.0,0.0,3.8454,3.8279,3.7951,3.7925,3.7863,3.7712,3.7577,3.7485,3.7447,3.7147,3.6893,3.671,3.6343,3.6006,3.5689,3.5526,3.5338,3.513,3.5083,3.5065,3.5029,3.5029,3.5093,3.5175,3.5175,3.5222,3.5291,3.5291,3.5291,3.5381,0.0,3.6273,3.6273,3.6273,3.6727,3.7302,3.7302,3.7782,3.843,3.8967,3.9152,3.9252,3.9535,3.9467,3.9406,3.9772,3.9926,4.0097,4.0417,4.051,4.0522,4.0558,4.0571,4.0583,4.0631,4.0667,4.0799,4.1157,4.1408,4.1723,4.2145,4.245,4.2706,4.2918,4.3022,4.3114,4.3224,4.3464,4.3584,4.3543,4.3543,4.349,4.3402,4.3366,4.333,4.333,4.3295,4.3277,4.3295,4.3277,4.3277,4.3304,4.3133,4.3003,4.2861,4.2706,4.2548,4.2399,4.2465,4.2496,4.251,4.2676,4.2832,4.3011,4.3077,4.3142,4.3178,4.3151,4.3151,4.3205,0.0,0.0,0.0,0.0,0.0,0.0,0.0,0.0,0.0,0.0,0.0,0.0,0.0,0.0,0.0,0.0,0.0,3.8262,3.7916,3.7864,3.773,3.7503,3.7355,3.7269,3.7192,3.6908,3.6636,3.6388,3.6047,3.5689,3.5361,3.5228,3.5041,3.4828,3.4828,3.4804,3.4751,3.4751,3.4816,3.4887,3.4947,3.5006,3.5088,3.5152,3.533,0.0,3.6085,3.6602,3.7019,3.685,3.7251,3.7816,3.7816,3.8329,3.9014,3.9495,3.9651,3.9703,3.9703,3.9755,3.9845,3.9948,4.0024,4.0113,4.0184,4.0209,4.0209,4.0209,4.0246,4.0288,4.0288,4.0362,4.0546,4.093,4.1226,4.1552,4.204,4.2297,4.2556,4.2764,4.2833,4.2928,4.3086,4.3515,4.366,4.335,4.3578,4.3716,4.3625,4.3898,4.4053,4.4053,4.4053,4.4053,4.4053,4.4053,4.4044,4.4016,4.3603,4.3287,4.309,4.2761,4.2528,4.2409,4.2498,4.2558,4.2609,4.2745,4.2888,4.3002,4.3021,4.305,4.3087,4.304,4.303,4.3022,0.0,0.0,0.0,0.0,0.0,0.0,0.0,0.0,0.0,0.0,0.0,0.0,0.0,0.0,0.0,0.0,0.0,0.0,3.7997,3.7793,3.7595,3.7386,3.7237,3.713,3.705,3.6901,3.6624,3.6245,3.6109,3.5796,3.5291,3.5291,3.5076,3.4691,3.4691,3.4618,3.4497,3.4497,3.4497,3.4509,3.4643,3.472,3.4727,3.4851,3.5358,3.6009,3.6042,3.6973,3.8125,3.7682,3.7941,3.8452,3.8452,3.8935,3.9488,3.9488,3.9577,3.9677,3.9677,3.9677,3.9677,3.969,3.969,3.969,3.9703,3.9703,3.9703,3.9703,3.9794,3.9888,3.9888,4.0104,4.037,4.0724,4.1111,4.1507,4.2009,4.2249,4.2472,4.2735,4.2764,4.2859,4.3112,4.384,4.4014,4.3369,4.4025,4.4445,4.4463,4.5164,4.5573,4.5564,4.5564,4.5564,4.5572,4.5564,4.5553,4.5485,4.4704,4.4253,4.4038,4.3253,4.2833,4.2707,4.2681,4.2663,4.2673,4.2772,4.2803,4.2812,4.2872,4.2892,4.2892,4.2892,4.2892,4.2892,0.0,0.0,0.0,0.0,0.0,0.0,0.0,0.0,0.0,0.0,0.0,0.0,0.0,0.0,0.0,0.0,0.0,0.0,3.8859,3.8133,3.7872,3.8244,3.8078,3.7908,3.7751,3.809,3.781,3.6863,3.669,3.6151,3.5291,3.5198,3.4982,3.4691,3.4691,3.457,3.4362,3.446,3.4497,3.4509,3.4643,3.4828,3.4994,3.4935,3.5423,3.6197,3.6647,3.734,3.8048,3.8035,3.8489,3.907,3.907,3.9203,3.9352,3.9352,3.9379,3.9405,3.9405,3.9405,3.9432,3.9524,3.955,3.9577,3.9677,3.9703,3.9703,3.9703,3.9729,3.9755,3.9755,3.9807,3.9986,4.0358,4.0645,4.0995,4.1514,4.1795,4.203,4.2238,4.2369,4.2743,4.3536,4.3906,4.4265,4.4725,4.5039,4.5186,4.508,4.527,4.533,4.5222,4.5222,4.52,4.5155,4.52,4.5271,4.5349,4.5098,4.4937,4.4877,4.4579,4.442,4.4353,4.3869,4.3638,4.3602,4.3095,4.2872,4.2872,4.2882,4.2892,4.2892,4.2892,4.2892,4.2892,0.0,0.0,0.0,0.0,0.0,0.0,0.0,0.0,0.0,0.0,0.0,0.0,0.0,0.0,0.0,0.0,0.0,0.0,0.0,3.8456,3.8329,3.8509,3.8654,3.8634,3.8433,3.8669,3.8438,3.766,3.7229,3.6661,3.5987,3.5598,3.5251,3.4958,3.4899,3.4691,3.4399,3.4472,3.4472,0.0,0.0,3.4887,3.5018,3.5053,3.5578,3.6381,3.6979,3.773,3.8447,3.846,3.8777,3.9175,3.9272,3.9299,3.9299,3.9299,3.9299,3.9299,3.9299,3.9299,3.9312,3.9392,3.9405,3.9432,3.9511,3.952,3.952,3.952,3.9577,3.9616,3.9616,3.9651,3.982,4.015,4.0427,4.0795,4.1317,4.1681,4.197,4.2156,4.2577,4.3063,4.365,4.4422,4.5099,4.5645,4.5862,4.5912,4.5834,4.616,4.629,4.6158,4.6147,4.6144,4.6099,4.6126,4.6228,4.6359,4.5954,4.5761,4.5761,4.5338,4.5127,4.5101,4.4367,4.4035,4.3981,4.3217,4.2892,4.2892,4.2892,4.2892,4.2892,4.2892,4.2892,4.2892,0.0,0.0,0.0,0.0,0.0,0.0,0.0,0.0,0.0,0.0,0.0,0.0,0.0,0.0,0.0,0.0,0.0,0.0,0.0,0.0,0.0,3.8472,3.902,3.9231,3.9018,3.9085,3.8926,3.8557,3.7818,3.7267,3.6899,3.6168,3.565,3.536,3.5233,3.4958,3.4606,3.4606,3.4521,3.4436,3.4811,3.4982,3.5029,0.0,0.0,3.6549,3.719,3.8125,3.901,3.8873,3.8901,3.9023,3.9218,3.9272,3.9299,3.9299,3.9299,3.9299,3.9299,3.9299,3.9299,3.9299,3.9299,3.9299,3.9312,3.9325,3.9325,3.9352,3.9445,3.9528,3.9528,3.9629,3.9794,4.0062,4.0377,4.0772,4.1294,4.1692,4.203,4.2246,4.298,4.3557,4.3726,4.5119,4.6104,4.6331,4.6511,4.6615,4.6615,4.7267,4.7593,4.7457,4.7446,4.7446,4.7457,4.7457,4.7511,4.7646,4.6951,4.6618,4.66,4.5932,4.5617,4.5562,4.4639,4.4258,4.4186,4.3272,4.2892,4.2892,4.2892,4.2892,4.2892,4.2892,4.2892,4.291,0.0,0.0,0.0,0.0,0.0,0.0,0.0,0.0,0.0,0.0,3.9349,3.9156,0.0,0.0,0.0,0.0,0.0,0.0,0.0,0.0,0.0,0.0,3.929,3.9391,3.9082,4.0205,4.0331,3.9393,3.8591,3.7826,3.7041,3.6312,3.5883,3.5706,3.5566,3.5389,3.5163,3.5163,3.5076,3.4982,3.5223,3.5367,3.5487,0.0,0.0,0.0,3.7811,3.8605,3.9232,3.904,3.8983,3.901,3.9037,3.9161,3.9299,3.9299,3.9299,3.9299,3.9299,3.9299,3.9299,3.9299,3.9299,3.9325,3.9448,3.9475,3.9514,3.9599,3.9651,3.9664,3.9664,3.9677,3.9794,4.0062,4.0333,4.0698,4.1175,4.1487,4.178,4.2093,4.2846,4.3679,4.4514,4.5459,4.632,4.7057,4.7137,4.7158,4.7158,4.7284,4.732,4.7245,4.7145,4.7145,4.7245,4.7245,4.7283,4.7374,4.7345,4.7334,4.7316,4.7303,4.7272,4.72,4.5725,4.5091,4.4983,4.3507,4.2892,4.2892,4.2892,4.2892,4.2892,4.2892,4.2892,4.2882,0.0,0.0,0.0,0.0,0.0,0.0,0.0,4.0229,4.006,3.9849,3.9634,3.9414,3.9183,3.9156,0.0,0.0,0.0,0.0,0.0,0.0,0.0,0.0,0.0,0.0,3.9415,4.0382,4.0407,3.9392,0.0,3.8417,3.756,3.6775,3.6286,3.6062,3.5888,3.5633,3.5355,3.5314,3.5256,3.5222,3.5418,3.5588,0.0,0.0,0.0,0.0,3.7813,3.8605,3.9468,3.9199,3.9172,3.9242,3.9175,3.9215,3.9299,3.9299,3.9299,3.9299,3.9299,3.9299,3.9299,3.9299,3.9352,3.9422,3.9488,3.9619,3.972,3.9781,3.9858,3.991,3.991,3.9973,4.0075,4.0288,4.0626,4.0989,4.1363,4.1675,4.1945,4.2184,4.3237,4.4171,4.4653,4.579,4.6682,4.7113,4.7131,4.7187,4.7291,4.7283,4.7216,4.7207,4.7066,4.7066,4.7207,4.7207,4.7216,4.7291,4.7374,4.7396,4.7396,4.745,4.749,4.7399,4.5823,4.515,4.5074,4.3503,4.2862,4.2892,4.2892,4.2892,4.2892,4.2892,4.2881,4.2842,0.0,0.0,0.0,0.0,0.0,0.0,0.0,4.0417,4.0283,4.0101,3.9944,3.9734,3.9382,3.929,3.9224,0.0,0.0,0.0,0.0,0.0,0.0,0.0,0.0,0.0,0.0,0.0,0.0,3.9338,3.9208,0.0,0.0,0.0,0.0,0.0,3.6216,3.5948,3.5639,3.5583,3.5537,0.0,0.0,3.5877,0.0,0.0,0.0,0.0,0.0,3.8699,3.9833,3.9523,3.9517,3.9616,3.9537,3.9458,3.9392,3.9392,3.9392,3.9392,3.9392,3.9392,3.9392,3.9392,3.9484,3.959,3.9655,3.9875,4.0075,4.0125,4.0234,4.0345,4.0345,4.0419,4.0546,4.0674,4.1024,4.1368,4.1637,4.1913,4.2216,4.2509,4.3768,4.4667,4.4846,4.6159,4.7009,4.7009,4.7009,4.707,4.7232,4.7201,4.7163,4.7163,4.7054,4.7054,4.7163,4.7163,4.7172,4.7243,4.7265,4.7276,4.7276,4.728,4.7201,4.6996,4.5594,4.4926,4.471,4.3361,4.2823,4.2881,4.2881,4.2881,4.2881,4.2853,4.2796,4.2754,0.0,0.0,0.0,0.0,0.0,0.0,0.0,4.0534,4.0429,4.0288,4.0158,4.0006,3.9846,3.9563,3.9388,0.0,0.0,0.0,0.0,0.0,0.0,0.0,0.0,0.0,0.0,0.0,0.0,3.9734,3.9024,0.0,0.0,0.0,0.0,0.0,0.0,3.6489,3.6409,3.6381,0.0,0.0,0.0,0.0,0.0,0.0,0.0,0.0,0.0,3.9328,4.0395,4.0251,4.0125,4.0058,4.0163,3.9961,3.9664,3.9664,3.9664,3.9664,3.9664,3.9664,3.9664,3.9664,3.9755,3.9926,4.018,4.0395,4.0604,4.0848,4.1013,4.1105,4.1105,4.1117,4.1163,4.13,4.1464,4.1648,4.1831,4.2009,4.2419,4.3283,4.4114,4.4899,4.5624,4.648,4.7009,4.7009,4.7009,4.702,4.7043,4.7014,4.702,4.702,4.7009,4.7009,4.702,4.702,4.7014,4.7025,4.7145,4.7201,4.7212,4.7265,4.6942,4.6241,4.5378,4.4597,4.3852,4.3115,4.2793,4.2812,4.2812,4.2812,4.2793,4.2668,4.2629,4.2609,0.0,0.0,0.0,0.0,0.0,0.0,4.0723,4.0664,4.0591,4.0481,4.0397,4.0291,4.0163,3.9981,3.9783,3.9533,0.0,0.0,0.0,0.0,0.0,0.0,0.0,0.0,0.0,0.0,3.9541,3.8965,3.9615,0.0,0.0,0.0,0.0,0.0,0.0,3.7003,3.6853,3.6818,0.0,0.0,0.0,0.0,0.0,0.0,0.0,0.0,0.0,0.0,4.0191,4.0537,4.0619,4.0595,4.0643,4.0546,4.037,4.0125,4.0062,4.0037,3.9961,3.9948,3.9948,3.9948,4.01,4.0288,4.0399,4.0693,4.0995,4.1105,4.1289,4.1442,4.1442,4.1509,4.1576,4.1631,4.1784,4.1924,4.2009,4.2135,4.2539,4.3401,4.415,4.4917,4.5731,4.6527,4.7009,4.7009,4.7009,4.7009,4.7009,4.7009,4.7009,4.7009,4.7009,4.7009,4.7009,4.7009,4.7009,4.7009,4.7054,4.7077,4.7077,4.7104,4.6697,4.591,4.5111,4.4338,4.3622,4.2919,4.2645,4.2668,4.2668,4.2668,4.2668,4.2619,4.256,4.2536,0.0,0.0,0.0,0.0,0.0,4.0792,4.0792,4.0754,4.0713,4.0662,4.0604,4.0527,4.0421,4.0343,4.0167,3.9883,3.9686,0.0,0.0,0.0,0.0,0.0,0.0,0.0,0.0,0.0,3.9226,3.8618,3.9994,3.9998,0.0,0.0,3.9013,3.8115,0.0,0.0,0.0,0.0,0.0,0.0,0.0,0.0,0.0,0.0,0.0,0.0,0.0,0.0,0.0,0.0,0.0,4.1146,4.118,4.1186,4.1082,4.0607,4.0485,4.0468,4.0375,4.0358,4.037,4.0333,4.0529,4.0722,4.0758,4.1105,4.1424,4.1469,4.1653,4.1812,4.1812,4.1888,4.1952,4.1952,4.2069,4.2156,4.2156,4.2246,4.268,4.3704,4.4282,4.5006,4.6052,4.667,4.7009,4.7009,4.7009,4.7009,4.7009,4.7009,4.7009,4.7009,4.7009,4.7009,4.7009,4.7009,4.7009,4.7009,4.7009,4.7009,4.6991,4.6748,4.6212,4.5398,4.4614,4.3871,4.3186,4.2698,4.2526,4.2578,4.2578,4.2578,4.2568,4.252,4.2478,4.2435,0.0,0.0,0.0,0.0,0.0,0.0,4.0807,4.0807,4.0796,4.08,4.0732,4.07,4.07,4.057,4.0508,4.0492,4.0191,0.0,0.0,0.0,0.0,0.0,0.0,0.0,0.0,0.0,3.9094,3.9094,3.9974,4.0285,4.0085,4.0016,3.9835,3.9529,0.0,0.0,0.0,0.0,0.0,0.0,0.0,0.0,0.0,0.0,0.0,0.0,0.0,0.0,0.0,0.0,0.0,0.0,0.0,4.1838,4.167,4.107,4.0936,4.0977,4.0906,4.0936,4.0966,4.0906,4.1041,4.1232,4.1368,4.1657,4.1917,4.2061,4.2205,4.2287,4.2287,4.2297,4.2297,4.2297,4.2297,4.2297,4.2297,4.2297,4.2868,4.4417,4.4614,4.522,4.683,4.7009,4.7009,4.7009,4.7009,4.7009,4.7009,4.7009,4.7009,4.7009,4.7009,4.7009,4.7009,4.7009,4.7009,4.7009,4.7009,4.7009,4.6973,4.6177,4.5363,4.4567,4.3829,4.3054,4.2325,4.2463,4.2493,4.2493,4.2493,4.2493,4.2483,4.2356,4.2308,4.2297,0.0,0.0,0.0,0.0,0.0,0.0,0.0,4.0837,4.0804,4.0793,4.0784,4.0767,4.077,4.0729,4.0684,4.0636,4.0363,0.0,0.0,0.0,0.0,0.0,0.0,0.0,0.0,0.0,3.9364,3.9364,4.0805,4.1157,4.0532,4.16,4.1407,4.013,3.9841,3.935,0.0,0.0,0.0,0.0,0.0,0.0,3.8452,0.0,0.0,0.0,0.0,0.0,0.0,0.0,0.0,0.0,0.0,0.0,0.0,4.1934,4.1708,4.152,4.1414,4.1386,4.1397,4.1392,4.1504,4.1609,4.1653,4.1859,4.2051,4.2093,4.2215,4.2297,4.2297,4.2297,4.2297,4.2297,4.2297,4.2297,4.2297,4.2297,4.2868,4.4417,4.557,4.6444,4.6955,4.7009,4.7009,4.7009,4.7009,4.7009,4.7009,4.7009,4.7009,4.7009,4.7009,4.7009,4.7009,4.7009,4.7009,4.7009,4.7009,4.6723,4.6159,4.5927,4.5088,4.3847,4.3597,4.3036,4.2297,4.2356,4.2356,4.2356,4.2356,4.2356,4.2356,4.2325,4.2297,4.2297,0.0,0.0,0.0,0.0,0.0,0.0,0.0,4.0898,4.0888,4.0888,4.0888,4.0881,4.0883,4.088,4.085,4.0787,4.062,0.0,0.0,0.0,0.0,0.0,0.0,0.0,0.0,3.9724,3.9685,3.9685,4.1371,4.1901,4.1368,4.2693,4.271,4.1573,4.0947,4.0333,0.0,0.0,0.0,0.0,0.0,0.0,3.9036,0.0,0.0,0.0,0.0,0.0,0.0,0.0,0.0,0.0,0.0,0.0,0.0,0.0,4.2412,4.2166,4.1941,4.1881,4.1881,4.1805,4.1899,4.1973,4.1931,4.2058,4.2184,4.2184,4.2246,4.2297,4.2297,4.2297,4.2297,4.2297,4.2297,4.2297,4.2297,4.2297,4.2868,4.4417,4.5749,4.667,4.6973,4.7009,4.7009,4.7009,4.7009,4.7009,4.7009,4.7009,4.7009,4.7009,4.7009,4.7009,4.7009,4.7009,4.7009,4.7009,4.6688,4.6284,4.5784,4.5202,4.44,4.349,4.3169,4.2751,0.0,4.2297,4.2297,4.2297,4.2297,4.2297,4.2297,4.2297,4.2297,4.2297,0.0,0.0,0.0,0.0,0.0,0.0,0.0,4.0994,4.0994,4.0994,4.0994,4.0994,4.0994,4.0994,4.0968,4.0911,0.0,0.0,0.0,0.0,0.0,0.0,0.0,0.0,4.0033,4.0028,4.0023,4.0023,4.1719,4.2506,4.2466,4.3395,4.3753,4.3563,4.1968,4.1166,0.0,0.0,0.0,0.0,0.0,0.0,0.0,0.0,0.0,0.0,0.0,0.0,0.0,0.0,0.0,0.0,0.0,0.0,0.0,0.0,0.0,0.0,0.0,4.2422,4.2384,4.2207,4.2256,4.2308,4.2166,4.2236,0.0,4.2297,4.2297,4.2297,4.2297,4.2297,4.2297,4.2297,4.2297,4.2297,4.2297,4.2387,4.3011,4.4435,4.5363,4.6177,4.6938,4.7009,4.7009,4.7009,4.7009,4.7009,4.7009,4.7009,4.7009,4.7009,4.7009,4.7009,4.7009,4.7009,4.6973,4.692,4.6159,4.5737,4.5588,4.415,4.3472,4.3365,4.2619,4.2297,4.2297,4.2297,4.2297,4.2297,4.2297,4.2297,4.2297,4.2297,4.2297,4.2297,0.0,0.0,0.0,0.0,0.0,0.0,0.0,0.0,0.0,0.0,4.0994,4.0994,4.0994,4.0994,4.0994,0.0,0.0,0.0,0.0,0.0,0.0,0.0,0.0,0.0,4.0387,4.0321,4.0308,4.0308,4.2051,4.2867,4.2892,4.4378,4.4704,4.4005,4.2998,4.1805,0.0,0.0,0.0,0.0,0.0,0.0,0.0,0.0,0.0,0.0,3.9775,4.0115,0.0,0.0,0.0,0.0,0.0,0.0,0.0,0.0,4.3528,4.3494,4.3408,0.0,4.2768,4.272,4.2707,4.2657,0.0,4.2468,4.2425,4.2318,4.2297,4.2297,4.2297,4.2297,4.2297,4.2297,4.2297,4.2297,4.2297,4.3322,4.4185,4.456,4.5856,4.6795,4.6973,4.7009,4.7009,4.7009,4.7009,4.7009,4.7009,4.7009,4.7009,4.7009,4.7009,4.7009,4.7009,4.7009,4.6688,4.6088,4.5891,4.5178,4.4025,4.3668,4.3161,4.2573,4.2387,4.2297,4.2297,4.2297,4.2297,4.2297,4.2297,4.2297,4.2297,4.2297,4.2297,4.2297,0.0,0.0,0.0,0.0,0.0,0.0,0.0,0.0,0.0,0.0,0.0,0.0,0.0,0.0,0.0,0.0,0.0,0.0,0.0,0.0,0.0,0.0,0.0,4.0633,4.0636,4.06,4.0574,4.0574,4.229,4.3139,4.3178,4.4881,4.5433,4.4939,4.3694,4.2178,0.0,0.0,0.0,0.0,4.0504,0.0,0.0,0.0,0.0,0.0,4.0003,4.0184,0.0,4.1314,4.2039,4.2745,0.0,0.0,0.0,0.0,4.3926,4.3881,4.3881,4.3562,4.3205,4.3132,4.3068,4.2947,4.2815,4.2697,4.2615,4.253,4.248,4.244,4.244,4.2417,4.2387,4.2387,4.2346,4.2297,4.2297,4.3019,4.3811,4.4524,4.5363,4.6195,4.6938,4.7009,4.7009,4.7009,4.7009,4.7009,4.7009,4.7009,4.7009,4.7009,4.6652,4.6634,4.7009,4.6623,4.623,4.5802,4.5077,4.431,4.349,4.3126,4.2715,4.2297,4.2297,4.2297,4.2297,4.2297,4.2297,4.2297,4.2297,4.2297,4.2297,4.2297,4.2297,4.2297,0.0,0.0,0.0,0.0,0.0,0.0,0.0,0.0,0.0,0.0,0.0,0.0,0.0,0.0,0.0,0.0,0.0,0.0,0.0,0.0,0.0,0.0,0.0,4.0835,4.0833,4.0833,4.0892,4.1027,4.2579,4.3416,4.3552,4.5182,4.5791,4.5476,4.3872,4.2256,0.0,0.0,0.0,0.0,4.0736,0.0,0.0,0.0,0.0,0.0,0.0,0.0,0.0,4.1116,4.1798,4.2487,4.3227,0.0,0.0,0.0,0.0,0.0,4.4192,4.396,4.3695,4.3526,4.3373,4.3241,4.3114,4.2957,4.286,4.2823,4.2727,4.2658,4.2658,4.2598,4.2564,4.2554,4.2417,4.2318,4.2297,4.2404,4.3001,4.4435,4.4721,4.5363,4.6866,4.7009,4.7009,4.7009,4.7009,4.7009,4.7009,4.6884,4.683,4.683,4.6034,4.5945,4.6634,4.5963,4.5559,4.5427,4.4114,4.3436,4.3294,4.2608,4.2297,4.2297,4.2297,0.0,4.2297,4.2297,4.2297,4.2297,4.2297,4.2297,4.2297,4.2297,4.2297,4.2308,0.0,0.0,0.0,0.0,0.0,0.0,0.0,0.0,0.0,0.0,0.0,0.0,0.0,0.0,0.0,0.0,0.0,0.0,0.0,0.0,0.0,4.1072,4.1018,4.0978,4.0975,4.0975,4.1326,4.2067,4.3078,4.3895,4.4595,4.5606,4.5302,4.391,4.2896,4.1893,4.0958,0.0,0.0,0.0,4.0896,0.0,0.0,0.0,0.0,0.0,0.0,0.0,0.0,4.137,4.2054,4.2696,4.3487,0.0,0.0,0.0,0.0,0.0,4.4546,4.4435,4.4288,4.391,4.3714,4.3589,4.3462,4.3286,4.3105,4.2985,4.2901,4.2844,4.2844,4.2853,4.2823,4.2754,4.2586,4.2425,4.2325,4.2894,4.3633,4.4507,4.5202,4.598,4.692,4.7009,4.7009,4.7009,4.7009,4.7009,4.7009,4.6355,4.598,4.598,4.5202,4.4846,4.497,4.4846,4.4471,4.3847,4.3615,4.3144,4.2476,4.2351,4.2297,4.2297,0.0,4.2297,4.2297,4.2297,4.2297,4.2297,4.2297,4.2297,4.2297,4.2297,4.2297,4.2338,0.0,0.0,0.0,0.0,0.0,0.0,0.0,0.0,0.0,0.0,0.0,0.0,0.0,0.0,0.0,0.0,0.0,0.0,0.0,0.0,0.0,4.11,4.1079,4.1053,4.1049,4.106,4.1484,4.2343,4.3239,4.4077,4.4858,4.5264,4.4566,4.2937,4.2485,4.1827,4.0996,4.0991,0.0,0.0,0.0,0.0,0.0,0.0,0.0,0.0,0.0,0.0,0.0,0.0,4.1912,4.2918,4.3221,0.0,0.0,0.0,0.0,0.0,4.4833,4.4706,4.4544,4.4288,4.4044,4.3836,4.3751,4.3565,4.34,4.3329,4.3277,4.3214,4.3214,4.3142,4.2994,4.2822,4.2657,4.2526,4.2425,4.2667,4.3144,4.3918,4.4328,4.4863,4.5641,4.5713,4.5713,4.5713,4.5713,4.5713,4.5713,4.5345,4.5149,4.5149,4.4417,4.4007,4.4007,4.3572,4.3411,4.349,4.3054,4.2662,4.2297,4.2297,4.2297,4.2297,0.0,4.2297,4.2297,4.2297,4.2297,4.2297,4.2297,4.2297,4.2308,4.2377,4.2427,4.252,0.0,0.0,0.0,0.0,0.0,0.0,0.0,0.0,0.0,0.0,0.0,0.0,0.0,0.0,0.0,0.0,0.0,0.0,0.0,0.0,4.1074,4.1074,4.1074,4.107,4.1104,4.1095,4.1638,4.2694,4.3376,4.4117,4.4897,4.4503,4.3626,4.2384,4.2128,4.1641,4.102,4.1017,4.101,0.0,0.0,0.0,0.0,0.0,0.0,0.0,0.0,0.0,0.0,0.0,0.0,0.0,0.0,0.0,0.0,4.5356,4.5264,4.5151,4.5043,4.4883,4.4712,4.453,4.4288,4.4044,4.3995,4.3806,4.3664,4.3664,4.3615,4.3566,4.3566,4.341,4.3196,4.2928,4.2746,4.2617,4.2514,4.2377,4.2601,4.3401,4.3508,4.3793,4.4531,4.4614,4.4614,4.4614,4.4614,4.4614,4.4614,4.4442,4.4346,4.4346,4.3615,4.3222,4.3222,4.2619,4.2619,4.3204,4.259,4.2297,4.2297,4.2297,4.2297,4.2297,4.2297,4.2297,4.2297,4.2297,4.2297,4.2297,4.2297,4.2318,4.2366,4.2475,4.2598,4.2747,0.0,0.0,0.0,0.0,0.0,0.0,0.0,0.0,0.0,0.0,0.0,0.0,0.0,0.0,0.0,0.0,0.0,0.0,0.0,0.0,4.1006,4.1006,4.1017,4.1045,4.1107,4.1105,4.1925,4.3604,4.3662,4.4111,4.4871,4.3303,4.2527,4.236,4.1559,4.115,4.1093,4.1091,4.1089,4.1084,4.1093,0.0,0.0,0.0,0.0,0.0,0.0,0.0,0.0,0.0,0.0,0.0,0.0,0.0,4.5571,4.5504,4.5423,4.5336,4.514,4.4985,4.4815,4.4558,4.4394,4.4255,4.4191,4.4019,4.3873,4.3873,4.3826,4.3779,4.3779,4.36,4.3401,4.3196,4.2947,4.2724,4.2524,4.2377,4.2601,4.3401,4.3508,4.3793,4.4531,4.4614,4.4614,4.4614,4.4614,4.4614,4.4614,4.3954,4.3579,4.3579,4.2804,4.2387,4.2387,4.2333,4.2333,4.2387,4.2333,4.2297,4.2297,4.2297,4.2297,4.2297,4.2297,4.2297,4.2297,4.2297,4.2297,4.2297,4.2297,4.2366,4.2493,4.2568,4.2757,4.2995,0.0,0.0,0.0,0.0,0.0,0.0,0.0,0.0,0.0,0.0,0.0,0.0,0.0,0.0,0.0,0.0,0.0,0.0,0.0,4.1009,4.1009,4.1009,4.0996,4.1015,4.1045,4.1044,4.189,4.3648,4.4177,4.4061,4.334,4.2695,4.2108,4.1579,4.1246,4.1109,4.1108,4.1092,4.1093,4.1094,4.1093,4.1091,0.0,0.0,0.0,0.0,0.0,0.0,0.0,0.0,4.2068,4.3411,4.3348,4.4437,4.5711,4.5688,4.5614,4.5481,4.5281,4.5093,4.4901,4.4685,4.4489,4.4336,4.4222,4.4146,4.4058,4.3984,4.3945,4.3913,4.3875,4.3792,4.3676,4.3437,4.3123,4.288,4.2714,4.2468,4.2404,4.2715,4.2751,4.2858,4.3144,4.3161,4.3161,4.3161,4.3161,4.3161,4.3161,4.2912,4.2751,4.2751,4.2458,4.2297,4.2297,4.2297,4.2297,4.2297,4.2297,4.2297,4.2297,4.2297,4.2297,4.2297,4.2297,4.2297,4.2297,4.2297,4.2297,4.2308,4.244,4.2578,4.2714,4.2909,4.3059,4.3223,0.0,0.0,0.0,0.0,0.0,0.0,0.0,0.0,0.0,0.0,0.0,0.0,0.0,0.0,0.0,0.0,0.0,0.0,4.0977,4.0977,4.0977,4.0977,4.0977,4.0977,4.0977,4.0968,4.17,4.3199,4.3818,4.3513,4.2363,4.211,4.1678,4.1107,4.1107,4.1107,4.1108,4.1094,4.1101,4.1107,4.1107,4.109,0.0,0.0,0.0,0.0,0.0,0.0,0.0,0.0,4.2122,4.3517,4.3444,4.4538,4.5831,4.5835,4.5731,4.5562,4.5352,4.5159,4.4943,4.4757,4.4558,4.4361,4.4267,4.4214,4.4169,4.402,4.4005,4.3981,4.3945,4.3913,4.3824,4.3573,4.3268,4.3003,4.2822,4.2548,4.2356,4.2308,4.2297,4.2297,4.2297,4.2297,4.2297,4.2297,4.2297,4.2297,4.2297,4.2297,4.2297,4.2297,4.2297,4.2297,4.2297,4.2297,4.2297,4.2297,4.2297,4.2297,4.2297,4.2297,4.2297,4.2297,4.2297,4.2297,4.2297,4.2297,4.2318,4.2387,4.254,4.2707,4.289,4.3142,4.3339,4.3496,0.0,0.0,0.0,0.0,0.0,0.0,0.0,0.0,0.0,0.0,0.0,0.0,0.0,0.0,0.0,0.0,0.0,0.0,4.0907,4.0907,4.0907,4.0907,4.0907,4.0907,4.0907,4.0907,4.1364,4.2283,4.2351,4.2356,4.2263,4.1472,4.1106,4.1093,4.1093,4.1093,4.1093,4.1093,4.1109,4.1108,4.1108,4.1098,4.1107,0.0,0.0,0.0,0.0,0.0,0.0,0.0,4.2163,4.3584,4.3523,4.4602,4.5902,4.5909,4.5753,4.5563,4.5342,4.5159,4.4943,4.4757,4.4551,4.4376,4.4314,4.4252,4.4169,4.402,4.4005,4.4005,4.4005,4.3953,4.3841,4.3639,4.3392,4.3114,4.2841,4.2625,4.2445,4.2318,4.2297,4.2297,4.2297,4.2297,4.2297,4.2297,4.2297,4.2297,4.2297,4.2297,4.2297,4.2297,4.2297,4.2297,4.2297,4.2297,4.2297,4.2297,4.2297,4.2297,4.2297,4.2297,4.2297,4.2297,4.2297,4.2297,4.2297,4.2297,4.2377,4.2514,4.2578,4.2776,4.3041,4.3232,4.3513,4.3812,0.0,0.0,0.0,0.0,0.0,0.0,0.0,0.0,0.0,0.0,0.0,0.0,0.0,0.0,0.0,0.0,0.0,0.0,4.0907,4.0907,4.0907,4.0907,4.0907,4.0907,4.0907,4.0907,4.1069,4.1387,4.1978,4.1967,4.1372,4.113,4.1023,4.1031,4.1021,4.1052,4.1102,4.109,4.1098,4.1105,4.1105,4.1095,4.1107,0.0,0.0,0.0,0.0,0.0,0.0,0.0,0.0,0.0,4.3582,4.4649,4.5902,4.5909,4.5754,4.5553,4.5307,4.5079,4.4864,4.4619,4.4475,4.4361,4.4259,4.4214,4.4169,4.402,4.4005,4.4005,4.4005,4.3981,4.3945,4.3822,4.3582,4.3322,4.3114,4.2785,4.2538,4.2445,4.2356,4.2297,4.2297,4.2297,4.2297,4.2297,4.2297,4.2297,4.2297,4.2297,4.2297,4.2297,4.2297,4.2297,4.2297,4.2297,4.2297,4.2297,4.2297,4.2297,4.2297,4.2297,4.2297,4.2297,4.2297,4.2297,4.2297,4.2297,4.2399,4.2598,4.2747,4.2957,4.3187,4.3523,4.3711,4.382,0.0,0.0,0.0,0.0,0.0,0.0,0.0,0.0,0.0,0.0,4.0866,0.0,0.0,0.0,0.0,0.0,0.0,0.0,0.0,4.0858,4.0866,4.0856,4.0856,4.0856,4.0856,4.0856,4.0886,4.0922,4.1455,4.1475,4.1003,4.0964,4.0953,4.0966,4.0966,4.0976,4.1027,4.1016,4.1047,4.106,4.106,4.1077,4.1102,0.0,0.0,0.0,0.0,0.0,0.0,0.0,0.0,0.0,4.3605,4.4686,4.5937,4.5877,4.5719,4.5504,4.527,4.503,4.4796,4.4551,4.4437,4.4329,4.4158,4.4119,4.4112,4.4013,4.4005,4.4005,4.4005,4.4005,4.3974,4.3905,4.3734,4.3532,4.3286,4.2957,4.2718,4.2625,4.2486,4.2377,4.2377,4.2318,4.2297,4.2297,4.2297,4.2297,4.2297,4.2297,4.2297,4.2297,4.2297,4.2297,4.2297,4.2297,4.2297,4.2297,4.2297,4.2297,4.2297,4.2297,4.2297,4.2297,4.2297,4.2297,4.2297,4.2297,4.2389,4.2578,4.2785,4.2994,4.3232,4.3592,4.3777,4.3851,0.0,0.0,0.0,0.0,0.0,0.0,0.0,0.0,0.0,0.0,4.0782,4.0782,0.0,0.0,0.0,0.0,0.0,0.0,0.0,0.0,4.0784,4.0793,4.0798,4.0782,4.0782,4.0782,4.0782,4.0782,4.0922,4.0976,4.0974,4.0915,4.0896,4.0894,4.0888,4.0898,4.0881,4.0881,4.0926,4.0984,4.0986,4.1022,4.1089,4.1083,0.0,0.0,0.0,0.0,0.0,0.0,0.0,0.0,4.3596,4.4698,4.5977,4.5834,4.5657,4.5448,4.5251,4.4985,4.4725,4.4524,4.438,4.4214,4.4044,4.4005,4.4005,4.4005,4.4005,4.4005,4.4005,4.4005,4.3981,4.3921,4.3851,4.3703,4.3391,4.316,4.2976,4.2851,4.2655,4.2534,4.2534,4.2407,4.2318,4.2318,4.2308,4.2297,4.2297,4.2297,4.2297,4.2297,4.2297,4.2297,4.2297,4.2297,4.2297,4.2297,4.2297,4.2297,4.2297,4.2297,4.2297,4.2297,4.2297,4.2297,4.2297,4.2308,4.2387,4.2534,4.2735,4.2975,4.3223,4.3512,4.3732,4.3897,0.0,0.0,0.0,0.0,0.0,0.0,0.0,0.0,0.0,0.0,0.0,0.0,0.0,0.0,0.0,0.0,0.0,0.0,0.0,0.0,4.0723,4.0713,4.0722,4.0718,4.0718,4.0718,4.0718,4.0718,4.0804,4.0842,4.0837,4.0837,4.0818,4.0818,4.0809,4.0821,4.0826,4.0826,4.0833,4.0846,4.0845,4.0887,4.0959,4.0993,4.1052,0.0,0.0,0.0,0.0,0.0,0.0,0.0,4.3533,4.4651,4.5974,4.5842,4.5611,4.5376,4.5173,4.4883,4.4592,4.4401,4.4199,4.4051,4.4013,4.4005,4.4005,4.4005,4.4005,4.4005,4.4005,4.4005,4.3997,4.3981,4.3921,4.3824,4.3711,4.3417,4.3214,4.3114,4.2929,4.2794,4.2735,4.2609,4.25,4.2455,4.2356,4.2297,4.2297,4.2297,4.2297,4.2297,4.2297,4.2297,4.2297,4.2297,4.2297,4.2297,4.2297,4.2297,4.2297,4.2297,4.2297,4.2297,4.2297,4.2297,4.2308,4.2415,4.2498,4.2617,4.2926,4.3105,4.326,4.3609,4.3777,4.3845,0.0,0.0,0.0,0.0,0.0,0.0,0.0,0.0,0.0,0.0,0.0,0.0,0.0,0.0,0.0,0.0,0.0,0.0,0.0,0.0,4.0492,4.0549,4.0556,4.0577,4.0598,4.0598,4.0598,4.0598,4.0636,4.0684,4.0752,4.0717,4.0681,4.0662,4.0668,4.0652,4.0652,4.0652,4.0662,4.0655,4.069,4.076,4.0861,4.0921,4.1,4.1108,4.1107,0.0,0.0,0.0,0.0,0.0,0.0,0.0,4.5431,4.5764,4.568,4.5434,4.5213,4.4948,4.4679,4.4361,4.4154,4.4005,4.4005,4.4005,4.4005,4.4005,4.4005,4.4005,4.4005,4.4005,4.3989,4.3968,4.3921,4.3849,4.3728,4.3522,4.3374,4.3339,4.3169,4.3022,4.2994,4.2834,4.2697,4.2566,4.2447,4.2366,4.2308,4.2297,4.2297,4.2297,4.2297,4.2297,4.2297,4.2297,4.2297,4.2297,4.2297,4.2318,4.2405,4.2405,4.2417,4.245,4.245,4.248,4.253,4.2615,4.2686,4.2767,4.3002,4.3169,4.3277,4.3582,4.3777,4.3859,0.0,0.0,0.0,0.0,0.0,0.0,0.0,0.0,0.0,0.0,0.0,0.0,0.0,0.0,0.0,0.0,0.0,0.0,0.0,0.0,0.0,4.0377,4.0381,4.0401,4.0488,4.0473,4.0473,4.0473,4.0473,4.0542,4.0649,4.0589,4.0537,4.0473,4.0492,4.0504,4.0504,4.0492,4.0492,4.0503,4.06,4.0697,4.0809,4.0878,4.0979,4.1099,4.1103,4.1099,4.1093,4.1108,0.0,0.0,0.0,0.0,4.4852,4.5648,4.5758,4.5531,4.5297,4.5028,4.4738,4.4361,4.4139,4.4005,4.4005,4.4005,4.4005,4.4005,4.4005,4.4005,4.4005,4.3989,4.3958,4.3905,4.3899,4.3816,4.3659,4.3575,4.3523,4.3523,4.3366,4.3259,4.3241,4.3087,4.2882,4.2679,4.2568,4.2465,4.2346,4.2308,4.2297,4.2297,4.2297,4.2297,4.2297,4.2297,4.2297,4.2297,4.2297,4.2366,4.2493,4.2514,4.2556,4.2599,4.2619,4.2697,4.2822,4.286,4.2918,4.2976,4.3123,4.325,4.3373,4.3589,4.3757,4.3905,0.0,0.0,0.0,0.0,0.0,0.0,0.0,0.0,0.0,0.0,4.0223,4.0148,0.0,0.0,0.0,0.0,0.0,0.0,3.9949,0.0,0.0,4.032,4.0306,4.0347,4.0405,4.0409,4.0409,4.0409,4.0409,4.0417,4.0434,4.0433,4.0425,4.0417,4.0474,4.0495,4.0495,4.0496,4.05,4.0512,4.0633,4.0739,4.0818,4.0871,4.0979,4.1098,4.1092,4.1093,4.1092,4.1105,4.168,0.0,0.0,0.0,4.4849,4.558,4.5715,4.554,4.5342,4.4929,4.4508,4.4274,4.4112,4.4005,4.4005,4.4005,4.4005,4.4005,4.4005,4.4005,4.4005,4.3942,4.3905,4.3897,4.3851,4.3804,4.3788,4.3678,4.3582,4.3582,4.3556,4.3513,4.3471,4.333,4.316,4.2967,4.2718,4.2548,4.2483,4.2356,4.2297,4.2297,4.2297,4.2297,4.2297,4.2297,4.2297,4.2297,4.2297,4.2366,4.2503,4.2558,4.2589,4.2609,4.2725,4.2814,4.29,4.3068,4.3196,4.3258,4.3461,4.3528,4.357,4.3781,4.3873,4.3905,0.0,0.0,0.0,0.0,0.0,0.0,0.0,0.0,0.0,0.0,0.0,3.9969,0.0,0.0,0.0,3.9849,3.9796,3.979,3.9794,3.9884,4.0007,4.0172,4.0196,4.0234,4.0346,4.0346,4.0346,4.0346,4.0339,4.0334,4.0334,4.0381,4.0409,4.0407,4.0432,4.0441,4.0445,4.0437,4.0473,4.0504,4.0617,4.0713,4.0818,4.087,4.0986,4.1099,4.1098,4.1099,4.1097,4.1105,4.1348,4.1805,4.2622,0.0,0.0,0.0,4.5409,4.5593,4.5276,4.4876,4.4515,4.43,4.4124,4.4005,4.4005,4.4005,4.4005,4.4005,4.3966,4.3934,4.3934,4.3921,4.3857,4.3759,4.3709,4.3667,4.3644,4.3583,4.3548,4.359,4.3667,4.3703,4.3669,4.3617,4.347,4.3187,4.2939,4.2776,4.2675,4.2506,4.2415,4.2415,4.2346,4.2297,4.2297,4.2297,4.2297,4.2297,4.2297,4.2366,4.2493,4.2526,4.2615,4.2725,4.2889,4.3031,4.3142,4.3304,4.3444,4.3592,4.3684,4.3742,4.3781,4.3865,4.3929,4.395,0.0,0.0,0.0,0.0,0.0,0.0,0.0,0.0,0.0,0.0,0.0,0.0,0.0,0.0,0.0,0.0,3.9675,3.968,3.9689,3.9764,3.99,4.0082,4.0106,4.0157,4.0301,4.0306,4.0291,4.0305,4.0308,4.032,4.0342,4.0392,4.0432,4.0426,4.0432,4.0428,4.0432,4.0445,4.0481,4.0553,4.0639,4.0737,4.0823,4.0912,4.101,4.1109,4.1092,4.1108,4.11,4.1107,4.1094,4.1239,4.2043,4.2843,0.0,0.0,0.0,4.5582,4.5227,4.4889,4.4599,4.4387,4.4184,4.4028,4.4013,4.4005,4.3997,4.3974,4.3937,4.3881,4.3832,4.3824,4.3765,4.3624,4.3582,4.3548,4.3515,4.3506,4.3513,4.359,4.3719,4.3812,4.381,4.3829,4.3709,4.3443,4.3205,4.3022,4.2918,4.2706,4.2586,4.2584,4.2447,4.2369,4.2356,4.2318,4.2297,4.2297,4.2318,4.2405,4.2493,4.2554,4.2655,4.2803,4.2974,4.3123,4.3294,4.3462,4.3642,4.3837,4.3843,4.3891,4.3929,4.3929,4.3968,4.4005,0.0,0.0,0.0,0.0,0.0,0.0,0.0,0.0,0.0,0.0,0.0,0.0,3.9705,3.9657,3.9602,3.9614,3.9614,3.9619,3.9708,3.9764,3.99,4.0082,4.0106,0.0,4.0301,4.0306,4.0291,4.0302,4.0307,4.0375,4.0497,4.0497,4.0483,4.0485,4.0479,4.0497,4.0506,4.0553,4.0621,4.0704,4.0823,4.0889,4.0916,4.1034,4.109,4.1094,4.1104,4.1093,4.11,4.1109,4.1093,4.1232,4.204,4.2854,4.3665,0.0,0.0,0.0,4.5272,4.501,4.4738,4.4461,4.4292,4.4161,4.402,4.4005,4.3981,4.3913,4.3897,4.3841,4.3649,4.3615,4.3607,4.3599,4.3558,4.3496,4.3506,4.3506,4.3513,4.359,4.3719,4.381,4.3899,4.3889,4.3867,4.3788,4.3479,4.3259,4.3178,4.2994,4.2843,4.2783,4.2649,4.2558,4.2493,4.2366,4.2297,4.2297,4.2425,4.2493,4.2503,4.2704,4.2783,4.2803,4.289,4.3022,4.3223,4.3487,4.3705,4.3897,4.3958,4.3997,4.3997,4.3997,4.3997,4.4005,0.0,0.0,0.0,0.0,0.0,0.0,0.0,0.0,0.0,0.0,0.0,0.0,0.0,3.9602,3.9589,3.9589,3.9645,3.9674,3.9689,3.9792,3.9933,4.0082,4.0147,4.0215,4.0301,4.03,4.0308,4.0307,4.0388,4.0453,4.0502,4.0495,4.05,4.0496,4.0496,4.0492,4.0496,4.0575,4.0658,4.0776,4.0869,4.0927,4.0961,4.1078,4.1098,4.1106,4.1099,4.1105,4.1109,4.1093,4.1092,4.1133,4.139,4.2018,4.2918,4.4153,4.5028,4.5546,4.5281,4.5036,4.4802,4.4585,4.4365,4.4184,4.4135,4.4023,4.3929,4.3897,4.38,4.3701,4.3607,4.3599,4.3582,4.3539,4.3523,4.3506,4.3506,4.3549,4.3565,4.359,4.3751,4.3859,4.3845,4.3875,4.3875,4.3804,4.3607,4.3477,4.3461,4.3277,4.3124,4.3059,4.2881,4.2727,4.2568,4.251,4.254,4.2627,4.2675,4.2734,4.2765,4.2824,4.2853,4.2862,4.2975,4.3123,4.3286,4.3521,4.3732,4.3905,4.3974,4.4005,4.4005,4.4005,4.4005,4.4005,0.0,0.0,0.0,0.0,0.0,0.0,0.0,0.0,0.0,3.9589,0.0,0.0,0.0,0.0,3.962,3.9639,3.9668,3.9709,3.973,3.9867,3.9975,4.0101,4.0166,4.0239,4.0301,4.0299,4.0311,4.0329,4.0445,4.0491,4.0507,4.05,4.0496,4.0496,4.0496,4.0496,4.05,4.0593,4.0701,4.0809,4.0904,4.0963,4.1034,4.108,4.1095,4.1098,4.1107,4.109,4.1092,4.1094,4.1109,4.109,4.1028,4.1525,4.238,4.3633,4.4556,4.5113,4.4925,4.4933,4.4943,4.4712,4.4475,4.4263,4.4158,4.4019,4.3873,4.3816,4.3682,4.359,4.3565,4.3565,4.3548,4.3515,4.3506,4.3506,4.3506,4.3548,4.3625,4.3659,4.38,4.3891,4.3845,4.3875,4.3891,4.3845,4.3734,4.3682,4.3689,4.3546,4.3401,4.3241,4.3087,4.291,4.2699,4.2699,4.2765,4.2871,4.2909,4.2975,4.3041,4.3078,4.3096,4.3114,4.3205,4.3251,4.3286,4.3521,4.3707,4.3883,4.3976,4.4005,4.4005,4.4005,4.4005,4.4005,0.0,0.0,0.0,0.0,0.0,0.0,0.0,0.0,3.9589,3.9589,0.0,0.0,0.0,0.0,0.0,3.9687,3.9703,3.973,3.9798,3.9933,4.0022,4.0106,4.0166,4.022,4.0306,4.0299,4.0348,4.0407,4.0462,4.0511,4.0496,4.0496,4.0496,4.0496,4.0496,4.0496,4.0504,4.0633,4.0736,4.0812,4.0937,4.1036,4.1098,4.1109,4.1103,4.1108,4.1091,4.1092,4.1092,4.1093,4.1104,4.1083,4.101,4.1456,4.2151,4.2928,4.3697,4.4261,0.0,0.0,0.0,4.4833,4.4621,4.44,4.4082,4.3961,4.3841,4.3632,4.3599,4.3573,4.3505,4.3469,4.3451,4.3451,4.3469,4.3506,4.3506,4.3548,4.3651,4.3788,4.3859,4.3897,4.3907,4.3907,4.3907,4.3907,4.3845,4.3837,4.3897,4.3835,4.3642,4.332,4.325,4.3114,4.291,4.2929,4.2948,4.3014,4.3151,4.325,4.3312,4.3453,4.3515,4.3515,4.3515,4.341,4.3251,4.3504,4.3674,4.382,4.3953,4.4005,4.4005,4.4005,4.4005,4.4005,0.0,0.0,0.0,0.0,0.0,0.0,3.9589,3.9589,3.9589,0.0,0.0,0.0,3.9589,3.9589,3.9633,3.9687,3.9703,3.9747,3.9854,4.0005,4.0092,4.0171,4.0239,4.0272,4.0304,4.0348,4.0415,4.0462,4.0491,4.0504,4.0496,4.0496,4.0496,4.0496,4.0496,4.0496,4.0519,4.0595,4.069,4.0806,4.09,4.1002,4.1098,4.1109,4.1104,4.1111,4.1152,4.1172,4.1152,4.1111,4.1102,4.1078,4.0954,4.1421,4.2036,4.2219,4.2822,4.3419,4.3354,0.0,0.0,0.0,0.0,0.0,4.4087,4.4028,4.3841,4.3632,4.3556,4.3513,4.3496,4.3029,4.2635,4.2635,4.3121,4.3506,4.3506,4.3548,4.3651,4.3788,4.3859,4.3883,4.3826,4.3837,4.3837,4.3837,4.3812,4.3843,4.3976,4.3905,4.3818,4.3678,4.3556,4.3435,4.3339,4.3339,4.3365,4.3434,4.3478,4.3556,4.3651,4.3694,4.3711,4.3711,4.3711,4.3678,4.3635,4.3719,4.3802,4.3883,4.3966,4.4005,4.4005,4.4005,4.4005,4.4005,0.0,0.0,0.0,0.0,0.0,3.9565,3.9565,3.9571,3.9589,0.0,0.0,0.0,3.9589,3.9614,3.965,3.9704,3.9725,3.9792,3.9933,4.0041,4.0137,4.0196,4.0258,4.0291,4.0307,4.0366,4.0432,4.0502,4.0492,4.0496,4.0496,4.0496,4.0496,4.0496,4.0496,4.0496,4.0496,4.0573,4.0666,4.0772,4.0857,4.0962,4.1059,4.1094,4.1128,4.1152,4.1191,4.1191,4.1191,4.1129,4.1069,4.0995,4.093,4.1133,4.1407,4.1363,4.1936,4.2558,4.2509,4.2694,4.2962,4.3262,0.0,0.0,4.3203,4.3033,4.2805,4.2628,4.2547,4.2506,4.2506,4.2121,4.1801,4.1801,4.2194,4.2506,4.2506,4.2858,4.3135,4.3203,4.3613,4.3875,4.3812,4.3829,4.3835,4.3835,4.3835,4.3899,4.3997,4.3958,4.3905,4.3843,4.3775,4.3691,4.3635,4.3635,4.3659,4.3732,4.3732,4.3773,4.3891,4.3891,4.3891,4.3891,4.3891,4.3891,4.3891,4.3891,4.3899,4.3905,4.3974,4.4005,4.4005,4.4005,4.4005,4.4005,0.0,0.0,3.9418,3.9424,3.9476,3.9508,3.9508,3.9565,3.9589,0.0,3.9589,3.9589,3.9589,3.9663,3.9698,3.9689,3.977,3.9859,3.9996,4.0072,4.0147,4.0206,4.0268,4.03,4.0311,4.0375,4.0441,4.0491,4.0496,4.0496,4.0496,4.0519,4.05,4.05,4.0508,4.0508,4.0512,4.0572,4.0654,4.0727,4.0858,4.094,4.1022,4.1079,4.1131,4.1191,4.1191,4.1191,4.1172,4.1127,4.1002,4.0908,4.0897,4.077,4.0591,4.0607,4.1108,4.1658,4.1658,4.2187,4.2699,4.2609,4.243,0.0,4.1979,4.1676,4.1392,4.1251,4.1158,4.1111,4.1103,4.103,4.0975,4.0975,4.0901,4.0901,4.1058,4.1765,4.2263,4.2271,4.3063,4.3627,4.3664,4.373,4.3796,4.3889,4.3905,4.3945,4.3997,4.4005,4.3966,4.3913,4.3905,4.3891,4.3829,4.3829,4.3851,4.3905,4.3905,4.3945,4.4005,4.4005,4.4005,4.4005,4.4005,4.4005,4.4005,4.4005,4.3958,4.3913,4.3974,4.4005,4.4005,4.4005,4.4005,4.4005,0.0,3.9444,3.9495,3.954,3.9564,3.9589,3.9589,3.9583,3.9589,3.9589,3.9589,3.9589,3.9589,3.9663,3.9698,3.9689,3.9817,3.9933,4.0067,4.0147,4.0201,4.0287,4.0285,4.0331,4.0375,4.0445,4.0495,4.05,4.0492,4.0496,4.0496,4.0565,4.0577,4.0577,4.0575,4.057,4.0574,4.0658,4.0721,4.0787,4.0861,4.0965,4.1073,4.1095,4.1148,4.1191,4.1191,4.1172,4.111,4.1104,4.1007,4.0882,4.0837,4.0715,4.0604,4.0591,4.0665,4.0743,4.0743,4.0873,4.1122,4.1684,4.1699,0.0,4.199,4.1897,4.1645,4.1334,4.1227,4.1148,4.1111,4.0571,4.012,4.012,3.9588,3.9617,4.092,4.1248,4.1373,4.1435,4.1649,4.2073,4.2767,4.2887,4.3204,4.386,4.3961,4.3981,4.4005,4.4005,4.3997,4.3981,4.3981,4.3974,4.395,4.395,4.3966,4.3981,4.3981,4.3989,4.4005,4.4005,4.4005,4.4005,4.4005,4.4005,4.4005,4.4005,4.3997,4.3981,4.3997,4.4005,4.4005,4.4005,4.4005,4.4005,3.9411,3.9431,3.9463,3.9483,3.9533,3.9552,3.9552,3.9583,3.9589,3.9589,3.9639,3.9651,3.9651,3.9716,3.9743,3.9747,3.9859,3.9986,4.0082,4.0166,4.0239,4.0301,4.0299,4.0325,4.0407,4.0477,4.0507,4.0496,4.0496,4.0496,4.0496,4.0569,4.0599,4.0601,4.0622,4.0646,4.0652,4.0711,4.0787,4.0854,4.0919,4.1018,4.1104,4.1102,4.113,4.1191,4.1152,4.1131,4.1104,4.1096,4.103,4.0937,4.0823,4.0724,4.0644,4.0606,4.0542,4.0496,4.0496,4.0496,4.0584,4.092,4.0874,0.0,0.0,4.0798,4.0529,4.0298,4.0148,4.0019,3.9979,3.9601,3.9294,3.9294,3.8964,3.8975,3.9782,4.0241,4.0503,4.0551,4.0962,4.1438,4.191,4.2035,4.2282,4.271,4.2775,4.2797,4.2797,4.2797,4.2983,4.3392,4.3392,4.3596,4.4005,4.4005,4.4005,4.4005,4.4005,4.4005,4.4005,4.4005,4.4005,4.4005,4.4005,4.4005,4.4005,4.4005,4.4005,4.4005,4.4005,4.4005,4.4005,4.4005,4.4005,4.4005,3.9444,3.9425,3.9425,3.9444,3.9482,3.952,3.952,3.9571,3.9589,3.9589,3.9663,3.9693,3.9693,3.9767,3.9809,3.9815,3.9943,4.0052,4.0103,4.0181,4.0249,4.0301,4.0299,4.0325,4.0407,4.0477,4.0507,4.0496,4.0496,4.0496,4.0496,4.058,4.0605,4.0615,4.0691,4.073,4.0748,4.0808,4.087,4.0924,4.0994,4.1059,4.1093,4.1108,4.1132,4.1172,4.1111,4.1106,4.1096,4.1095,4.1057,4.0974,4.0847,4.0756,4.0683,4.0603,4.0539,4.0496,4.0496,4.0496,4.0473,4.0413,4.028,4.011,0.0,0.0,0.0,3.9292,3.9115,3.895,3.887,3.8784,3.8727,3.8712,3.8715,3.8699,3.8699,3.9258,3.9669,3.9669,4.031,4.083,4.1029,4.1325,4.1512,4.1586,4.1583,4.1597,4.1597,4.1597,4.1969,4.276,4.2797,4.3188,4.3986,4.4005,4.4005,4.4005,4.4005,4.4005,4.4005,4.4005,4.4005,4.4005,4.4005,4.4005,4.4005,4.4005,4.4005,4.4005,4.4005,4.4005,4.4005,4.4005,4.4005,4.4005,3.9532,3.9489,3.9508,3.9571,3.9577,3.9596,3.9596,3.9608,3.9589,3.9589,3.9663,3.9693,3.9693,3.9767,3.982,3.9884,4.0015,4.0127,4.0186,4.0253,4.0296,4.0301,4.0299,4.0325,4.0407,4.0477,4.0507,4.0496,4.0496,4.0496,4.0496,4.0571,4.0622,4.0691,4.0757,4.082,4.0872,4.0957,4.0984,4.0987,4.1055,4.109,4.1099,4.1109,4.1094,4.1111,4.1104,4.11,4.1095,4.1097,4.106,4.0988,4.0842,4.0758,4.068,4.0554,4.0519,4.0496,4.0496,4.0496,4.0473,4.0413,4.0348,4.0233,4.0113,0.0,3.9724,3.9575,0.0,3.9212,3.9094,0.0,0.0,3.8799,3.8742,3.8699,3.8699,3.8773,3.8828,3.8828,3.8986,3.9359,4.0075,4.0961,4.1508,4.1515,4.1572,4.1597,4.1597,4.1597,4.1969,4.276,4.2797,4.3188,4.3986,4.4005,4.4005,4.4005,4.4005,4.4005,4.4005,4.4005,4.4005,4.4005,4.4005,4.4005,4.4005,4.4005,4.4005,4.4005,4.4005,4.4005,4.4005,4.4005,4.4005,4.4005,3.9664,3.9631,3.9607,3.9595,3.9589,3.9589,3.9589,3.9589,3.9589,3.9589,3.9668,3.9703,3.9703,3.9794,3.9889,3.9949,4.0046,4.0132,4.0196,4.0258,4.0306,4.0306,4.0341,4.037,4.0407,4.0467,4.0496,4.0496,4.0496,4.0496,4.0496,4.0616,4.0697,4.0766,4.0864,4.0931,4.0963,4.1038,4.1065,4.1058,4.1096,4.1104,4.1108,4.1132,4.1132,4.1108,4.1102,4.1097,4.1109,4.1099,4.1074,4.1039,4.0845,4.0787,4.0733,4.0606,4.0531,4.0496,4.0496,4.0496,4.0473,4.0413,4.0357,4.0275,4.0172,4.0022,3.987,3.9747,0.0,0.0,0.0,0.0,0.0,0.0,3.8799,3.875,3.8707,3.8699,3.8699,3.8699,3.8719,3.8894,3.9267,3.9764,4.0048,4.0048,4.011,4.0141,4.0141,4.0141,4.0754,4.2062,4.2092,4.2705,4.3986,4.4005,4.4005,4.4005,4.4005,4.4005,4.4005,4.4005,4.4005,4.4005,4.4005,4.4005,4.4005,4.4005,4.4005,4.4005,4.4005,4.4005,4.4005,4.4005,4.4005,4.4005,3.9757,3.9708,3.9674,3.9602,3.9589,3.9589,3.9589,3.9589,3.9614,3.9633,3.9674,3.9706,3.9724,3.9839,3.9933,4.0031,4.0067,4.0142,4.021,4.0268,4.0306,4.0306,4.0345,4.0375,4.0407,4.0471,4.0504,4.0496,4.0496,4.05,4.0531,4.0653,4.0749,4.0823,4.0945,4.1011,4.1021,4.1083,4.1097,4.1099,4.1106,4.1091,4.1113,4.1152,4.113,4.1104,4.1099,4.1093,4.1106,4.1103,4.1106,4.1061,4.0885,4.0818,4.0766,4.0649,4.0577,4.0527,4.0496,4.0504,4.0476,4.0428,4.0357,4.0284,4.0239,4.0147,4.0041,3.9938,3.9804,0.0,0.0,0.0,3.9197,3.9024,0.0,3.8866,3.8795,3.875,3.8712,3.8707,3.8699,3.8712,3.878,3.8896,3.8964,3.8964,3.9045,3.9101,3.9101,3.9101,3.9863,4.156,4.1597,4.237,4.3986,4.4005,4.4005,4.4005,4.4005,4.4005,4.4005,4.4005,4.4005,4.4005,4.4005,4.4005,4.4005,4.4005,4.4005,4.4005,4.4005,4.4005,4.4005,4.4005,4.4005,4.4005,3.982,3.9741,3.9678,3.9608,3.9589,3.9589,3.9589,3.9589,3.9614,3.9687,3.9703,3.9724,3.9792,3.9867,3.9943,4.0096,4.0106,4.0152,4.0296,4.0301,4.0306,4.0306,4.0299,4.0329,4.0407,4.0477,4.0507,4.0496,4.0496,4.0531,4.0607,4.0663,4.0769,4.0907,4.0977,4.1044,4.1108,4.1103,4.1109,4.1091,4.1091,4.1094,4.1092,4.1109,4.1104,4.1098,4.1092,4.1109,4.1106,4.1103,4.1106,0.0,0.0,4.0851,4.0765,4.0632,4.0598,4.0577,4.0523,4.0503,4.0474,4.042,4.0357,4.0293,4.0296,4.0244,4.0191,4.0191,4.0082,3.9949,3.9809,3.9664,3.952,3.9318,3.919,0.0,0.0,3.8888,3.8769,3.8715,3.8699,3.8699,3.8707,3.8822,3.8892,3.8892,3.9036,3.9101,3.9101,3.9101,3.9863,4.156,4.1597,4.237,4.3986,4.4005,4.4005,4.4005,4.4005,4.4005,4.4005,4.4005,4.4005,4.4005,4.4005,4.4005,4.4005,4.4005,4.4005,4.4005,4.4005,4.4005,4.4005,4.4005,4.4005,4.4005,3.9756,3.9722,3.968,3.9608,3.9589,3.9589,3.9589,3.9589,3.9614,3.9687,3.9703,3.9724,3.9792,3.9905,3.9991,4.0082,4.0147,4.0196,4.0301,4.0306,4.0301,4.0299,4.0344,4.0411,4.0458,4.0487,4.05,4.0496,4.0496,4.0531,4.0593,4.0704,4.0801,4.09,4.1022,4.1073,4.1097,4.1149,4.1171,4.1152,4.1113,4.1091,4.1104,4.1102,4.11,4.1098,4.1092,4.1109,0.0,4.1093,4.1105,4.1073,4.0985,4.0917,4.0849,4.0756,4.071,4.0649,0.0,0.0,4.047,4.042,4.0357,4.0293,4.0296,4.0272,4.0253,4.0206,4.0152,4.0092,3.9959,3.982,3.9676,3.9526,3.9382,3.9264,0.0,3.8979,3.8844,3.8769,3.8719,3.8699,3.8699,3.8814,3.891,3.891,3.9017,3.9101,3.9101,3.9101,3.9863,4.156,4.1597,4.237,4.3986,4.4005,4.4005,4.4005,4.4005,4.4005,4.4005,4.4005,4.4005,4.4005,4.4005,4.4005,4.4005,4.4005,4.4005,4.4005,4.4005,4.4005,4.4005,4.4005,4.4005,4.4005,3.9723,3.9681,3.9651,3.9614,3.9589,3.9614,3.9639,3.9645,3.965,3.9734,3.9731,3.977,3.9854,3.9954,4.0046,4.0137,4.0176,4.0239,4.0301,4.0306,4.031,4.0302,4.0366,4.0432,4.0502,4.0492,4.0496,4.0496,4.0527,4.0576,4.0631,4.0744,4.0856,4.0945,4.1053,4.109,4.1105,4.1171,4.1191,4.1191,4.1131,4.1107,4.1099,4.1096,4.1095,4.1095,0.0,4.1109,4.1108,4.1097,4.1094,4.1087,4.1043,4.099,4.091,4.0863,4.0769,4.0684,4.0612,4.0543,0.0,4.042,4.0357,0.0,4.0296,4.0306,4.0296,4.0249,4.0244,4.0196,4.0092,3.9996,3.9911,3.977,3.9647,3.9514,0.0,3.9176,3.905,3.8921,3.8777,3.8699,3.8699,3.8792,3.8862,3.8903,3.9007,3.9073,3.9101,3.9101,3.9863,4.156,4.1597,4.237,4.3986,4.4005,4.4005,4.4005,4.4005,4.4005,4.4005,4.4005,4.4005,4.4005,4.4005,4.4005,4.4005,4.4005,4.4005,4.4005,4.4005,4.4005,4.4005,4.4005,4.4005,4.4005,3.9705,3.9645,3.9589,3.9595,3.9595,3.9633,3.9687,3.9699,3.9722,3.9787,3.9804,3.9848,3.9986,4.0001,4.0062,4.0191,4.0201,4.0239,4.0301,4.0306,4.0295,4.0307,4.037,4.0437,4.0506,4.0492,4.0496,4.0496,4.0573,4.0631,4.0707,4.0776,4.0876,4.1016,4.1072,4.1101,4.1092,4.1172,4.1191,4.1191,4.1129,4.1104,4.1097,4.1092,4.1109,4.1109,4.1109,4.1109,4.1108,4.1097,4.1095,4.1091,4.1107,4.1058,4.0981,4.0913,4.0818,4.0687,4.0615,4.0546,4.0474,4.0424,4.0357,0.0,0.0,0.0,4.0306,4.0306,4.0306,4.0272,4.0229,4.0201,4.0166,4.0022,3.994,3.9807,3.9563,3.9458,3.9337,3.9131,3.8896,3.8738,3.8715,3.878,3.8844,3.891,3.8964,3.9043,3.9101,3.9108,3.987,4.1542,4.1597,4.237,4.3986,4.4005,4.4005,4.4005,4.4005,4.4005,4.4005,4.4005,4.4005,4.4005,4.4005,4.4005,4.4005,4.4005,4.4005,4.4005,4.4005,4.4005,4.4005,4.4005,4.4005,4.4005,3.9644,3.9602,3.9626,3.9669,3.9675,3.9681,3.9693,3.9691,3.9725,3.9792,3.9804,3.9848,3.9986,4.0046,4.0122,4.0191,4.0249,4.0272,4.0301,4.0304,4.0326,4.037,4.0437,4.0486,4.0496,4.0508,4.0496,4.0496,4.0564,4.0664,4.0776,4.084,4.0945,4.1085,4.1084,4.1103,4.1092,4.1172,4.1171,4.1129,4.1108,4.1102,4.1092,4.1109,4.1109,4.1109,4.1109,4.1109,4.1108,4.1106,4.1105,4.1103,4.1109,4.1093,4.1068,4.0982,4.0883,4.0751,4.0701,4.0587,4.0503,4.0478,4.0388,4.0302,0.0,0.0,0.0,0.0,0.0,0.0,0.0,4.022,4.0191,4.0142,4.0043,3.9924,3.9807,3.9699,3.9569,3.942,3.9285,3.9122,3.8874,3.8918,3.8968,3.8964,3.9085,3.9149,3.917,3.917,3.994,4.1615,4.1619,4.237,4.3986,4.4005,4.4005,4.4005,4.4005,4.4005,4.4005,4.4005,4.4005,4.4005,4.4005,4.4005,4.4005,4.4005,4.4005,4.4005,4.4005,4.4005,4.4005,4.4005,4.4005,4.4005,3.9674,3.9644,3.9656,3.9685,3.9721,3.9738,3.9738,3.9743,3.9764,3.9826,3.9859,3.9933,4.0036,4.0098,4.0171,4.0244,4.0291,4.0306,4.0306,4.0294,4.0325,4.0407,4.0458,4.0507,4.0496,4.0531,4.0546,4.0549,4.0638,4.0742,4.0859,4.09,4.1007,4.1104,4.1094,4.1127,4.1152,4.1172,4.1152,4.1109,4.1108,4.1103,0.0,4.109,4.1109,4.1109,4.1109,4.1109,4.1109,4.1109,4.1109,4.1108,4.1103,4.1109,4.1087,4.1047,4.093,4.0787,4.0751,4.0656,4.0543,4.0518,4.0445,4.0379,4.0316,4.0304,4.0295,0.0,4.0305,4.03,0.0,4.0295,4.0291,4.0291,4.0225,4.0153,4.0085,3.997,3.9865,3.9734,3.9658,3.9526,3.9272,3.9183,3.9129,3.9129,3.921,3.9264,3.929,3.9231,3.9979,4.1655,4.1627,4.237,4.3986,4.4005,4.4005,4.4005,4.4005,4.4005,4.4005,4.4005,4.4005,4.4005,4.4005,4.4005,4.4005,4.4005,4.4028,4.4085,4.4124,4.4139,4.4139,4.4139,4.4085,4.4005,4.0064,4.004,4.0021,4.0033,4.0091,4.0142,4.0148,3.9953,3.9826,3.9895,3.9959,4.0074,4.0259,4.0314,4.0425,4.0607,4.063,4.063,4.063,4.0648,4.0678,4.0713,4.0692,4.0668,4.0673,4.0638,4.0605,4.0605,4.0751,4.0846,4.0903,4.0976,4.1042,4.1098,4.1102,4.1131,4.1191,4.1191,4.1152,4.1091,4.1108,4.1104,4.1098,4.1092,4.1109,4.1109,4.1109,4.1109,4.1109,4.1109,4.1109,4.1109,4.1109,4.1095,4.1093,4.11,4.0968,4.0813,4.0804,4.0713,4.0592,4.0523,4.051,4.0462,4.0342,4.032,4.0302,4.0314,4.0304,4.0316,4.0316,0.0,4.0407,4.0407,4.0407,4.0375,4.032,4.0265,4.0187,4.0058,3.9982,0.0,3.9773,3.9501,3.9357,3.9357,3.9357,3.9376,3.9414,3.9416,4.0118,4.1651,4.1753,4.2504,4.4002,4.4036,4.4036,4.4036,4.4036,4.4036,4.4036,4.4036,4.4036,4.4036,4.4036,4.4036,4.4036,4.4036,4.4101,4.4222,4.4285,4.4314,4.4314,4.4336,4.4229,4.4064,4.1805,4.1769,4.1787,4.1828,4.1893,4.195,4.2014,4.0813,3.9889,3.99,3.9959,4.0307,4.1087,4.1176,4.1512,4.2292,4.2354,4.2354,4.2354,4.2407,4.2443,4.2452,4.1893,4.1593,4.1659,4.1012,4.0681,4.0678,4.0818,4.0893,4.09,4.1039,4.1087,4.1095,4.1108,4.1132,4.1191,4.1191,4.1152,4.1091,4.1108,4.1104,4.1098,4.1092,4.1109,4.1109,4.1109,4.1109,4.1109,4.1109,4.1109,4.1109,4.1109,4.1101,4.1106,4.1103,4.1046,4.0947,4.0833,4.0747,4.0665,4.0595,4.0535,4.0497,4.0462,4.0428,4.0375,4.0385,4.037,4.0375,4.0375,0.0,4.0407,4.0407,4.0407,4.0402,4.0379,4.037,4.0344,4.0262,4.0229,4.0187,4.0041,3.9788,3.9635,3.9635,3.9635,3.9611,3.9563,4.012,4.0845,0.0,4.2362,4.3144,0.0,0.0,4.4255,4.4255,4.4255,4.4255,4.4255,4.4255,4.4255,4.4255,4.4255,4.4255,4.4255,4.4255,4.4263,4.4285,4.4365,4.4376,4.439,4.4503,4.453,4.4475,4.2422,4.2405,4.2416,4.2451,4.2479,4.2506,4.2547,4.1841,4.1293,4.1293,4.1365,4.157,4.2034,4.2118,4.2306,4.2751,4.2794,4.2804,4.2795,4.2852,4.2939,4.2992,4.2706,4.2568,4.2614,4.2283,4.2118,4.2141,4.1807,4.1626,4.1625,4.127,4.1104,4.1119,4.1579,4.1797,4.1855,4.2305,4.248,4.2441,4.2459,4.2455,4.245,4.2445,4.2166,4.1771,4.1771,4.1479,4.1109,4.1109,4.1109,4.1109,4.1109,4.1102,4.1092,4.11,4.1048,4.0976,4.0872,4.0801,4.0742,4.0674,4.0606,4.0542,4.0503,4.0482,4.0441,4.0411,4.0428,4.0453,4.044,4.0448,0.0,0.0,4.0448,4.0448,4.0448,4.0448,4.0451,4.0405,4.04,4.0351,4.0275,4.0143,4.0024,3.9927,3.9876,3.9815,3.9718,0.0,4.1088,0.0,0.0,0.0,4.43,0.0,4.4401,4.4401,4.4401,4.4401,4.4409,4.4451,4.4466,4.4466,4.4489,4.451,4.451,4.4551,4.4565,4.4572,4.4627,4.468,4.4719,4.4777,4.4821,4.4815,4.3129,4.3129,4.3129,4.3129,4.314,4.315,4.315,4.3161,4.3047,4.2658,4.2654,4.2766,4.2933,4.3012,4.3138,4.331,4.3339,4.3345,4.335,4.3425,4.3525,4.3629,4.3528,4.3512,4.3566,4.3477,4.3452,4.3512,4.2896,4.2602,4.2572,4.196,4.1644,4.1671,4.2362,4.2676,4.2715,0.0,4.3691,4.3691,4.369,4.3707,4.3703,4.3699,4.3262,4.2689,4.2689,4.224,4.1655,4.1655,4.1402,4.1109,4.1109,4.1104,4.1096,4.1095,4.1067,4.1003,4.0933,4.0873,4.0815,4.075,4.0665,4.0617,4.0542,4.0531,4.0518,4.0438,4.0478,4.0491,4.0508,4.0496,0.0,0.0,4.0496,4.0496,4.0496,4.0496,4.05,4.0503,4.0499,4.0482,4.0426,4.0422,4.0357,4.0206,4.0098,3.9986,3.9848,0.0,0.0,0.0,0.0,4.3825,4.4489,0.0,4.4599,4.4578,4.4612,4.4619,4.4605,4.4679,4.4712,4.4718,4.4751,4.4796,4.4783,4.4833,4.4858,4.4864,4.4931,4.5004,4.5057,4.5061,4.512,4.5131,4.488,4.488,4.488,4.488,4.4925,4.4957,4.4957,4.5006,4.4452,4.2802,4.2654,4.2971,4.3715,4.3847,4.4202,4.4996,4.5119,4.5149,4.5154,4.5274,4.5353,4.5365,4.473,4.4415,4.4478,4.3838,4.3514,4.3594,4.3589,4.3564,4.3565,4.3497,4.345,4.3457,4.3535,0.0,0.0,4.3672,4.3691,4.3691,4.369,4.3707,4.3703,4.3699,4.3654,4.3587,4.3587,4.3529,4.3451,4.3451,4.2416,4.1109,4.1109,4.1108,4.1106,4.1096,4.1091,4.1078,4.1003,4.0945,4.0861,4.0806,4.0733,4.0691,4.0674,4.0628,4.0592,4.0569,4.0546,4.0489,4.0496,4.0496,4.0496,0.0,0.0,4.0496,4.0496,4.0496,4.0492,4.0508,4.0508,4.0508,4.0485,4.0481,4.0476,4.0458,4.0291,4.0118,3.9986,0.0,0.0,4.2178,4.3717,4.4617,4.4757,4.4883,4.4913,4.4858,4.4998,4.5003,4.4968,4.5014,4.5043,4.5043,4.5068,4.5049,4.5049,4.508,4.5061,4.5085,4.5148,4.5175,4.5192,4.5317,4.5378,4.5378,4.5346,4.532,4.5276,4.5276,4.5309,4.5317,4.5317,4.5312,4.5038,4.4327,4.4248,4.4373,4.4716,4.4751,4.4949,4.5329,4.5374,4.5429,4.5519,4.5566,4.5648,4.5768,4.5548,4.5423,4.5493,4.5251,4.5157,4.522,4.4729,4.4474,4.4473,4.3933,0.0,0.0,0.0,4.4473,4.4512,4.5039,4.5254,4.5254,4.5254,4.5252,4.5266,4.5265,4.4945,4.4484,4.4484,4.4133,4.3705,4.3705,4.2885,4.1888,4.1888,4.1518,4.1108,4.1104,4.1098,4.109,4.107,4.1015,4.0949,4.0935,4.0845,4.0768,4.0759,4.07,4.0661,4.0616,4.0557,4.0496,4.0496,4.0496,4.0496,4.0496,0.0,4.0496,4.0496,4.0496,4.0496,4.0496,4.0496,4.0496,4.0496,4.0496,4.0496,4.0506,4.0344,4.0435,4.0822,0.0,0.0,4.3095,0.0,4.5003,4.5051,4.5136,4.517,4.5142,4.5192,4.5203,4.5181,4.5259,4.5283,4.5276,4.5276,4.5276,4.5276,4.5276,4.5276,4.5281,4.5301,4.5351,4.5385,4.5443,4.55,4.5524,4.5562,4.5516,4.5489,4.5456,4.5453,4.5448,4.5433,4.5365,4.5329,4.5329,4.5329,4.5324,4.5328,4.5328,4.5348,4.5404,4.5438,4.551,4.5584,4.5653,4.576,4.5922,4.5989,4.6063,4.6137,4.62,4.6248,4.6305,4.5685,4.5384,0.0,0.0,0.0,0.0,4.5117,4.5371,4.543,4.6035,4.6308,4.6308,4.6308,4.6307,4.6301,4.6301,4.5924,4.5382,4.5382,4.4992,4.4466,4.4466,4.3899,4.3117,4.2864,4.2357,4.185,4.185,4.1866,4.18,4.1543,4.1441,4.1349,4.1085,4.0933,4.0866,4.0861,4.0782,4.0703,4.0641,4.0575,4.0527,4.0535,4.0504,4.0496,4.0496,0.0,0.0,4.0496,4.0496,4.0496,4.0496,4.0496,4.0593,4.0858,4.0877,4.1,4.1256,4.1166,4.1192,4.1451,0.0,0.0,0.0,0.0,0.0,4.5253,4.5329,4.535,4.5334,4.5365,4.537,4.536,4.5433,4.5458,4.5471,4.5471,4.5471,4.5471,4.5471,4.5471,4.5471,4.5471,4.549,4.5522,4.5522,4.5564,4.5594,4.5704,4.5704,4.5688,4.5609,4.5601,4.5573,4.5508,4.5438,4.5405,4.5405,4.5405,4.5405,4.5389,4.5403,4.5404,4.54,4.5517,4.5593,4.5596,4.5794,4.5928,4.5991,4.606,4.6138,4.6197,4.6265,4.6305,4.6305,4.6285,4.6277,4.6282,0.0,4.6269,4.6269,4.6289,4.6289,4.6289,4.6308,4.6308,4.6308,4.6308,4.6307,4.6301,4.6301,4.6295,4.6281,4.6281,4.6281,4.6262,4.6262,4.5695,4.4815,4.3958,4.3685,4.3666,4.3666,4.3666,4.3488,4.262,4.2383,4.2182,4.1317,4.1052,4.1001,4.0998,4.0883,4.0782,4.072,4.0654,4.0596,4.0595,4.0539,4.0496,4.0496,0.0,0.0,4.0496,4.0496,4.0496,4.0496,4.0496,4.0839,4.1696,4.1773,4.2139,4.3008,4.3013,4.2564,0.0,0.0,0.0,4.4087,4.4944,0.0,4.54,4.5452,4.5452,4.5405,4.5522,4.5564,4.5499,4.5568,4.559,4.559,4.559,4.559,4.559,4.559,4.559,4.559,4.559,4.559,4.559,4.559,4.559,4.5594,4.5902,4.5872,4.5838,4.5806,4.5773,4.5727,4.5712,4.5605,4.5537,4.5537,4.5537,4.5541,4.5601,4.5513,4.5499,4.5595,4.5637,4.5711,4.5801,4.5913,4.5993,4.6065,4.6135,4.6194,4.6266,4.6287,4.6296,4.6296,0.0,0.0,0.0,4.6308,4.6308,4.6308,4.6308,4.6308,4.6308,4.6308,4.6308,4.6308,4.6308,4.6307,4.6301,4.6301,4.6295,4.6301,4.6301,4.6301,4.6301,4.6301,4.6124,4.5831,4.5559,4.4661,4.3705,4.3705,4.3705,4.3645,4.3369,4.3286,4.3083,4.2198,4.197,4.1795,4.1195,4.0957,4.0852,4.0784,4.0757,4.0717,4.0677,4.0656,4.0623,4.0579,4.0575,0.0,4.0575,4.0575,4.0795,4.1386,4.1459,4.1774,4.2604,4.2701,4.2797,4.3085,4.3596,4.3754,0.0,0.0,0.0,0.0,4.5375,0.0,4.5546,4.5564,4.5564,4.5546,4.5577,4.5586,4.5573,4.5586,4.5594,4.5594,4.5594,4.5594,4.5594,4.5594,4.5594,4.5594,4.5594,4.5594,4.5594,4.5594,4.5594,4.5594,4.6078,4.6036,4.5993,4.5983,4.5919,4.588,4.5886,4.5784,4.57,4.57,4.57,4.5734,4.5812,4.5746,0.0,4.5772,4.5803,4.5851,4.5936,4.5993,4.6069,4.613,4.6195,4.6258,4.6305,4.6295,0.0,4.6306,4.6296,4.6303,4.6308,4.6308,4.6308,4.6308,4.6308,4.6308,4.6308,4.6308,4.6308,4.6308,4.6308,4.6307,4.6301,4.6301,4.6295,4.6301,4.6301,4.6301,4.6301,4.6301,4.6301,4.6301,4.6301,4.5559,4.4681,4.4681,4.4681,4.4602,4.4289,4.4187,4.3987,4.3111,4.2888,4.2738,4.2174,4.1965,4.1895,4.1825,4.1805,4.1784,4.1727,4.1702,4.1706,4.1651,4.1648,4.1641,4.1628,4.1611,4.1816,4.2337,4.2372,4.2672,4.3474,4.3547,4.3682,4.4013,4.4494,4.4788,0.0,0.0,4.5027,4.5527,4.5577,4.5594,4.5594,4.5594,4.5594,4.5594,4.5594,4.5594,4.5594,4.5594,4.5594,4.5594,4.5594,4.5594,4.5594,4.5594,4.5594,4.5594,4.5594,4.5594,4.5594,4.5594,4.5594,4.5594,4.6204,4.6204,4.6197,4.6121,4.6063,4.6003,4.6017,4.5967,4.5907,4.5907,4.5907,4.5938,4.6006,4.6016,4.5983,4.5935,0.0,0.0,4.6008,4.6076,4.6134,4.6206,4.6273,4.6306,4.6306,4.6296,4.6306,4.6295,4.6304,4.6308,4.6308,4.6308,4.6308,4.6308,4.6308,4.6308,4.6308,4.6308,4.6308,4.6308,4.6308,4.6307,4.6302,4.6302,4.6295,4.6302,4.6301,4.6301,4.6301,4.6301,4.6301,4.6301,4.6301,4.6301,4.6301,4.6301,4.6301,4.6124,4.5303,4.5089,4.4874,4.4017,4.3737,4.3684,4.3622,4.3617,4.3584,4.3514,4.3504,4.3495,4.3428,4.3416,4.3416,4.3413,4.3413,4.3383,4.3329,4.3314,4.3301,4.3299,0.0,0.0,4.4329,4.4397,4.4724,4.5537,4.5594,4.5594,0.0,0.0,4.5594,4.5594,4.5594,4.5594,4.5594,4.5594,4.5594,4.5594,4.5594,4.5594,4.5594,4.5594,4.5594,4.5594,4.5594,4.5594,4.5594,4.5594,4.5594,4.5594,4.5594,4.5594,4.5594,4.5594,4.5594,4.5594,4.6284,4.6278,4.6271,4.6267,4.6203,4.6158,4.6155,4.6099,4.605,4.605,4.605,4.6052,4.6078,4.6113,4.6148,4.6135,4.6107,4.6096,4.6158,4.6212,4.625,4.6276,4.629,4.6297,4.6297,4.6306,4.6296,4.6305,4.6306,4.6308,4.6308,4.6308,4.6308,4.6308,4.6308,4.6308,4.6308,4.6308,4.6308,4.6308,4.6308,4.6308,4.6306,4.6303,4.6297,4.6309,4.6303,4.6301,4.6301,4.6301,4.6301,4.6301,4.6301,4.6301,4.6301,4.6301,4.6301,4.6242,4.6046,4.5987,4.5773,4.4914,4.419,4.3699,4.3684,4.3681,4.3655,4.3584,4.3575,4.3562,4.3565,4.3553,4.3545,4.3486,4.3484,4.3475,4.3447,4.3459,4.366,0.0,4.4207,4.4484,4.5284,4.5323,4.5379,0.0,0.0,4.5594,4.5594,4.5594,4.5594,4.5594,4.5594,4.5594,4.5594,4.5594,4.5594,4.5594,4.5594,4.5594,4.5594,4.5594,4.5594,4.5594,4.5594,4.5594,4.5594,4.5594,4.5594,4.5594,4.5594,4.5594,4.5594,4.5594,4.5594,4.5594,4.63,4.6296,4.6292,4.6292,4.6278,4.6245,4.6245,4.6186,4.6149,4.6149,4.6149,4.6149,4.6149,4.6212,4.6245,4.6245,4.6173,4.617,4.6244,4.6277,4.6307,4.6292,4.6298,4.6302,4.6306,4.6291,4.6299,4.6307,4.6308,4.6308,4.6308,4.6308,4.6308,4.6308,4.6308,4.6308,4.6308,4.6308,4.6308,4.6308,4.6308,4.6308,4.6307,4.6305,4.6301,4.6293,4.6308,4.6304,4.6301,4.6301,4.6301,4.6301,4.6301,4.6301,4.6301,4.6301,4.6301,4.6301,4.6301,4.6301,4.6184,4.5714,4.5246,4.4894,4.4888,4.4887,4.4883,4.4846,4.4822,4.4816,4.4794,4.479,4.4787,4.4738,4.4736,4.4726,4.4735,4.4712,4.4812,4.5159,4.5137,4.5248,4.5651,4.564,4.5594,4.5594,4.5594,0.0,4.5594,4.5594,4.5594,4.5594,4.5594,4.5594,4.5594,4.5594,4.5594,4.5594,4.5594,4.5594,4.5594,4.5594,4.5594,4.5594,4.5594,4.5594,4.5594,4.5594,4.5594,4.5594,4.5594,4.5594,4.5594,4.5594,4.5594,4.5594,4.6301,4.6301,4.6301,4.6301,4.6293,4.6307,4.6307,4.626,4.6214,4.6214,4.6214,4.6214,4.6214,4.6262,4.6307,4.6307,4.6259,4.6238,4.6307,4.6307,4.6291,4.63,4.6302,4.6306,4.6293,4.6295,4.6301,4.6307,4.6308,4.6308,4.6308,4.6308,4.6308,4.6308,4.6308,4.6308,4.6308,4.6308,4.6308,4.6308,4.6308,4.6308,4.6307,4.6307,4.6303,4.6296,4.6295,4.6309,4.6302,4.6302,4.6302,4.6301,4.6301,4.6301,4.6301,4.6301,4.6301,4.6301,4.6301,4.6301,4.6301,4.6302,4.6302,4.6302,4.6304,4.6304,4.6302,4.6294,4.6291,4.6287,4.6238,4.6215,4.6214,4.6214,4.6214,4.6224,4.6214,0.0,4.6061,4.5936,4.5851,4.5798,4.5714,4.5652,4.5599,4.5594,4.5594,4.5594,4.5594,4.5594,4.5594,4.5594,4.5594,4.5594,4.5594,4.5594,4.5594,4.5594,4.5594,4.5594,4.5594,4.5594,4.5594,4.5594,4.5594,4.5594,4.5594,4.5594,4.5594,4.5594,4.5594,4.5594,4.5594,4.5594,4.5594,4.5594,4.6301,4.6301,4.6301,4.6301,4.6299,4.6298,4.6298,4.6297,4.6277,4.6277,4.6277,4.6277,4.6277,4.6297,4.6298,4.6298,4.6297,4.6296,4.6298,4.6298,4.6299,4.6301,4.6307,4.6292,4.6293,4.6302,4.6307,4.6308,4.6308,4.6308,4.6308,4.6308,4.6308,4.6308,4.6308,4.6308,4.6308,4.6308,4.6308,4.6308,4.6308,4.6308,4.6308,4.6307,4.6306,4.6305,4.6302,4.6297,4.6291,4.6291,4.6306,4.6301,4.6301,4.6301,4.6301,4.6301,4.6301,4.6301,4.6301,4.6301,4.6302,4.6309,4.6291,4.6293,4.6298,4.6299,4.6299,4.6298,4.6294,4.6309,4.6288,4.6282,4.6277,4.6277,4.6277,4.6272,4.6278,0.0,4.6155,4.6084,4.5967,4.5854,4.58,4.5718,4.5657,4.5594,4.5594,4.5594,4.5594,4.5594,4.5594,4.5594,4.5594,4.5594,4.5594,4.5594,4.5594,4.5594,4.5594,4.5594,4.5594,4.5594,4.5594,4.5594,4.5594,4.5594,4.5594,4.5594,4.5594,4.5594,4.5594,4.5594,4.5594,4.5594,4.5594,4.5594,4.6301,4.6301,4.6301,4.6301,4.6301,4.6301,4.6301,4.6301,4.6301,4.6301,4.6301,4.6301,4.6301,4.6301,4.6301,4.6301,4.6301,4.6301,4.6301,4.6301,4.6302,4.6307,4.6291,4.6296,4.6302,4.6307,4.6308,4.6308,4.6308,4.6308,4.6308,4.6308,4.6308,4.6308,4.6308,4.6308,4.6308,4.6308,4.6308,4.6308,4.6308,4.6308,4.6308,4.6308,4.6308,4.6307,4.6305,4.6302,4.6298,4.6298,4.6294,4.6307,4.6307,4.6304,4.6302,4.6306,4.6304,4.6302,4.6306,4.6307,4.6309,4.6296,4.6298,4.6299,4.6301,4.6301,4.6301,4.6301,4.63,4.6298,4.6298,4.6293,4.6307,4.6307,4.6303,0.0,4.6306,4.6275,4.6228,4.6103,4.6013,4.5916,4.5812,4.5746,4.5667,4.5618,4.5594,4.5594,4.5594,4.5594,4.5594,4.5594,4.5594,4.5594,4.5594,4.5594,4.5594,4.5594,4.5594,4.5594,4.5594,4.5594,4.5594,4.5594,4.5594,4.5594,4.5594,4.5594,4.5594,4.5594,4.5594,4.5594,4.5594,4.5594,4.5594,4.5594,4.6301,4.6301,4.6301,4.6301,4.6301,4.6301,4.6301,4.6301,4.6301,4.6301,4.6301,4.6301,4.6301,4.6301,4.6301,4.6301,4.6301,4.6302,4.6303,4.6303,4.6306,4.6293,4.6296,4.6302,4.6307,4.6308,4.6308,4.6308,4.6308,4.6308,4.6308,4.6308,4.6308,4.6308,4.6308,4.6308,4.6308,4.6308,4.6308,4.6308,4.6308,4.6308,4.6308,4.6308,4.6308,4.6307,4.6307,4.6306,4.6303,4.6303,4.63,4.6295,4.6295,4.6292,4.6308,4.6294,4.6291,4.6308,4.6294,4.6295,4.6297,4.6302,4.6303,4.6303,4.6304,4.6305,4.6305,4.6305,4.6304,4.6303,4.6303,4.6299,4.6295,4.6293,0.0,4.6301,4.629,4.6306,4.6268,4.6132,4.6061,4.598,4.5848,4.5753,4.5703,4.5635,4.5618,4.5594,4.5594,4.5594,4.5594,4.5594,4.5594,4.5594,4.5594,4.5594,4.5594,4.5594,4.5594,4.5594,4.5594,4.5594,4.5594,4.5594,4.5594,4.5594,4.5594,4.5594,4.5594,4.5594,4.5594,4.5594,4.5594,4.5594,4.5594,4.5594,4.6301,4.6301,4.6301,4.6301,4.6301,4.6301,4.6301,4.6301,4.6301,4.6301,4.6301,4.6301,4.6301,4.6301,4.6301,4.6301,4.6301,4.6304,4.6292,4.6292,4.6293,4.6293,4.6303,4.6307,4.6308,4.6308,4.6308,4.6308,4.6308,4.6308,4.6308,4.6308,4.6308,4.6308,4.6308,4.6308,4.6308,4.6308,4.6308,4.6308,4.6308,4.6308,4.6308,4.6308,4.6308,4.6308,4.6308,4.6308,4.6306,4.6306,4.6305,4.6301,4.6301,4.6301,4.6301,4.6301,4.6301,4.6301,4.6301,4.6301,4.6302,4.6306,4.6306,4.6307,4.6308,4.6308,4.6308,4.6308,4.6308,4.6306,4.6306,4.6304,4.63,4.6294,0.0,0.0,4.6301,4.6291,4.6275,4.6204,4.6133,4.6035,4.5914,4.583,4.577,4.5701,4.5635,4.5594,4.5594,4.5594,4.5594,4.5594,4.5594,4.5594,4.5594,4.5594,4.5594,4.5594,4.5594,4.5594,4.5594,4.5594,4.5594,4.5594,4.5594,4.5594,4.5594,4.5594,4.5594,4.5594,4.5594,4.5594,4.5594,4.5594,4.5594,4.5594,4.6301,4.6301,4.6301,4.6301,4.6301,4.6301,4.6301,4.6301,4.6301,4.6301,4.6301,4.6301,4.6301,4.6306,4.6308,4.6308,4.6293,4.6296,4.6299,4.6301,4.6303,4.6303,4.6307,4.6308,4.6308,4.6308,4.6308,4.6308,4.6308,4.6308,4.6308,4.6308,4.6308,4.6308,4.6308,4.6308,4.6308,4.6308,4.6308,4.6308,4.6308,4.6308,4.6308,4.6308,4.6308,4.6308,4.6308,4.6308,4.6308,4.6308,4.6307,4.6305,4.6305,4.6304,4.6302,4.6305,4.6306,4.6307,4.6307,4.6306,4.6306,4.6308,4.6308,4.6308,4.6308,4.6308,4.6308,4.6308,4.6308,4.6308,4.6308,4.6307,4.6304,4.63,0.0,4.6291,4.6302,4.6297,4.6289,4.6273,4.62,4.6117,4.598,4.5899,4.5826,4.5709,4.564,4.5594,4.5594,4.5594,4.5594,4.5594,4.5594,4.5594,4.5594,4.5594,4.5594,4.5594,4.5594,4.5594,4.5594,4.5594,4.5594,4.5594,4.5594,4.5594,4.5594,4.5594,4.5594,4.5594,4.5594,4.5594,4.5594,4.5594,4.5594,4.5594,4.6309,4.6309,4.6309,4.6309,4.6309,4.6309,4.6309,4.6309,4.6309,4.6309,4.6309,4.6309,4.6309,4.6293,4.6296,4.6296,4.63,4.6302,4.6303,4.6306,4.6308,4.6308,4.6308,4.6308,4.6308,4.6308,4.6308,4.6308,4.6308,4.6308,4.6308,4.6308,4.6308,4.6308,4.6308,4.6308,4.6308,4.6308,4.6308,4.6308,4.6308,4.6308,4.6308,4.6308,4.6308,4.6308,4.6308,4.6308,4.6308,4.6308,4.6308,4.6308,4.6308,4.6307,4.6306,4.6307,4.6308,4.6308,4.6308,4.6308,4.6308,4.6308,4.6308,4.6308,4.6308,4.6308,4.6308,4.6308,4.6308,4.6308,4.6308,4.6308,4.6306,4.6302,4.6297,4.6291,4.6302,4.6301,4.6295,4.6261,4.6235,4.6142,4.6012,4.5928,4.5812,4.571,4.5648,4.5594,4.5594,4.5594,4.5594,4.5594,4.5594,4.5594,4.5594,4.5594,4.5594,4.5594,4.5594,4.5594,4.5594,4.5594,4.5594,4.5594,4.5594,4.5594,4.5594,4.5594,4.5594,4.5594,4.5594,4.5594,4.5594,4.5594,4.5594,4.5594,4.6301,4.6301,4.6301,4.6301,4.6301,4.6301,4.6301,4.6301,4.6301,4.6301,4.6301,4.6301,4.6301,4.6301,4.6301,4.6301,4.6302,4.6303,4.6307,4.6308,4.6308,4.6308,4.6308,4.6308,4.6308,4.6308,4.6308,4.6308,4.6308,4.6308,4.6308,4.6308,4.6308,4.6308,4.6308,4.6308,4.6308,4.6308,4.6308,4.6308,4.6308,4.6308,4.6308,4.6308,4.6308,4.6308,4.6308,4.6308,4.6308,4.6308,4.6308,4.6308,4.6308,4.6308,4.6308,4.6308,4.6308,4.6308,4.6308,4.6308,4.6308,4.6308,4.6308,4.6308,4.6308,4.6308,4.6308,4.6308,4.6308,4.6308,4.6308,4.6308,4.6306,4.6302,4.6297,4.6291,4.6302,4.6301,4.6274,4.621,4.62,4.6146,4.6012,4.589,4.5775,4.5712,4.5646,4.5594,4.5594,4.5594,4.5594,4.5594,4.5594,4.5594,4.5594,4.5594,4.5594,4.5594,4.5594,4.5594,4.5594,4.5594,4.5594,4.5594,4.5594,4.5594,4.5594,4.5594,4.5594,4.5594,4.5594,4.5594,4.5594,4.5594,4.5594,4.5594,4.6301,4.6301,4.6301,4.6301,4.6301,4.6301,4.6301,4.6301,4.6301,4.6301,4.6301,4.6301,4.6301,4.6304,4.6305,4.6305,4.6307,4.6308,4.6308,4.6308,4.6308,4.6308,4.6308,4.6308,4.6308,4.6308,4.6308,4.6308,4.6308,4.6308,4.6308,4.6308,4.6308,4.6308,4.6308,4.6308,4.6308,4.6308,4.6308,4.6308,4.6308,4.6308,4.6308,4.6308,4.6308,4.6308,4.6308,4.6308,4.6308,4.6308,4.6308,4.6308,4.6308,4.6308,4.6308,4.6308,4.6308,4.6308,4.6308,4.6308,4.6308,4.6308,4.6308,4.6308,4.6308,4.6308,4.6308,4.6308,4.6308,4.6308,4.6308,4.6306,4.6302,4.6297,4.6295,4.6291,4.6302,4.6294,4.6287,4.6261,4.6196,4.6091,4.601,4.589,4.5764,4.571,4.5648,4.5594,4.5594,4.5594,4.5594,4.5594,4.5594,4.5594,4.5594,4.5594,4.5594,4.5594,4.5594,4.5594,4.5594,4.5594,4.5594,4.5594,4.5594,4.5594,4.5594,4.5594,4.5594,4.5594,4.5594,4.5594,4.5594,4.5594,4.5594,4.5594,4.6306,4.6306,4.6306,4.6306,4.6306,4.6306,4.6306,4.6306,4.6306,4.6306,4.6306,4.6306,4.6306,4.6307,4.6308,4.6308,4.6308,4.6308,4.6308,4.6308,4.6308,4.6308,4.6308,4.6308,4.6308,4.6308,4.6308,4.6308,4.6308,4.6308,4.6308,4.6308,4.6308,4.6308,4.6308,4.6308,4.6308,4.6308,4.6308,4.6308,4.6308,4.6308,4.6308,4.6308,4.6308,4.6308,4.6308,4.6308,4.6308,4.6308,4.6308,4.6308,4.6308,4.6308,4.6308,4.6308,4.6308,4.6308,4.6308,4.6308,4.6308,4.6308,4.6308,4.6308,4.6308,4.6308,4.6308,4.6308,4.6308,4.6306,4.6305,4.6302,4.6297,4.6294,4.6291,4.6306,4.6296,4.6309,4.6278,4.6237,4.6125,4.6032,4.5978,4.5841,4.5735,4.5665,4.5627,4.5594,4.5594,4.5594,4.5594,4.5594,4.5594,4.5594,4.5594,4.5594,4.5594,4.5594,4.5594,4.5594,4.5594,4.5594,4.5594,4.5594,4.5594,4.5594,4.5594,4.5594,4.5594,4.5594,4.5594,4.5594,4.5594,4.5594,4.5594,4.5594,4.6308,4.6308,4.6308,4.6308,4.6308,4.6308,4.6308,4.6308,4.6308,4.6308,4.6308,4.6308,4.6308,4.6308,4.6308,4.6308,4.6308,4.6308,4.6308,4.6308,4.6308,4.6308,4.6308,4.6308,4.6308,4.6308,4.6308,4.6308,4.6308,4.6308,4.6308,4.6308,4.6308,4.6308,4.6308,4.6308,4.6308,4.6308,4.6308,4.6308,4.6308,4.6308,4.6308,4.6308,4.6308,4.6308,4.6308,4.6308,4.6308,4.6308,4.6308,4.6308,4.6308,4.6308,4.6308,4.6308,4.6308,4.6308,4.6308,4.6308,4.6308,4.6308,4.6308,4.6308,4.6308,4.6308,4.6308,4.6307,4.6306,4.6305,4.6302,4.6296,4.6292,4.6291,4.6305,4.6295,4.6284,4.6299,4.622,4.6113,4.6022,4.5964,4.5883,4.5769,4.5664,4.5599,4.5594,4.5594,4.5594,4.5594,4.5594,4.5594,4.5594,4.5594,4.5594,4.5594,4.5594,4.5594,4.5594,4.5594,4.5594,4.5594,4.5594,4.5594,4.5594,4.5594,4.5594,4.5594,4.5594,4.5594,4.5594,4.5594,4.5594,4.5594,4.5594,4.5594,4.6308,4.6308,4.6308,4.6308,4.6308,4.6308,4.6308,4.6308,4.6308,4.6308,4.6308,4.6308,4.6308,4.6308,4.6308,4.6308,4.6308,4.6308,4.6308,4.6308,4.6308,4.6308,4.6308,4.6308,4.6308,4.6308,4.6308,4.6308,4.6308,4.6308,4.6308,4.6308,4.6308,4.6308,4.6308,4.6308,4.6308,4.6308,4.6308,4.6308,4.6308,4.6308,4.6308,4.6308,4.6308,4.6308,4.6308,4.6308,4.6308,4.6308,4.6308,4.6308,4.6308,4.6308,4.6308,4.6308,4.6308,4.6308,4.6308,4.6308,4.6308,4.6308,4.6308,4.6308,4.6308,4.6308,4.6307,4.6307,4.6303,4.6297,4.6295,4.6309,4.6301,4.6293,4.631,4.6282,4.6238,4.6174,4.6117,4.6024,4.5953,4.5871,4.5743,4.5661,4.5616,4.5594,4.5594,4.5594,4.5594,4.5594,4.5594,4.5594,4.5594,4.5594,4.5594,4.5594,4.5594,4.5594,4.5594,4.5594,4.5594,4.5594,4.5594,4.5594,4.5594,4.5594,4.5594,4.5594,4.5594,4.5594,4.5594,4.5594,4.5594,4.5594,4.5594,4.5594,4.6308,4.6308,4.6308,4.6308,4.6308,4.6308,4.6308,4.6308,4.6308,4.6308,4.6308,4.6308,4.6308,4.6308,4.6308,4.6308,4.6308,4.6308,4.6308,4.6308,4.6308,4.6308,4.6308,4.6308,4.6308,4.6308,4.6308,4.6308,4.6308,4.6308,4.6308,4.6308,4.6308,4.6308,4.6308,4.6308,4.6308,4.6308,4.6308,4.6308,4.6308,4.6308,4.6308,4.6308,4.6308,4.6308,4.6308,4.6308,4.6308,4.6308,4.6308,4.6308,4.6308,4.6308,4.6308,4.6308,4.6308,4.6308,4.6307,4.6307,4.6307,4.6307,4.6307,4.6307,4.6308,4.6307,4.6306,4.6303,4.6297,4.6292,4.6308,4.6303,4.6297,4.6307,4.6261,4.6226,4.6167,4.6086,4.6032,4.5953,4.5854,4.5752,4.5669,4.5614,4.5594,4.5594,4.5594,4.5594,4.5594,4.5594,4.5594,4.5594,4.5594,4.5594,4.5594,4.5594,4.5594,4.5594,4.5594,4.5594,4.5594,4.5594,4.5594,4.5594,4.5594,4.5594,4.5594,4.5594,4.5594,4.5594,4.5594,4.5594,4.5594,4.5594,4.5594,4.5594,4.6308,4.6308,4.6308,4.6308,4.6308,4.6308,4.6308,4.6308,4.6308,4.6308,4.6308,4.6308,4.6308,4.6308,4.6308,4.6308,4.6308,4.6308,4.6308,4.6308,4.6308,4.6308,4.6308,4.6308,4.6308,4.6308,4.6308,4.6308,4.6308,4.6308,4.6308,4.6308,4.6308,4.6308,4.6308,4.6308,4.6308,4.6308,4.6308,4.6308,4.6308,4.6308,4.6308,4.6308,4.6308,4.6308,4.6308,4.6308,4.6308,4.6308,4.6308,4.6308,4.6308,4.6308,4.6308,4.6307,4.6306,4.6306,4.6303,4.6301,4.6301,4.6301,4.6301,4.6302,4.6305,4.6305,4.6304,4.6295,4.6292,4.6309,4.6302,4.6301,4.6297,4.6284,4.6231,4.6164,4.6084,4.6029,4.5953,4.5886,4.5764,4.5657,4.5603,4.5594,4.5594,4.5594,4.5594,4.5594,4.5594,4.5594,4.5594,4.5594,4.5594,4.5594,4.5594,4.5594,4.5594,4.5594,4.5594,4.5594,4.5594,4.5594,4.5594,4.5594,4.5594,4.5594,4.5594,4.5594,4.5594,4.5594,4.5594,4.5594,4.5594,4.5594,4.5594,4.5614,4.6308,4.6308,4.6308,4.6308,4.6308,4.6308,4.6308,4.6308,4.6308,4.6308,4.6308,4.6308,4.6308,4.6308,4.6308,4.6308,4.6308,4.6308,4.6308,4.6308,4.6308,4.6308,4.6308,4.6308,4.6308,4.6308,4.6308,4.6308,4.6308,4.6308,4.6308,4.6308,4.6308,4.6308,4.6308,4.6308,4.6308,4.6308,4.6308,4.6308,4.6308,4.6308,4.6308,4.6308,4.6308,4.6308,4.6308,4.6308,4.6308,4.6308,4.6308,4.6308,4.6308,4.6307,4.6307,4.6304,4.6302,4.6302,4.6302,4.6301,4.6301,4.6301,4.6301,4.6301,4.6297,4.6296,4.6295,4.6293,4.6307,4.6302,4.6301,4.6301,4.6275,4.6214,4.6167,4.6082,4.6013,4.5966,4.5867,4.5746,4.5656,4.5612,4.5594,4.5594,4.5594,4.5594,4.5594,4.5594,4.5594,4.5594,4.5594,4.5594,4.5594,4.5594,4.5594,4.5594,4.5594,4.5594,4.5594,4.5594,4.5594,4.5594,4.5594,4.5594,4.5594,4.5594,4.5594,4.5594,4.5594,4.5594,4.5594,4.5594,4.5594,4.5594,4.5594,4.5706,4.6308,4.6308,4.6308,4.6308,4.6308,4.6308,4.6308,4.6308,4.6308,4.6308,4.6308,4.6308,4.6308,4.6308,4.6308,4.6308,4.6308,4.6308,4.6308,4.6308,4.6308,4.6308,4.6308,4.6308,4.6308,4.6308,4.6308,4.6308,4.6308,4.6308,4.6308,4.6308,4.6308,4.6308,4.6308,4.6308,4.6308,4.6308,4.6308,4.6308,4.6308,4.6308,4.6308,4.6308,4.6308,4.6308,4.6308,4.6308,4.6308,4.6308,4.6307,4.6306,4.6305,4.6304,4.6303,4.6299,4.6297,4.6296,4.6293,4.6292,4.6292,4.6292,4.6292,4.6291,4.6307,4.6302,4.6301,4.6305,4.6299,4.6292,4.6292,4.6268,4.6236,4.6207,4.6132,4.6054,4.5969,4.5887,4.5795,4.5671,4.5616,4.5594,4.5594,4.5594,4.5594,4.5594,4.5594,4.5594,4.5594,4.5594,4.5594,4.5594,4.5594,4.5594,4.5594,4.5594,4.5594,4.5594,4.5594,4.5594,4.5594,4.5594,4.5594,4.5594,4.5594,4.5594,4.5594,4.5594,4.5594,4.5594,4.5594,4.5594,4.5594,4.5594,4.5917,4.6374]}]]